<?xml version="1.0" encoding="UTF-8" standalone="no" ?>
<gpx xmlns="http://www.topografix.com/GPX/1/1" xmlns:xsi="http://www.w3.org/2001/XMLSchema-instance" xsi:schemaLocation="http://www.topografix.com/GPX/1/1 http://www.topografix.com/GPX/1/1/gpx.xsd" version="1.1" creator="VisuGPX - https://www.visugpx.com">
  <metadata>
    <name>St Rivoal - Braspart</name>
    <desc><![CDATA[boucle au pays des Monts d'Arrée au départ de St Rivoal en direction de Braspar]]></desc>
  </metadata>
  <trk>
    <name><![CDATA[OR-5690151--Saint-Rivoal:J3 - St Rivoal - Braspart]]></name>
    <trkseg>
      <trkpt lat="48.34955" lon="-3.99937">
        <ele>162</ele>
        <time>2017-01-13T22:22:44Z</time>
      </trkpt>
      <trkpt lat="48.34959" lon="-3.99939">
        <ele>162</ele>
        <time>2017-01-13T22:24:44Z</time>
      </trkpt>
      <trkpt lat="48.34961" lon="-3.99935">
        <ele>162</ele>
        <time>2017-01-13T22:26:44Z</time>
      </trkpt>
      <trkpt lat="48.34962" lon="-3.99934">
        <ele>162</ele>
        <time>2017-01-13T22:28:44Z</time>
      </trkpt>
      <trkpt lat="48.34963" lon="-3.99934">
        <ele>162</ele>
        <time>2017-01-13T22:30:44Z</time>
      </trkpt>
      <trkpt lat="48.34964" lon="-3.99935">
        <ele>162</ele>
        <time>2017-01-13T22:32:44Z</time>
      </trkpt>
      <trkpt lat="48.34964" lon="-3.99935">
        <ele>162</ele>
        <time>2017-01-13T22:34:44Z</time>
      </trkpt>
      <trkpt lat="48.34966" lon="-3.99933">
        <ele>162</ele>
        <time>2017-01-13T22:36:44Z</time>
      </trkpt>
      <trkpt lat="48.34965" lon="-3.99931">
        <ele>162</ele>
        <time>2017-01-13T22:38:44Z</time>
      </trkpt>
      <trkpt lat="48.34963" lon="-3.99931">
        <ele>162</ele>
        <time>2017-01-13T22:40:44Z</time>
      </trkpt>
      <trkpt lat="48.34962" lon="-3.99937">
        <ele>162</ele>
        <time>2017-01-13T22:42:44Z</time>
      </trkpt>
      <trkpt lat="48.34961" lon="-3.99937">
        <ele>162</ele>
        <time>2017-01-13T22:44:44Z</time>
      </trkpt>
      <trkpt lat="48.34975" lon="-3.9989">
        <ele>165</ele>
        <time>2017-01-13T22:46:44Z</time>
      </trkpt>
      <trkpt lat="48.34974" lon="-3.99888">
        <ele>165</ele>
        <time>2017-01-13T22:48:44Z</time>
      </trkpt>
      <trkpt lat="48.34974" lon="-3.99899">
        <ele>164</ele>
        <time>2017-01-13T22:50:44Z</time>
      </trkpt>
      <trkpt lat="48.34976" lon="-3.99908">
        <ele>164</ele>
        <time>2017-01-13T22:52:44Z</time>
      </trkpt>
      <trkpt lat="48.34977" lon="-3.99912">
        <ele>164</ele>
        <time>2017-01-13T22:54:44Z</time>
      </trkpt>
      <trkpt lat="48.34979" lon="-3.99919">
        <ele>163</ele>
        <time>2017-01-13T22:56:44Z</time>
      </trkpt>
      <trkpt lat="48.34979" lon="-3.99921">
        <ele>163</ele>
        <time>2017-01-13T22:58:44Z</time>
      </trkpt>
      <trkpt lat="48.34981" lon="-3.99927">
        <ele>163</ele>
        <time>2017-01-13T23:00:44Z</time>
      </trkpt>
      <trkpt lat="48.34982" lon="-3.99932">
        <ele>163</ele>
        <time>2017-01-13T23:02:44Z</time>
      </trkpt>
      <trkpt lat="48.34982" lon="-3.99934">
        <ele>163</ele>
        <time>2017-01-13T23:04:44Z</time>
      </trkpt>
      <trkpt lat="48.34983" lon="-3.9994">
        <ele>162</ele>
        <time>2017-01-13T23:06:44Z</time>
      </trkpt>
      <trkpt lat="48.34985" lon="-3.99945">
        <ele>162</ele>
        <time>2017-01-13T23:08:44Z</time>
      </trkpt>
      <trkpt lat="48.34984" lon="-3.9995">
        <ele>162</ele>
        <time>2017-01-13T23:10:44Z</time>
      </trkpt>
      <trkpt lat="48.34985" lon="-3.99954">
        <ele>162</ele>
        <time>2017-01-13T23:12:44Z</time>
      </trkpt>
      <trkpt lat="48.34989" lon="-3.99966">
        <ele>161</ele>
        <time>2017-01-13T23:14:44Z</time>
      </trkpt>
      <trkpt lat="48.34993" lon="-3.99976">
        <ele>161</ele>
        <time>2017-01-13T23:16:44Z</time>
      </trkpt>
      <trkpt lat="48.34998" lon="-3.99982">
        <ele>161</ele>
        <time>2017-01-13T23:18:44Z</time>
      </trkpt>
      <trkpt lat="48.35005" lon="-3.99997">
        <ele>160</ele>
        <time>2017-01-13T23:20:44Z</time>
      </trkpt>
      <trkpt lat="48.3501" lon="-4.0001">
        <ele>159</ele>
        <time>2017-01-13T23:22:44Z</time>
      </trkpt>
      <trkpt lat="48.35022" lon="-4.00018">
        <ele>158</ele>
        <time>2017-01-13T23:24:44Z</time>
      </trkpt>
      <trkpt lat="48.35025" lon="-4.00021">
        <ele>158</ele>
        <time>2017-01-13T23:26:44Z</time>
      </trkpt>
      <trkpt lat="48.35031" lon="-4.00027">
        <ele>158</ele>
        <time>2017-01-13T23:28:44Z</time>
      </trkpt>
      <trkpt lat="48.35053" lon="-4.00043">
        <ele>157</ele>
        <time>2017-01-13T23:30:44Z</time>
      </trkpt>
      <trkpt lat="48.3507" lon="-4.00062">
        <ele>155</ele>
        <time>2017-01-13T23:32:44Z</time>
      </trkpt>
      <trkpt lat="48.35082" lon="-4.00083">
        <ele>154</ele>
        <time>2017-01-13T23:34:44Z</time>
      </trkpt>
      <trkpt lat="48.35092" lon="-4.00092">
        <ele>154</ele>
        <time>2017-01-13T23:36:44Z</time>
      </trkpt>
      <trkpt lat="48.35111" lon="-4.00091">
        <ele>155</ele>
        <time>2017-01-13T23:38:44Z</time>
      </trkpt>
      <trkpt lat="48.35112" lon="-4.00092">
        <ele>155</ele>
        <time>2017-01-13T23:40:44Z</time>
      </trkpt>
      <trkpt lat="48.35116" lon="-4.00092">
        <ele>156</ele>
        <time>2017-01-13T23:42:44Z</time>
      </trkpt>
      <trkpt lat="48.35124" lon="-4.00091">
        <ele>156</ele>
        <time>2017-01-13T23:44:44Z</time>
      </trkpt>
      <trkpt lat="48.35131" lon="-4.00088">
        <ele>156</ele>
        <time>2017-01-13T23:46:44Z</time>
      </trkpt>
      <trkpt lat="48.35141" lon="-4.00082">
        <ele>157</ele>
        <time>2017-01-13T23:48:44Z</time>
      </trkpt>
      <trkpt lat="48.35145" lon="-4.00082">
        <ele>157</ele>
        <time>2017-01-13T23:50:44Z</time>
      </trkpt>
      <trkpt lat="48.35149" lon="-4.00078">
        <ele>157</ele>
        <time>2017-01-13T23:52:44Z</time>
      </trkpt>
      <trkpt lat="48.35167" lon="-4.00074">
        <ele>158</ele>
        <time>2017-01-13T23:54:44Z</time>
      </trkpt>
      <trkpt lat="48.35198" lon="-4.00074">
        <ele>160</ele>
        <time>2017-01-13T23:56:44Z</time>
      </trkpt>
      <trkpt lat="48.35202" lon="-4.00077">
        <ele>160</ele>
        <time>2017-01-13T23:58:44Z</time>
      </trkpt>
      <trkpt lat="48.35215" lon="-4.00081">
        <ele>161</ele>
        <time>2017-01-14T00:00:44Z</time>
      </trkpt>
      <trkpt lat="48.35244" lon="-4.00081">
        <ele>163</ele>
        <time>2017-01-14T00:02:44Z</time>
      </trkpt>
      <trkpt lat="48.3527" lon="-4.0009">
        <ele>165</ele>
        <time>2017-01-14T00:04:44Z</time>
      </trkpt>
      <trkpt lat="48.35273" lon="-4.0009">
        <ele>165</ele>
        <time>2017-01-14T00:06:44Z</time>
      </trkpt>
      <trkpt lat="48.35291" lon="-4.00086">
        <ele>166</ele>
        <time>2017-01-14T00:08:44Z</time>
      </trkpt>
      <trkpt lat="48.35323" lon="-4.00081">
        <ele>167</ele>
        <time>2017-01-14T00:10:44Z</time>
      </trkpt>
      <trkpt lat="48.35341" lon="-4.0008">
        <ele>169</ele>
        <time>2017-01-14T00:12:44Z</time>
      </trkpt>
      <trkpt lat="48.35369" lon="-4.00073">
        <ele>175</ele>
        <time>2017-01-14T00:14:44Z</time>
      </trkpt>
      <trkpt lat="48.35393" lon="-4.00059">
        <ele>179</ele>
        <time>2017-01-14T00:16:44Z</time>
      </trkpt>
      <trkpt lat="48.35422" lon="-4.00034">
        <ele>181</ele>
        <time>2017-01-14T00:18:44Z</time>
      </trkpt>
      <trkpt lat="48.35445" lon="-4.00017">
        <ele>182</ele>
        <time>2017-01-14T00:20:44Z</time>
      </trkpt>
      <trkpt lat="48.35471" lon="-4.0001">
        <ele>185</ele>
        <time>2017-01-14T00:22:44Z</time>
      </trkpt>
      <trkpt lat="48.35496" lon="-3.99993">
        <ele>186</ele>
        <time>2017-01-14T00:24:44Z</time>
      </trkpt>
      <trkpt lat="48.35524" lon="-3.99982">
        <ele>186</ele>
        <time>2017-01-14T00:26:44Z</time>
      </trkpt>
      <trkpt lat="48.35544" lon="-3.99978">
        <ele>187</ele>
        <time>2017-01-14T00:28:44Z</time>
      </trkpt>
      <trkpt lat="48.35555" lon="-3.99995">
        <ele>190</ele>
        <time>2017-01-14T00:30:44Z</time>
      </trkpt>
      <trkpt lat="48.35557" lon="-3.99991">
        <ele>189</ele>
        <time>2017-01-14T00:32:44Z</time>
      </trkpt>
      <trkpt lat="48.35572" lon="-3.99978">
        <ele>188</ele>
        <time>2017-01-14T00:34:44Z</time>
      </trkpt>
      <trkpt lat="48.35601" lon="-3.99976">
        <ele>188</ele>
        <time>2017-01-14T00:36:44Z</time>
      </trkpt>
      <trkpt lat="48.35631" lon="-3.99983">
        <ele>189</ele>
        <time>2017-01-14T00:38:44Z</time>
      </trkpt>
      <trkpt lat="48.3565" lon="-4.00001">
        <ele>191</ele>
        <time>2017-01-14T00:40:44Z</time>
      </trkpt>
      <trkpt lat="48.3568" lon="-4.00023">
        <ele>193</ele>
        <time>2017-01-14T00:42:44Z</time>
      </trkpt>
      <trkpt lat="48.35697" lon="-4.00057">
        <ele>196</ele>
        <time>2017-01-14T00:44:44Z</time>
      </trkpt>
      <trkpt lat="48.35703" lon="-4.00078">
        <ele>199</ele>
        <time>2017-01-14T00:46:44Z</time>
      </trkpt>
      <trkpt lat="48.35708" lon="-4.00088">
        <ele>199</ele>
        <time>2017-01-14T00:48:44Z</time>
      </trkpt>
      <trkpt lat="48.35727" lon="-4.00124">
        <ele>200</ele>
        <time>2017-01-14T00:50:44Z</time>
      </trkpt>
      <trkpt lat="48.35734" lon="-4.00145">
        <ele>201</ele>
        <time>2017-01-14T00:52:44Z</time>
      </trkpt>
      <trkpt lat="48.35737" lon="-4.00163">
        <ele>202</ele>
        <time>2017-01-14T00:54:44Z</time>
      </trkpt>
      <trkpt lat="48.35746" lon="-4.00209">
        <ele>207</ele>
        <time>2017-01-14T00:56:44Z</time>
      </trkpt>
      <trkpt lat="48.35757" lon="-4.00242">
        <ele>212</ele>
        <time>2017-01-14T00:58:44Z</time>
      </trkpt>
      <trkpt lat="48.35769" lon="-4.0027">
        <ele>215</ele>
        <time>2017-01-14T01:00:44Z</time>
      </trkpt>
      <trkpt lat="48.35784" lon="-4.0029">
        <ele>217</ele>
        <time>2017-01-14T01:02:44Z</time>
      </trkpt>
      <trkpt lat="48.35798" lon="-4.00305">
        <ele>218</ele>
        <time>2017-01-14T01:04:44Z</time>
      </trkpt>
      <trkpt lat="48.3581" lon="-4.00334">
        <ele>220</ele>
        <time>2017-01-14T01:06:44Z</time>
      </trkpt>
      <trkpt lat="48.3581" lon="-4.00336">
        <ele>220</ele>
        <time>2017-01-14T01:08:44Z</time>
      </trkpt>
      <trkpt lat="48.35831" lon="-4.00363">
        <ele>221</ele>
        <time>2017-01-14T01:10:44Z</time>
      </trkpt>
      <trkpt lat="48.35846" lon="-4.00388">
        <ele>221</ele>
        <time>2017-01-14T01:12:44Z</time>
      </trkpt>
      <trkpt lat="48.35866" lon="-4.0042">
        <ele>224</ele>
        <time>2017-01-14T01:14:44Z</time>
      </trkpt>
      <trkpt lat="48.35876" lon="-4.00443">
        <ele>226</ele>
        <time>2017-01-14T01:16:44Z</time>
      </trkpt>
      <trkpt lat="48.35879" lon="-4.00449">
        <ele>226</ele>
        <time>2017-01-14T01:18:44Z</time>
      </trkpt>
      <trkpt lat="48.35901" lon="-4.00471">
        <ele>228</ele>
        <time>2017-01-14T01:20:44Z</time>
      </trkpt>
      <trkpt lat="48.35926" lon="-4.00486">
        <ele>230</ele>
        <time>2017-01-14T01:22:44Z</time>
      </trkpt>
      <trkpt lat="48.35949" lon="-4.0051">
        <ele>232</ele>
        <time>2017-01-14T01:24:44Z</time>
      </trkpt>
      <trkpt lat="48.35966" lon="-4.00533">
        <ele>233</ele>
        <time>2017-01-14T01:26:44Z</time>
      </trkpt>
      <trkpt lat="48.35989" lon="-4.00552">
        <ele>235</ele>
        <time>2017-01-14T01:28:44Z</time>
      </trkpt>
      <trkpt lat="48.36005" lon="-4.00574">
        <ele>236</ele>
        <time>2017-01-14T01:30:44Z</time>
      </trkpt>
      <trkpt lat="48.36011" lon="-4.00578">
        <ele>237</ele>
        <time>2017-01-14T01:32:44Z</time>
      </trkpt>
      <trkpt lat="48.36016" lon="-4.00581">
        <ele>237</ele>
        <time>2017-01-14T01:34:44Z</time>
      </trkpt>
      <trkpt lat="48.36031" lon="-4.00594">
        <ele>238</ele>
        <time>2017-01-14T01:36:44Z</time>
      </trkpt>
      <trkpt lat="48.36051" lon="-4.00627">
        <ele>241</ele>
        <time>2017-01-14T01:38:44Z</time>
      </trkpt>
      <trkpt lat="48.36098" lon="-4.0068">
        <ele>246</ele>
        <time>2017-01-14T01:40:44Z</time>
      </trkpt>
      <trkpt lat="48.36105" lon="-4.00687">
        <ele>246</ele>
        <time>2017-01-14T01:42:44Z</time>
      </trkpt>
      <trkpt lat="48.36118" lon="-4.00718">
        <ele>248</ele>
        <time>2017-01-14T01:44:44Z</time>
      </trkpt>
      <trkpt lat="48.36127" lon="-4.00754">
        <ele>249</ele>
        <time>2017-01-14T01:46:44Z</time>
      </trkpt>
      <trkpt lat="48.36151" lon="-4.00765">
        <ele>248</ele>
        <time>2017-01-14T01:48:44Z</time>
      </trkpt>
      <trkpt lat="48.3617" lon="-4.00771">
        <ele>248</ele>
        <time>2017-01-14T01:50:44Z</time>
      </trkpt>
      <trkpt lat="48.36196" lon="-4.00785">
        <ele>249</ele>
        <time>2017-01-14T01:52:44Z</time>
      </trkpt>
      <trkpt lat="48.36223" lon="-4.00797">
        <ele>250</ele>
        <time>2017-01-14T01:54:44Z</time>
      </trkpt>
      <trkpt lat="48.3625" lon="-4.00814">
        <ele>250</ele>
        <time>2017-01-14T01:56:44Z</time>
      </trkpt>
      <trkpt lat="48.36268" lon="-4.00845">
        <ele>249</ele>
        <time>2017-01-14T01:58:44Z</time>
      </trkpt>
      <trkpt lat="48.36288" lon="-4.0087">
        <ele>247</ele>
        <time>2017-01-14T02:00:44Z</time>
      </trkpt>
      <trkpt lat="48.36313" lon="-4.00891">
        <ele>245</ele>
        <time>2017-01-14T02:02:44Z</time>
      </trkpt>
      <trkpt lat="48.3634" lon="-4.00904">
        <ele>244</ele>
        <time>2017-01-14T02:04:44Z</time>
      </trkpt>
      <trkpt lat="48.36362" lon="-4.00911">
        <ele>243</ele>
        <time>2017-01-14T02:06:44Z</time>
      </trkpt>
      <trkpt lat="48.36389" lon="-4.00912">
        <ele>243</ele>
        <time>2017-01-14T02:08:44Z</time>
      </trkpt>
      <trkpt lat="48.36417" lon="-4.00916">
        <ele>242</ele>
        <time>2017-01-14T02:10:44Z</time>
      </trkpt>
      <trkpt lat="48.36471" lon="-4.00918">
        <ele>245</ele>
        <time>2017-01-14T02:12:44Z</time>
      </trkpt>
      <trkpt lat="48.36468" lon="-4.00942">
        <ele>245</ele>
        <time>2017-01-14T02:14:44Z</time>
      </trkpt>
      <trkpt lat="48.36466" lon="-4.00979">
        <ele>244</ele>
        <time>2017-01-14T02:16:44Z</time>
      </trkpt>
      <trkpt lat="48.36462" lon="-4.01013">
        <ele>243</ele>
        <time>2017-01-14T02:18:44Z</time>
      </trkpt>
      <trkpt lat="48.36459" lon="-4.01046">
        <ele>242</ele>
        <time>2017-01-14T02:20:44Z</time>
      </trkpt>
      <trkpt lat="48.36453" lon="-4.01076">
        <ele>241</ele>
        <time>2017-01-14T02:22:44Z</time>
      </trkpt>
      <trkpt lat="48.3645" lon="-4.01101">
        <ele>241</ele>
        <time>2017-01-14T02:24:44Z</time>
      </trkpt>
      <trkpt lat="48.36443" lon="-4.01136">
        <ele>240</ele>
        <time>2017-01-14T02:26:44Z</time>
      </trkpt>
      <trkpt lat="48.36438" lon="-4.01165">
        <ele>239</ele>
        <time>2017-01-14T02:28:44Z</time>
      </trkpt>
      <trkpt lat="48.36434" lon="-4.012">
        <ele>238</ele>
        <time>2017-01-14T02:30:44Z</time>
      </trkpt>
      <trkpt lat="48.36426" lon="-4.0123">
        <ele>238</ele>
        <time>2017-01-14T02:32:44Z</time>
      </trkpt>
      <trkpt lat="48.36423" lon="-4.01251">
        <ele>237</ele>
        <time>2017-01-14T02:34:44Z</time>
      </trkpt>
      <trkpt lat="48.36422" lon="-4.01263">
        <ele>237</ele>
        <time>2017-01-14T02:36:44Z</time>
      </trkpt>
      <trkpt lat="48.36417" lon="-4.013">
        <ele>237</ele>
        <time>2017-01-14T02:38:44Z</time>
      </trkpt>
      <trkpt lat="48.36417" lon="-4.01306">
        <ele>237</ele>
        <time>2017-01-14T02:40:44Z</time>
      </trkpt>
      <trkpt lat="48.36416" lon="-4.01315">
        <ele>237</ele>
        <time>2017-01-14T02:42:44Z</time>
      </trkpt>
      <trkpt lat="48.36412" lon="-4.01335">
        <ele>237</ele>
        <time>2017-01-14T02:44:44Z</time>
      </trkpt>
      <trkpt lat="48.36411" lon="-4.01339">
        <ele>237</ele>
        <time>2017-01-14T02:46:44Z</time>
      </trkpt>
      <trkpt lat="48.36394" lon="-4.01411">
        <ele>236</ele>
        <time>2017-01-14T02:48:44Z</time>
      </trkpt>
      <trkpt lat="48.36388" lon="-4.01448">
        <ele>236</ele>
        <time>2017-01-14T02:50:44Z</time>
      </trkpt>
      <trkpt lat="48.36382" lon="-4.01482">
        <ele>235</ele>
        <time>2017-01-14T02:52:44Z</time>
      </trkpt>
      <trkpt lat="48.36373" lon="-4.01518">
        <ele>235</ele>
        <time>2017-01-14T02:54:44Z</time>
      </trkpt>
      <trkpt lat="48.36368" lon="-4.0155">
        <ele>235</ele>
        <time>2017-01-14T02:56:44Z</time>
      </trkpt>
      <trkpt lat="48.36355" lon="-4.01609">
        <ele>235</ele>
        <time>2017-01-14T02:58:44Z</time>
      </trkpt>
      <trkpt lat="48.36351" lon="-4.01618">
        <ele>235</ele>
        <time>2017-01-14T03:00:44Z</time>
      </trkpt>
      <trkpt lat="48.36344" lon="-4.01647">
        <ele>234</ele>
        <time>2017-01-14T03:02:44Z</time>
      </trkpt>
      <trkpt lat="48.36343" lon="-4.01679">
        <ele>235</ele>
        <time>2017-01-14T03:04:44Z</time>
      </trkpt>
      <trkpt lat="48.36336" lon="-4.01719">
        <ele>234</ele>
        <time>2017-01-14T03:06:44Z</time>
      </trkpt>
      <trkpt lat="48.36323" lon="-4.01745">
        <ele>232</ele>
        <time>2017-01-14T03:08:44Z</time>
      </trkpt>
      <trkpt lat="48.36315" lon="-4.0176">
        <ele>232</ele>
        <time>2017-01-14T03:10:44Z</time>
      </trkpt>
      <trkpt lat="48.36306" lon="-4.01782">
        <ele>231</ele>
        <time>2017-01-14T03:12:44Z</time>
      </trkpt>
      <trkpt lat="48.36301" lon="-4.01796">
        <ele>231</ele>
        <time>2017-01-14T03:14:44Z</time>
      </trkpt>
      <trkpt lat="48.36297" lon="-4.01811">
        <ele>231</ele>
        <time>2017-01-14T03:16:44Z</time>
      </trkpt>
      <trkpt lat="48.36287" lon="-4.01846">
        <ele>230</ele>
        <time>2017-01-14T03:18:44Z</time>
      </trkpt>
      <trkpt lat="48.3628" lon="-4.01879">
        <ele>231</ele>
        <time>2017-01-14T03:20:44Z</time>
      </trkpt>
      <trkpt lat="48.36272" lon="-4.01913">
        <ele>231</ele>
        <time>2017-01-14T03:22:44Z</time>
      </trkpt>
      <trkpt lat="48.36263" lon="-4.01943">
        <ele>231</ele>
        <time>2017-01-14T03:24:44Z</time>
      </trkpt>
      <trkpt lat="48.36255" lon="-4.01974">
        <ele>231</ele>
        <time>2017-01-14T03:26:44Z</time>
      </trkpt>
      <trkpt lat="48.36249" lon="-4.0201">
        <ele>232</ele>
        <time>2017-01-14T03:28:44Z</time>
      </trkpt>
      <trkpt lat="48.36244" lon="-4.02024">
        <ele>232</ele>
        <time>2017-01-14T03:30:44Z</time>
      </trkpt>
      <trkpt lat="48.36235" lon="-4.0206">
        <ele>232</ele>
        <time>2017-01-14T03:32:44Z</time>
      </trkpt>
      <trkpt lat="48.36232" lon="-4.02076">
        <ele>232</ele>
        <time>2017-01-14T03:34:44Z</time>
      </trkpt>
      <trkpt lat="48.36213" lon="-4.02144">
        <ele>233</ele>
        <time>2017-01-14T03:36:44Z</time>
      </trkpt>
      <trkpt lat="48.36205" lon="-4.02171">
        <ele>234</ele>
        <time>2017-01-14T03:38:44Z</time>
      </trkpt>
      <trkpt lat="48.36198" lon="-4.02196">
        <ele>235</ele>
        <time>2017-01-14T03:40:44Z</time>
      </trkpt>
      <trkpt lat="48.36196" lon="-4.02199">
        <ele>235</ele>
        <time>2017-01-14T03:42:44Z</time>
      </trkpt>
      <trkpt lat="48.36196" lon="-4.02207">
        <ele>235</ele>
        <time>2017-01-14T03:44:44Z</time>
      </trkpt>
      <trkpt lat="48.3619" lon="-4.02235">
        <ele>236</ele>
        <time>2017-01-14T03:46:44Z</time>
      </trkpt>
      <trkpt lat="48.36189" lon="-4.02252">
        <ele>237</ele>
        <time>2017-01-14T03:48:44Z</time>
      </trkpt>
      <trkpt lat="48.36185" lon="-4.02286">
        <ele>237</ele>
        <time>2017-01-14T03:50:44Z</time>
      </trkpt>
      <trkpt lat="48.36179" lon="-4.02352">
        <ele>236</ele>
        <time>2017-01-14T03:52:44Z</time>
      </trkpt>
      <trkpt lat="48.36175" lon="-4.02381">
        <ele>235</ele>
        <time>2017-01-14T03:54:44Z</time>
      </trkpt>
      <trkpt lat="48.36173" lon="-4.02403">
        <ele>235</ele>
        <time>2017-01-14T03:56:44Z</time>
      </trkpt>
      <trkpt lat="48.36173" lon="-4.02415">
        <ele>235</ele>
        <time>2017-01-14T03:58:44Z</time>
      </trkpt>
      <trkpt lat="48.36173" lon="-4.0245">
        <ele>236</ele>
        <time>2017-01-14T04:00:44Z</time>
      </trkpt>
      <trkpt lat="48.36172" lon="-4.02487">
        <ele>236</ele>
        <time>2017-01-14T04:02:44Z</time>
      </trkpt>
      <trkpt lat="48.36167" lon="-4.02521">
        <ele>236</ele>
        <time>2017-01-14T04:04:44Z</time>
      </trkpt>
      <trkpt lat="48.36162" lon="-4.02554">
        <ele>236</ele>
        <time>2017-01-14T04:06:44Z</time>
      </trkpt>
      <trkpt lat="48.36157" lon="-4.02584">
        <ele>236</ele>
        <time>2017-01-14T04:08:44Z</time>
      </trkpt>
      <trkpt lat="48.36149" lon="-4.02644">
        <ele>237</ele>
        <time>2017-01-14T04:10:44Z</time>
      </trkpt>
      <trkpt lat="48.36146" lon="-4.02666">
        <ele>237</ele>
        <time>2017-01-14T04:12:44Z</time>
      </trkpt>
      <trkpt lat="48.36142" lon="-4.02698">
        <ele>237</ele>
        <time>2017-01-14T04:14:44Z</time>
      </trkpt>
      <trkpt lat="48.36141" lon="-4.02711">
        <ele>237</ele>
        <time>2017-01-14T04:16:44Z</time>
      </trkpt>
      <trkpt lat="48.36139" lon="-4.02748">
        <ele>236</ele>
        <time>2017-01-14T04:18:44Z</time>
      </trkpt>
      <trkpt lat="48.36138" lon="-4.02778">
        <ele>236</ele>
        <time>2017-01-14T04:20:44Z</time>
      </trkpt>
      <trkpt lat="48.36137" lon="-4.02794">
        <ele>236</ele>
        <time>2017-01-14T04:22:44Z</time>
      </trkpt>
      <trkpt lat="48.36135" lon="-4.02804">
        <ele>236</ele>
        <time>2017-01-14T04:24:44Z</time>
      </trkpt>
      <trkpt lat="48.36133" lon="-4.02812">
        <ele>236</ele>
        <time>2017-01-14T04:26:44Z</time>
      </trkpt>
      <trkpt lat="48.36124" lon="-4.02871">
        <ele>235</ele>
        <time>2017-01-14T04:28:44Z</time>
      </trkpt>
      <trkpt lat="48.36118" lon="-4.02906">
        <ele>236</ele>
        <time>2017-01-14T04:30:44Z</time>
      </trkpt>
      <trkpt lat="48.36116" lon="-4.02913">
        <ele>236</ele>
        <time>2017-01-14T04:32:44Z</time>
      </trkpt>
      <trkpt lat="48.36111" lon="-4.02941">
        <ele>235</ele>
        <time>2017-01-14T04:34:44Z</time>
      </trkpt>
      <trkpt lat="48.36109" lon="-4.02947">
        <ele>235</ele>
        <time>2017-01-14T04:36:44Z</time>
      </trkpt>
      <trkpt lat="48.361" lon="-4.02989">
        <ele>235</ele>
        <time>2017-01-14T04:38:44Z</time>
      </trkpt>
      <trkpt lat="48.36092" lon="-4.03029">
        <ele>235</ele>
        <time>2017-01-14T04:40:44Z</time>
      </trkpt>
      <trkpt lat="48.3609" lon="-4.03044">
        <ele>235</ele>
        <time>2017-01-14T04:42:44Z</time>
      </trkpt>
      <trkpt lat="48.36076" lon="-4.03103">
        <ele>235</ele>
        <time>2017-01-14T04:44:44Z</time>
      </trkpt>
      <trkpt lat="48.36073" lon="-4.03112">
        <ele>235</ele>
        <time>2017-01-14T04:46:44Z</time>
      </trkpt>
      <trkpt lat="48.36065" lon="-4.03145">
        <ele>235</ele>
        <time>2017-01-14T04:48:44Z</time>
      </trkpt>
      <trkpt lat="48.3606" lon="-4.03181">
        <ele>236</ele>
        <time>2017-01-14T04:50:44Z</time>
      </trkpt>
      <trkpt lat="48.36053" lon="-4.0321">
        <ele>236</ele>
        <time>2017-01-14T04:52:44Z</time>
      </trkpt>
      <trkpt lat="48.36042" lon="-4.0324">
        <ele>236</ele>
        <time>2017-01-14T04:54:44Z</time>
      </trkpt>
      <trkpt lat="48.36032" lon="-4.03282">
        <ele>237</ele>
        <time>2017-01-14T04:56:44Z</time>
      </trkpt>
      <trkpt lat="48.36021" lon="-4.03316">
        <ele>237</ele>
        <time>2017-01-14T04:58:44Z</time>
      </trkpt>
      <trkpt lat="48.3601" lon="-4.03352">
        <ele>238</ele>
        <time>2017-01-14T05:00:44Z</time>
      </trkpt>
      <trkpt lat="48.35999" lon="-4.03384">
        <ele>239</ele>
        <time>2017-01-14T05:02:44Z</time>
      </trkpt>
      <trkpt lat="48.35975" lon="-4.03461">
        <ele>241</ele>
        <time>2017-01-14T05:04:44Z</time>
      </trkpt>
      <trkpt lat="48.35965" lon="-4.035">
        <ele>243</ele>
        <time>2017-01-14T05:06:44Z</time>
      </trkpt>
      <trkpt lat="48.35956" lon="-4.0353">
        <ele>244</ele>
        <time>2017-01-14T05:08:44Z</time>
      </trkpt>
      <trkpt lat="48.35946" lon="-4.03568">
        <ele>245</ele>
        <time>2017-01-14T05:10:44Z</time>
      </trkpt>
      <trkpt lat="48.35939" lon="-4.03599">
        <ele>245</ele>
        <time>2017-01-14T05:12:44Z</time>
      </trkpt>
      <trkpt lat="48.35928" lon="-4.03636">
        <ele>245</ele>
        <time>2017-01-14T05:14:44Z</time>
      </trkpt>
      <trkpt lat="48.35929" lon="-4.03676">
        <ele>246</ele>
        <time>2017-01-14T05:16:44Z</time>
      </trkpt>
      <trkpt lat="48.35932" lon="-4.03716">
        <ele>247</ele>
        <time>2017-01-14T05:18:44Z</time>
      </trkpt>
      <trkpt lat="48.35934" lon="-4.03764">
        <ele>248</ele>
        <time>2017-01-14T05:20:44Z</time>
      </trkpt>
      <trkpt lat="48.35933" lon="-4.03773">
        <ele>248</ele>
        <time>2017-01-14T05:22:44Z</time>
      </trkpt>
      <trkpt lat="48.35938" lon="-4.03809">
        <ele>249</ele>
        <time>2017-01-14T05:24:44Z</time>
      </trkpt>
      <trkpt lat="48.35936" lon="-4.0386">
        <ele>249</ele>
        <time>2017-01-14T05:26:44Z</time>
      </trkpt>
      <trkpt lat="48.35937" lon="-4.03898">
        <ele>250</ele>
        <time>2017-01-14T05:28:44Z</time>
      </trkpt>
      <trkpt lat="48.35936" lon="-4.03929">
        <ele>250</ele>
        <time>2017-01-14T05:30:44Z</time>
      </trkpt>
      <trkpt lat="48.35932" lon="-4.03966">
        <ele>250</ele>
        <time>2017-01-14T05:32:44Z</time>
      </trkpt>
      <trkpt lat="48.35931" lon="-4.04005">
        <ele>249</ele>
        <time>2017-01-14T05:34:44Z</time>
      </trkpt>
      <trkpt lat="48.35928" lon="-4.04048">
        <ele>249</ele>
        <time>2017-01-14T05:36:44Z</time>
      </trkpt>
      <trkpt lat="48.35924" lon="-4.04089">
        <ele>248</ele>
        <time>2017-01-14T05:38:44Z</time>
      </trkpt>
      <trkpt lat="48.35914" lon="-4.04183">
        <ele>246</ele>
        <time>2017-01-14T05:40:44Z</time>
      </trkpt>
      <trkpt lat="48.3591" lon="-4.04212">
        <ele>246</ele>
        <time>2017-01-14T05:42:44Z</time>
      </trkpt>
      <trkpt lat="48.35907" lon="-4.04231">
        <ele>246</ele>
        <time>2017-01-14T05:44:44Z</time>
      </trkpt>
      <trkpt lat="48.35906" lon="-4.04232">
        <ele>246</ele>
        <time>2017-01-14T05:46:44Z</time>
      </trkpt>
      <trkpt lat="48.35905" lon="-4.04239">
        <ele>246</ele>
        <time>2017-01-14T05:48:44Z</time>
      </trkpt>
      <trkpt lat="48.35902" lon="-4.04257">
        <ele>246</ele>
        <time>2017-01-14T05:50:44Z</time>
      </trkpt>
      <trkpt lat="48.35898" lon="-4.04265">
        <ele>245</ele>
        <time>2017-01-14T05:52:44Z</time>
      </trkpt>
      <trkpt lat="48.35894" lon="-4.0428">
        <ele>245</ele>
        <time>2017-01-14T05:54:44Z</time>
      </trkpt>
      <trkpt lat="48.35883" lon="-4.04317">
        <ele>243</ele>
        <time>2017-01-14T05:56:44Z</time>
      </trkpt>
      <trkpt lat="48.35877" lon="-4.04359">
        <ele>242</ele>
        <time>2017-01-14T05:58:44Z</time>
      </trkpt>
      <trkpt lat="48.35867" lon="-4.04391">
        <ele>241</ele>
        <time>2017-01-14T06:00:44Z</time>
      </trkpt>
      <trkpt lat="48.35855" lon="-4.04419">
        <ele>240</ele>
        <time>2017-01-14T06:02:44Z</time>
      </trkpt>
      <trkpt lat="48.35846" lon="-4.0445">
        <ele>239</ele>
        <time>2017-01-14T06:04:44Z</time>
      </trkpt>
      <trkpt lat="48.35835" lon="-4.04481">
        <ele>237</ele>
        <time>2017-01-14T06:06:44Z</time>
      </trkpt>
      <trkpt lat="48.35823" lon="-4.04517">
        <ele>236</ele>
        <time>2017-01-14T06:08:44Z</time>
      </trkpt>
      <trkpt lat="48.35811" lon="-4.04583">
        <ele>235</ele>
        <time>2017-01-14T06:10:44Z</time>
      </trkpt>
      <trkpt lat="48.35808" lon="-4.04623">
        <ele>235</ele>
        <time>2017-01-14T06:12:44Z</time>
      </trkpt>
      <trkpt lat="48.35806" lon="-4.04652">
        <ele>235</ele>
        <time>2017-01-14T06:14:44Z</time>
      </trkpt>
      <trkpt lat="48.35804" lon="-4.04661">
        <ele>235</ele>
        <time>2017-01-14T06:16:44Z</time>
      </trkpt>
      <trkpt lat="48.35804" lon="-4.04698">
        <ele>236</ele>
        <time>2017-01-14T06:18:44Z</time>
      </trkpt>
      <trkpt lat="48.35798" lon="-4.04729">
        <ele>236</ele>
        <time>2017-01-14T06:20:44Z</time>
      </trkpt>
      <trkpt lat="48.35796" lon="-4.04767">
        <ele>236</ele>
        <time>2017-01-14T06:22:44Z</time>
      </trkpt>
      <trkpt lat="48.35792" lon="-4.04803">
        <ele>236</ele>
        <time>2017-01-14T06:24:44Z</time>
      </trkpt>
      <trkpt lat="48.35786" lon="-4.04811">
        <ele>236</ele>
        <time>2017-01-14T06:26:44Z</time>
      </trkpt>
      <trkpt lat="48.35783" lon="-4.04821">
        <ele>236</ele>
        <time>2017-01-14T06:28:44Z</time>
      </trkpt>
      <trkpt lat="48.35778" lon="-4.04876">
        <ele>238</ele>
        <time>2017-01-14T06:30:44Z</time>
      </trkpt>
      <trkpt lat="48.35777" lon="-4.0492">
        <ele>240</ele>
        <time>2017-01-14T06:32:44Z</time>
      </trkpt>
      <trkpt lat="48.35775" lon="-4.04931">
        <ele>241</ele>
        <time>2017-01-14T06:34:44Z</time>
      </trkpt>
      <trkpt lat="48.35775" lon="-4.04972">
        <ele>242</ele>
        <time>2017-01-14T06:36:44Z</time>
      </trkpt>
      <trkpt lat="48.35774" lon="-4.05004">
        <ele>242</ele>
        <time>2017-01-14T06:38:44Z</time>
      </trkpt>
      <trkpt lat="48.35772" lon="-4.05011">
        <ele>242</ele>
        <time>2017-01-14T06:40:44Z</time>
      </trkpt>
      <trkpt lat="48.35747" lon="-4.05009">
        <ele>244</ele>
        <time>2017-01-14T06:42:44Z</time>
      </trkpt>
      <trkpt lat="48.35722" lon="-4.0501">
        <ele>247</ele>
        <time>2017-01-14T06:44:44Z</time>
      </trkpt>
      <trkpt lat="48.3572" lon="-4.05009">
        <ele>247</ele>
        <time>2017-01-14T06:46:44Z</time>
      </trkpt>
      <trkpt lat="48.35699" lon="-4.04997">
        <ele>249</ele>
        <time>2017-01-14T06:48:44Z</time>
      </trkpt>
      <trkpt lat="48.35676" lon="-4.04979">
        <ele>250</ele>
        <time>2017-01-14T06:50:44Z</time>
      </trkpt>
      <trkpt lat="48.35652" lon="-4.04969">
        <ele>250</ele>
        <time>2017-01-14T06:52:44Z</time>
      </trkpt>
      <trkpt lat="48.35629" lon="-4.04972">
        <ele>251</ele>
        <time>2017-01-14T06:54:44Z</time>
      </trkpt>
      <trkpt lat="48.35602" lon="-4.0496">
        <ele>251</ele>
        <time>2017-01-14T06:56:44Z</time>
      </trkpt>
      <trkpt lat="48.35587" lon="-4.04949">
        <ele>251</ele>
        <time>2017-01-14T06:58:44Z</time>
      </trkpt>
      <trkpt lat="48.35564" lon="-4.04936">
        <ele>251</ele>
        <time>2017-01-14T07:00:44Z</time>
      </trkpt>
      <trkpt lat="48.35555" lon="-4.04933">
        <ele>252</ele>
        <time>2017-01-14T07:02:44Z</time>
      </trkpt>
      <trkpt lat="48.35541" lon="-4.04925">
        <ele>252</ele>
        <time>2017-01-14T07:04:44Z</time>
      </trkpt>
      <trkpt lat="48.3552" lon="-4.04912">
        <ele>252</ele>
        <time>2017-01-14T07:06:44Z</time>
      </trkpt>
      <trkpt lat="48.35501" lon="-4.049">
        <ele>252</ele>
        <time>2017-01-14T07:08:44Z</time>
      </trkpt>
      <trkpt lat="48.3548" lon="-4.04884">
        <ele>251</ele>
        <time>2017-01-14T07:10:44Z</time>
      </trkpt>
      <trkpt lat="48.35466" lon="-4.04877">
        <ele>251</ele>
        <time>2017-01-14T07:12:44Z</time>
      </trkpt>
      <trkpt lat="48.35447" lon="-4.04859">
        <ele>249</ele>
        <time>2017-01-14T07:14:44Z</time>
      </trkpt>
      <trkpt lat="48.35433" lon="-4.04857">
        <ele>250</ele>
        <time>2017-01-14T07:16:44Z</time>
      </trkpt>
      <trkpt lat="48.35411" lon="-4.04847">
        <ele>249</ele>
        <time>2017-01-14T07:18:44Z</time>
      </trkpt>
      <trkpt lat="48.35388" lon="-4.04835">
        <ele>249</ele>
        <time>2017-01-14T07:20:44Z</time>
      </trkpt>
      <trkpt lat="48.35367" lon="-4.04819">
        <ele>250</ele>
        <time>2017-01-14T07:22:44Z</time>
      </trkpt>
      <trkpt lat="48.35352" lon="-4.04814">
        <ele>251</ele>
        <time>2017-01-14T07:24:44Z</time>
      </trkpt>
      <trkpt lat="48.35349" lon="-4.04813">
        <ele>251</ele>
        <time>2017-01-14T07:26:44Z</time>
      </trkpt>
      <trkpt lat="48.3533" lon="-4.0481">
        <ele>252</ele>
        <time>2017-01-14T07:28:44Z</time>
      </trkpt>
      <trkpt lat="48.3531" lon="-4.04808">
        <ele>253</ele>
        <time>2017-01-14T07:30:44Z</time>
      </trkpt>
      <trkpt lat="48.35305" lon="-4.04807">
        <ele>253</ele>
        <time>2017-01-14T07:32:44Z</time>
      </trkpt>
      <trkpt lat="48.35295" lon="-4.04802">
        <ele>254</ele>
        <time>2017-01-14T07:34:44Z</time>
      </trkpt>
      <trkpt lat="48.35286" lon="-4.04801">
        <ele>254</ele>
        <time>2017-01-14T07:36:44Z</time>
      </trkpt>
      <trkpt lat="48.35282" lon="-4.04799">
        <ele>255</ele>
        <time>2017-01-14T07:38:44Z</time>
      </trkpt>
      <trkpt lat="48.35273" lon="-4.04796">
        <ele>255</ele>
        <time>2017-01-14T07:40:44Z</time>
      </trkpt>
      <trkpt lat="48.35245" lon="-4.04781">
        <ele>257</ele>
        <time>2017-01-14T07:42:44Z</time>
      </trkpt>
      <trkpt lat="48.35226" lon="-4.04764">
        <ele>259</ele>
        <time>2017-01-14T07:44:44Z</time>
      </trkpt>
      <trkpt lat="48.35198" lon="-4.04746">
        <ele>261</ele>
        <time>2017-01-14T07:46:44Z</time>
      </trkpt>
      <trkpt lat="48.3516" lon="-4.04725">
        <ele>263</ele>
        <time>2017-01-14T07:48:44Z</time>
      </trkpt>
      <trkpt lat="48.35153" lon="-4.04724">
        <ele>264</ele>
        <time>2017-01-14T07:50:44Z</time>
      </trkpt>
      <trkpt lat="48.35131" lon="-4.04707">
        <ele>266</ele>
        <time>2017-01-14T07:52:44Z</time>
      </trkpt>
      <trkpt lat="48.35109" lon="-4.04693">
        <ele>268</ele>
        <time>2017-01-14T07:54:44Z</time>
      </trkpt>
      <trkpt lat="48.35101" lon="-4.04685">
        <ele>268</ele>
        <time>2017-01-14T07:56:44Z</time>
      </trkpt>
      <trkpt lat="48.35096" lon="-4.04679">
        <ele>268</ele>
        <time>2017-01-14T07:58:44Z</time>
      </trkpt>
      <trkpt lat="48.35079" lon="-4.04671">
        <ele>269</ele>
        <time>2017-01-14T08:00:44Z</time>
      </trkpt>
      <trkpt lat="48.3506" lon="-4.0466">
        <ele>270</ele>
        <time>2017-01-14T08:02:44Z</time>
      </trkpt>
      <trkpt lat="48.35038" lon="-4.04649">
        <ele>271</ele>
        <time>2017-01-14T08:04:44Z</time>
      </trkpt>
      <trkpt lat="48.35029" lon="-4.04644">
        <ele>272</ele>
        <time>2017-01-14T08:06:44Z</time>
      </trkpt>
      <trkpt lat="48.35025" lon="-4.04643">
        <ele>272</ele>
        <time>2017-01-14T08:08:44Z</time>
      </trkpt>
      <trkpt lat="48.35002" lon="-4.04639">
        <ele>274</ele>
        <time>2017-01-14T08:10:44Z</time>
      </trkpt>
      <trkpt lat="48.34979" lon="-4.04615">
        <ele>277</ele>
        <time>2017-01-14T08:12:44Z</time>
      </trkpt>
      <trkpt lat="48.34926" lon="-4.04596">
        <ele>283</ele>
        <time>2017-01-14T08:14:44Z</time>
      </trkpt>
      <trkpt lat="48.34901" lon="-4.04587">
        <ele>285</ele>
        <time>2017-01-14T08:16:44Z</time>
      </trkpt>
      <trkpt lat="48.34892" lon="-4.04586">
        <ele>286</ele>
        <time>2017-01-14T08:18:44Z</time>
      </trkpt>
      <trkpt lat="48.3489" lon="-4.04588">
        <ele>286</ele>
        <time>2017-01-14T08:20:44Z</time>
      </trkpt>
      <trkpt lat="48.34867" lon="-4.04595">
        <ele>290</ele>
        <time>2017-01-14T08:22:44Z</time>
      </trkpt>
      <trkpt lat="48.34844" lon="-4.04594">
        <ele>292</ele>
        <time>2017-01-14T08:24:44Z</time>
      </trkpt>
      <trkpt lat="48.34825" lon="-4.04599">
        <ele>295</ele>
        <time>2017-01-14T08:26:44Z</time>
      </trkpt>
      <trkpt lat="48.34822" lon="-4.04599">
        <ele>295</ele>
        <time>2017-01-14T08:28:44Z</time>
      </trkpt>
      <trkpt lat="48.34821" lon="-4.04599">
        <ele>295</ele>
        <time>2017-01-14T08:30:44Z</time>
      </trkpt>
      <trkpt lat="48.3482" lon="-4.04598">
        <ele>295</ele>
        <time>2017-01-14T08:32:44Z</time>
      </trkpt>
      <trkpt lat="48.34773" lon="-4.04618">
        <ele>300</ele>
        <time>2017-01-14T08:34:44Z</time>
      </trkpt>
      <trkpt lat="48.34751" lon="-4.04638">
        <ele>303</ele>
        <time>2017-01-14T08:36:44Z</time>
      </trkpt>
      <trkpt lat="48.34733" lon="-4.04653">
        <ele>305</ele>
        <time>2017-01-14T08:38:44Z</time>
      </trkpt>
      <trkpt lat="48.34713" lon="-4.04665">
        <ele>307</ele>
        <time>2017-01-14T08:40:44Z</time>
      </trkpt>
      <trkpt lat="48.34689" lon="-4.04682">
        <ele>309</ele>
        <time>2017-01-14T08:42:44Z</time>
      </trkpt>
      <trkpt lat="48.34671" lon="-4.04698">
        <ele>310</ele>
        <time>2017-01-14T08:44:44Z</time>
      </trkpt>
      <trkpt lat="48.34658" lon="-4.04701">
        <ele>311</ele>
        <time>2017-01-14T08:46:44Z</time>
      </trkpt>
      <trkpt lat="48.34655" lon="-4.04702">
        <ele>312</ele>
        <time>2017-01-14T08:48:44Z</time>
      </trkpt>
      <trkpt lat="48.34648" lon="-4.04711">
        <ele>313</ele>
        <time>2017-01-14T08:50:44Z</time>
      </trkpt>
      <trkpt lat="48.34626" lon="-4.04722">
        <ele>316</ele>
        <time>2017-01-14T08:52:44Z</time>
      </trkpt>
      <trkpt lat="48.34613" lon="-4.04728">
        <ele>317</ele>
        <time>2017-01-14T08:54:44Z</time>
      </trkpt>
      <trkpt lat="48.34606" lon="-4.04734">
        <ele>318</ele>
        <time>2017-01-14T08:56:44Z</time>
      </trkpt>
      <trkpt lat="48.34601" lon="-4.04737">
        <ele>318</ele>
        <time>2017-01-14T08:58:44Z</time>
      </trkpt>
      <trkpt lat="48.34583" lon="-4.04753">
        <ele>319</ele>
        <time>2017-01-14T09:00:44Z</time>
      </trkpt>
      <trkpt lat="48.34572" lon="-4.04761">
        <ele>318</ele>
        <time>2017-01-14T09:02:44Z</time>
      </trkpt>
      <trkpt lat="48.3456" lon="-4.04766">
        <ele>318</ele>
        <time>2017-01-14T09:04:44Z</time>
      </trkpt>
      <trkpt lat="48.34559" lon="-4.04763">
        <ele>318</ele>
        <time>2017-01-14T09:06:44Z</time>
      </trkpt>
      <trkpt lat="48.34554" lon="-4.04764">
        <ele>318</ele>
        <time>2017-01-14T09:08:44Z</time>
      </trkpt>
      <trkpt lat="48.34532" lon="-4.04777">
        <ele>317</ele>
        <time>2017-01-14T09:10:44Z</time>
      </trkpt>
      <trkpt lat="48.34501" lon="-4.04793">
        <ele>316</ele>
        <time>2017-01-14T09:12:44Z</time>
      </trkpt>
      <trkpt lat="48.34476" lon="-4.048">
        <ele>315</ele>
        <time>2017-01-14T09:14:44Z</time>
      </trkpt>
      <trkpt lat="48.34475" lon="-4.04801">
        <ele>315</ele>
        <time>2017-01-14T09:16:44Z</time>
      </trkpt>
      <trkpt lat="48.34455" lon="-4.04808">
        <ele>314</ele>
        <time>2017-01-14T09:18:44Z</time>
      </trkpt>
      <trkpt lat="48.34428" lon="-4.04815">
        <ele>314</ele>
        <time>2017-01-14T09:20:44Z</time>
      </trkpt>
      <trkpt lat="48.34415" lon="-4.04826">
        <ele>313</ele>
        <time>2017-01-14T09:22:44Z</time>
      </trkpt>
      <trkpt lat="48.34393" lon="-4.04833">
        <ele>313</ele>
        <time>2017-01-14T09:24:44Z</time>
      </trkpt>
      <trkpt lat="48.34373" lon="-4.04837">
        <ele>313</ele>
        <time>2017-01-14T09:26:44Z</time>
      </trkpt>
      <trkpt lat="48.34363" lon="-4.04838">
        <ele>313</ele>
        <time>2017-01-14T09:28:44Z</time>
      </trkpt>
      <trkpt lat="48.34335" lon="-4.04844">
        <ele>312</ele>
        <time>2017-01-14T09:30:44Z</time>
      </trkpt>
      <trkpt lat="48.34319" lon="-4.04847">
        <ele>312</ele>
        <time>2017-01-14T09:32:44Z</time>
      </trkpt>
      <trkpt lat="48.34317" lon="-4.0485">
        <ele>312</ele>
        <time>2017-01-14T09:34:44Z</time>
      </trkpt>
      <trkpt lat="48.34312" lon="-4.0485">
        <ele>311</ele>
        <time>2017-01-14T09:36:44Z</time>
      </trkpt>
      <trkpt lat="48.34294" lon="-4.04855">
        <ele>311</ele>
        <time>2017-01-14T09:38:44Z</time>
      </trkpt>
      <trkpt lat="48.34271" lon="-4.04863">
        <ele>310</ele>
        <time>2017-01-14T09:40:44Z</time>
      </trkpt>
      <trkpt lat="48.34247" lon="-4.04864">
        <ele>309</ele>
        <time>2017-01-14T09:42:44Z</time>
      </trkpt>
      <trkpt lat="48.34227" lon="-4.04888">
        <ele>307</ele>
        <time>2017-01-14T09:44:44Z</time>
      </trkpt>
      <trkpt lat="48.34204" lon="-4.04885">
        <ele>307</ele>
        <time>2017-01-14T09:46:44Z</time>
      </trkpt>
      <trkpt lat="48.34203" lon="-4.04884">
        <ele>307</ele>
        <time>2017-01-14T09:48:44Z</time>
      </trkpt>
      <trkpt lat="48.34203" lon="-4.04884">
        <ele>307</ele>
        <time>2017-01-14T09:50:44Z</time>
      </trkpt>
      <trkpt lat="48.34202" lon="-4.04887">
        <ele>307</ele>
        <time>2017-01-14T09:52:44Z</time>
      </trkpt>
      <trkpt lat="48.34205" lon="-4.04887">
        <ele>307</ele>
        <time>2017-01-14T09:54:44Z</time>
      </trkpt>
      <trkpt lat="48.34205" lon="-4.04887">
        <ele>307</ele>
        <time>2017-01-14T09:56:44Z</time>
      </trkpt>
      <trkpt lat="48.34199" lon="-4.04887">
        <ele>306</ele>
        <time>2017-01-14T09:58:44Z</time>
      </trkpt>
      <trkpt lat="48.34194" lon="-4.04884">
        <ele>306</ele>
        <time>2017-01-14T10:00:44Z</time>
      </trkpt>
      <trkpt lat="48.34171" lon="-4.0489">
        <ele>305</ele>
        <time>2017-01-14T10:02:44Z</time>
      </trkpt>
      <trkpt lat="48.34147" lon="-4.04896">
        <ele>306</ele>
        <time>2017-01-14T10:04:44Z</time>
      </trkpt>
      <trkpt lat="48.34124" lon="-4.049">
        <ele>306</ele>
        <time>2017-01-14T10:06:44Z</time>
      </trkpt>
      <trkpt lat="48.34107" lon="-4.04902">
        <ele>306</ele>
        <time>2017-01-14T10:08:44Z</time>
      </trkpt>
      <trkpt lat="48.34107" lon="-4.04903">
        <ele>306</ele>
        <time>2017-01-14T10:10:44Z</time>
      </trkpt>
      <trkpt lat="48.34102" lon="-4.04903">
        <ele>307</ele>
        <time>2017-01-14T10:12:44Z</time>
      </trkpt>
      <trkpt lat="48.34076" lon="-4.04907">
        <ele>307</ele>
        <time>2017-01-14T10:14:44Z</time>
      </trkpt>
      <trkpt lat="48.34064" lon="-4.04908">
        <ele>307</ele>
        <time>2017-01-14T10:16:44Z</time>
      </trkpt>
      <trkpt lat="48.3405" lon="-4.0491">
        <ele>306</ele>
        <time>2017-01-14T10:18:44Z</time>
      </trkpt>
      <trkpt lat="48.34027" lon="-4.04916">
        <ele>306</ele>
        <time>2017-01-14T10:20:44Z</time>
      </trkpt>
      <trkpt lat="48.34018" lon="-4.04917">
        <ele>305</ele>
        <time>2017-01-14T10:22:44Z</time>
      </trkpt>
      <trkpt lat="48.33971" lon="-4.04922">
        <ele>305</ele>
        <time>2017-01-14T10:24:44Z</time>
      </trkpt>
      <trkpt lat="48.3395" lon="-4.04928">
        <ele>306</ele>
        <time>2017-01-14T10:26:44Z</time>
      </trkpt>
      <trkpt lat="48.33929" lon="-4.04931">
        <ele>306</ele>
        <time>2017-01-14T10:28:44Z</time>
      </trkpt>
      <trkpt lat="48.33908" lon="-4.04932">
        <ele>306</ele>
        <time>2017-01-14T10:30:44Z</time>
      </trkpt>
      <trkpt lat="48.33886" lon="-4.04936">
        <ele>306</ele>
        <time>2017-01-14T10:32:44Z</time>
      </trkpt>
      <trkpt lat="48.33862" lon="-4.04942">
        <ele>306</ele>
        <time>2017-01-14T10:34:44Z</time>
      </trkpt>
      <trkpt lat="48.33836" lon="-4.04945">
        <ele>306</ele>
        <time>2017-01-14T10:36:44Z</time>
      </trkpt>
      <trkpt lat="48.33765" lon="-4.04958">
        <ele>308</ele>
        <time>2017-01-14T10:38:44Z</time>
      </trkpt>
      <trkpt lat="48.33745" lon="-4.04962">
        <ele>308</ele>
        <time>2017-01-14T10:40:44Z</time>
      </trkpt>
      <trkpt lat="48.33724" lon="-4.04968">
        <ele>307</ele>
        <time>2017-01-14T10:42:44Z</time>
      </trkpt>
      <trkpt lat="48.33702" lon="-4.04971">
        <ele>307</ele>
        <time>2017-01-14T10:44:44Z</time>
      </trkpt>
      <trkpt lat="48.3368" lon="-4.04973">
        <ele>307</ele>
        <time>2017-01-14T10:46:44Z</time>
      </trkpt>
      <trkpt lat="48.3366" lon="-4.04978">
        <ele>306</ele>
        <time>2017-01-14T10:48:44Z</time>
      </trkpt>
      <trkpt lat="48.3365" lon="-4.04981">
        <ele>306</ele>
        <time>2017-01-14T10:50:44Z</time>
      </trkpt>
      <trkpt lat="48.33642" lon="-4.04981">
        <ele>306</ele>
        <time>2017-01-14T10:52:44Z</time>
      </trkpt>
      <trkpt lat="48.33639" lon="-4.04981">
        <ele>306</ele>
        <time>2017-01-14T10:54:44Z</time>
      </trkpt>
      <trkpt lat="48.33588" lon="-4.04989">
        <ele>305</ele>
        <time>2017-01-14T10:56:44Z</time>
      </trkpt>
      <trkpt lat="48.3357" lon="-4.04989">
        <ele>305</ele>
        <time>2017-01-14T10:58:44Z</time>
      </trkpt>
      <trkpt lat="48.3352" lon="-4.04978">
        <ele>304</ele>
        <time>2017-01-14T11:00:44Z</time>
      </trkpt>
      <trkpt lat="48.33497" lon="-4.04976">
        <ele>304</ele>
        <time>2017-01-14T11:02:44Z</time>
      </trkpt>
      <trkpt lat="48.33475" lon="-4.0497">
        <ele>303</ele>
        <time>2017-01-14T11:04:44Z</time>
      </trkpt>
      <trkpt lat="48.33456" lon="-4.04959">
        <ele>303</ele>
        <time>2017-01-14T11:06:44Z</time>
      </trkpt>
      <trkpt lat="48.33451" lon="-4.04953">
        <ele>303</ele>
        <time>2017-01-14T11:08:44Z</time>
      </trkpt>
      <trkpt lat="48.3343" lon="-4.04947">
        <ele>302</ele>
        <time>2017-01-14T11:10:44Z</time>
      </trkpt>
      <trkpt lat="48.3342" lon="-4.04942">
        <ele>302</ele>
        <time>2017-01-14T11:12:44Z</time>
      </trkpt>
      <trkpt lat="48.33396" lon="-4.04935">
        <ele>302</ele>
        <time>2017-01-14T11:14:44Z</time>
      </trkpt>
      <trkpt lat="48.33379" lon="-4.04927">
        <ele>301</ele>
        <time>2017-01-14T11:16:44Z</time>
      </trkpt>
      <trkpt lat="48.33357" lon="-4.04921">
        <ele>301</ele>
        <time>2017-01-14T11:18:44Z</time>
      </trkpt>
      <trkpt lat="48.33335" lon="-4.04916">
        <ele>300</ele>
        <time>2017-01-14T11:20:44Z</time>
      </trkpt>
      <trkpt lat="48.33293" lon="-4.04906">
        <ele>301</ele>
        <time>2017-01-14T11:22:44Z</time>
      </trkpt>
      <trkpt lat="48.33272" lon="-4.04901">
        <ele>301</ele>
        <time>2017-01-14T11:24:44Z</time>
      </trkpt>
      <trkpt lat="48.33245" lon="-4.04903">
        <ele>301</ele>
        <time>2017-01-14T11:26:44Z</time>
      </trkpt>
      <trkpt lat="48.33224" lon="-4.04899">
        <ele>301</ele>
        <time>2017-01-14T11:28:44Z</time>
      </trkpt>
      <trkpt lat="48.33204" lon="-4.04896">
        <ele>300</ele>
        <time>2017-01-14T11:30:44Z</time>
      </trkpt>
      <trkpt lat="48.33183" lon="-4.04891">
        <ele>300</ele>
        <time>2017-01-14T11:32:44Z</time>
      </trkpt>
      <trkpt lat="48.33159" lon="-4.04891">
        <ele>300</ele>
        <time>2017-01-14T11:34:44Z</time>
      </trkpt>
      <trkpt lat="48.33144" lon="-4.04893">
        <ele>300</ele>
        <time>2017-01-14T11:36:44Z</time>
      </trkpt>
      <trkpt lat="48.33136" lon="-4.04903">
        <ele>299</ele>
        <time>2017-01-14T11:38:44Z</time>
      </trkpt>
      <trkpt lat="48.33133" lon="-4.04903">
        <ele>299</ele>
        <time>2017-01-14T11:40:44Z</time>
      </trkpt>
      <trkpt lat="48.33118" lon="-4.04901">
        <ele>300</ele>
        <time>2017-01-14T11:42:44Z</time>
      </trkpt>
      <trkpt lat="48.33119" lon="-4.04902">
        <ele>300</ele>
        <time>2017-01-14T11:44:44Z</time>
      </trkpt>
      <trkpt lat="48.33118" lon="-4.04904">
        <ele>299</ele>
        <time>2017-01-14T11:46:44Z</time>
      </trkpt>
      <trkpt lat="48.33118" lon="-4.04907">
        <ele>299</ele>
        <time>2017-01-14T11:48:44Z</time>
      </trkpt>
      <trkpt lat="48.33118" lon="-4.04907">
        <ele>299</ele>
        <time>2017-01-14T11:50:44Z</time>
      </trkpt>
      <trkpt lat="48.33116" lon="-4.04907">
        <ele>299</ele>
        <time>2017-01-14T11:52:44Z</time>
      </trkpt>
      <trkpt lat="48.33112" lon="-4.04902">
        <ele>300</ele>
        <time>2017-01-14T11:54:44Z</time>
      </trkpt>
      <trkpt lat="48.33097" lon="-4.04881">
        <ele>301</ele>
        <time>2017-01-14T11:56:44Z</time>
      </trkpt>
      <trkpt lat="48.33075" lon="-4.0489">
        <ele>301</ele>
        <time>2017-01-14T11:58:44Z</time>
      </trkpt>
      <trkpt lat="48.33004" lon="-4.0493">
        <ele>298</ele>
        <time>2017-01-14T12:00:44Z</time>
      </trkpt>
      <trkpt lat="48.32977" lon="-4.04943">
        <ele>298</ele>
        <time>2017-01-14T12:02:44Z</time>
      </trkpt>
      <trkpt lat="48.3295" lon="-4.04957">
        <ele>298</ele>
        <time>2017-01-14T12:04:44Z</time>
      </trkpt>
      <trkpt lat="48.32946" lon="-4.04961">
        <ele>298</ele>
        <time>2017-01-14T12:06:44Z</time>
      </trkpt>
      <trkpt lat="48.32943" lon="-4.04962">
        <ele>298</ele>
        <time>2017-01-14T12:08:44Z</time>
      </trkpt>
      <trkpt lat="48.32932" lon="-4.04967">
        <ele>298</ele>
        <time>2017-01-14T12:10:44Z</time>
      </trkpt>
      <trkpt lat="48.32926" lon="-4.04971">
        <ele>299</ele>
        <time>2017-01-14T12:12:44Z</time>
      </trkpt>
      <trkpt lat="48.32893" lon="-4.04988">
        <ele>299</ele>
        <time>2017-01-14T12:14:44Z</time>
      </trkpt>
      <trkpt lat="48.32821" lon="-4.05024">
        <ele>300</ele>
        <time>2017-01-14T12:16:44Z</time>
      </trkpt>
      <trkpt lat="48.32797" lon="-4.05043">
        <ele>300</ele>
        <time>2017-01-14T12:18:44Z</time>
      </trkpt>
      <trkpt lat="48.32772" lon="-4.05068">
        <ele>299</ele>
        <time>2017-01-14T12:20:44Z</time>
      </trkpt>
      <trkpt lat="48.32754" lon="-4.05085">
        <ele>299</ele>
        <time>2017-01-14T12:22:44Z</time>
      </trkpt>
      <trkpt lat="48.32752" lon="-4.05088">
        <ele>299</ele>
        <time>2017-01-14T12:24:44Z</time>
      </trkpt>
      <trkpt lat="48.32733" lon="-4.05102">
        <ele>299</ele>
        <time>2017-01-14T12:26:44Z</time>
      </trkpt>
      <trkpt lat="48.32729" lon="-4.051">
        <ele>299</ele>
        <time>2017-01-14T12:28:44Z</time>
      </trkpt>
      <trkpt lat="48.32717" lon="-4.05066">
        <ele>299</ele>
        <time>2017-01-14T12:30:44Z</time>
      </trkpt>
      <trkpt lat="48.32706" lon="-4.05059">
        <ele>298</ele>
        <time>2017-01-14T12:32:44Z</time>
      </trkpt>
      <trkpt lat="48.32707" lon="-4.05053">
        <ele>298</ele>
        <time>2017-01-14T12:34:44Z</time>
      </trkpt>
      <trkpt lat="48.32712" lon="-4.05057">
        <ele>299</ele>
        <time>2017-01-14T12:36:44Z</time>
      </trkpt>
      <trkpt lat="48.32711" lon="-4.05074">
        <ele>299</ele>
        <time>2017-01-14T12:38:44Z</time>
      </trkpt>
      <trkpt lat="48.3271" lon="-4.05074">
        <ele>299</ele>
        <time>2017-01-14T12:40:44Z</time>
      </trkpt>
      <trkpt lat="48.32714" lon="-4.05071">
        <ele>299</ele>
        <time>2017-01-14T12:42:44Z</time>
      </trkpt>
      <trkpt lat="48.32715" lon="-4.05067">
        <ele>299</ele>
        <time>2017-01-14T12:44:44Z</time>
      </trkpt>
      <trkpt lat="48.32707" lon="-4.0506">
        <ele>298</ele>
        <time>2017-01-14T12:46:44Z</time>
      </trkpt>
      <trkpt lat="48.32692" lon="-4.05059">
        <ele>298</ele>
        <time>2017-01-14T12:48:44Z</time>
      </trkpt>
      <trkpt lat="48.32683" lon="-4.05063">
        <ele>298</ele>
        <time>2017-01-14T12:50:44Z</time>
      </trkpt>
      <trkpt lat="48.32655" lon="-4.05075">
        <ele>297</ele>
        <time>2017-01-14T12:52:44Z</time>
      </trkpt>
      <trkpt lat="48.32631" lon="-4.05086">
        <ele>297</ele>
        <time>2017-01-14T12:54:44Z</time>
      </trkpt>
      <trkpt lat="48.32609" lon="-4.05096">
        <ele>296</ele>
        <time>2017-01-14T12:56:44Z</time>
      </trkpt>
      <trkpt lat="48.32587" lon="-4.05103">
        <ele>296</ele>
        <time>2017-01-14T12:58:44Z</time>
      </trkpt>
      <trkpt lat="48.32561" lon="-4.0511">
        <ele>295</ele>
        <time>2017-01-14T13:00:44Z</time>
      </trkpt>
      <trkpt lat="48.32531" lon="-4.0512">
        <ele>293</ele>
        <time>2017-01-14T13:02:44Z</time>
      </trkpt>
      <trkpt lat="48.32476" lon="-4.0514">
        <ele>291</ele>
        <time>2017-01-14T13:04:44Z</time>
      </trkpt>
      <trkpt lat="48.3245" lon="-4.05147">
        <ele>289</ele>
        <time>2017-01-14T13:06:44Z</time>
      </trkpt>
      <trkpt lat="48.32427" lon="-4.05149">
        <ele>287</ele>
        <time>2017-01-14T13:08:44Z</time>
      </trkpt>
      <trkpt lat="48.32404" lon="-4.05145">
        <ele>286</ele>
        <time>2017-01-14T13:10:44Z</time>
      </trkpt>
      <trkpt lat="48.32397" lon="-4.05141">
        <ele>286</ele>
        <time>2017-01-14T13:12:44Z</time>
      </trkpt>
      <trkpt lat="48.32391" lon="-4.05136">
        <ele>285</ele>
        <time>2017-01-14T13:14:44Z</time>
      </trkpt>
      <trkpt lat="48.32371" lon="-4.05111">
        <ele>284</ele>
        <time>2017-01-14T13:16:44Z</time>
      </trkpt>
      <trkpt lat="48.32347" lon="-4.05072">
        <ele>283</ele>
        <time>2017-01-14T13:18:44Z</time>
      </trkpt>
      <trkpt lat="48.32345" lon="-4.05066">
        <ele>283</ele>
        <time>2017-01-14T13:20:44Z</time>
      </trkpt>
      <trkpt lat="48.32327" lon="-4.05036">
        <ele>282</ele>
        <time>2017-01-14T13:22:44Z</time>
      </trkpt>
      <trkpt lat="48.32306" lon="-4.04998">
        <ele>282</ele>
        <time>2017-01-14T13:24:44Z</time>
      </trkpt>
      <trkpt lat="48.32265" lon="-4.04925">
        <ele>281</ele>
        <time>2017-01-14T13:26:44Z</time>
      </trkpt>
      <trkpt lat="48.32246" lon="-4.04891">
        <ele>280</ele>
        <time>2017-01-14T13:28:44Z</time>
      </trkpt>
      <trkpt lat="48.32225" lon="-4.04851">
        <ele>278</ele>
        <time>2017-01-14T13:30:44Z</time>
      </trkpt>
      <trkpt lat="48.32206" lon="-4.04821">
        <ele>277</ele>
        <time>2017-01-14T13:32:44Z</time>
      </trkpt>
      <trkpt lat="48.32185" lon="-4.04784">
        <ele>276</ele>
        <time>2017-01-14T13:34:44Z</time>
      </trkpt>
      <trkpt lat="48.32164" lon="-4.04747">
        <ele>275</ele>
        <time>2017-01-14T13:36:44Z</time>
      </trkpt>
      <trkpt lat="48.32146" lon="-4.04715">
        <ele>273</ele>
        <time>2017-01-14T13:38:44Z</time>
      </trkpt>
      <trkpt lat="48.32129" lon="-4.04686">
        <ele>271</ele>
        <time>2017-01-14T13:40:44Z</time>
      </trkpt>
      <trkpt lat="48.32112" lon="-4.04656">
        <ele>269</ele>
        <time>2017-01-14T13:42:44Z</time>
      </trkpt>
      <trkpt lat="48.32094" lon="-4.04623">
        <ele>268</ele>
        <time>2017-01-14T13:44:44Z</time>
      </trkpt>
      <trkpt lat="48.32078" lon="-4.04593">
        <ele>268</ele>
        <time>2017-01-14T13:46:44Z</time>
      </trkpt>
      <trkpt lat="48.32075" lon="-4.04584">
        <ele>267</ele>
        <time>2017-01-14T13:48:44Z</time>
      </trkpt>
      <trkpt lat="48.32072" lon="-4.04578">
        <ele>267</ele>
        <time>2017-01-14T13:50:44Z</time>
      </trkpt>
      <trkpt lat="48.3206" lon="-4.04546">
        <ele>266</ele>
        <time>2017-01-14T13:52:44Z</time>
      </trkpt>
      <trkpt lat="48.32047" lon="-4.045">
        <ele>264</ele>
        <time>2017-01-14T13:54:44Z</time>
      </trkpt>
      <trkpt lat="48.32042" lon="-4.04463">
        <ele>264</ele>
        <time>2017-01-14T13:56:44Z</time>
      </trkpt>
      <trkpt lat="48.32038" lon="-4.04425">
        <ele>263</ele>
        <time>2017-01-14T13:58:44Z</time>
      </trkpt>
      <trkpt lat="48.32035" lon="-4.04354">
        <ele>261</ele>
        <time>2017-01-14T14:00:44Z</time>
      </trkpt>
      <trkpt lat="48.32036" lon="-4.04329">
        <ele>260</ele>
        <time>2017-01-14T14:02:44Z</time>
      </trkpt>
      <trkpt lat="48.32035" lon="-4.04288">
        <ele>259</ele>
        <time>2017-01-14T14:04:44Z</time>
      </trkpt>
      <trkpt lat="48.32035" lon="-4.04238">
        <ele>258</ele>
        <time>2017-01-14T14:06:44Z</time>
      </trkpt>
      <trkpt lat="48.32032" lon="-4.04196">
        <ele>259</ele>
        <time>2017-01-14T14:08:44Z</time>
      </trkpt>
      <trkpt lat="48.32031" lon="-4.04173">
        <ele>259</ele>
        <time>2017-01-14T14:10:44Z</time>
      </trkpt>
      <trkpt lat="48.3203" lon="-4.04131">
        <ele>259</ele>
        <time>2017-01-14T14:12:44Z</time>
      </trkpt>
      <trkpt lat="48.32029" lon="-4.04092">
        <ele>259</ele>
        <time>2017-01-14T14:14:44Z</time>
      </trkpt>
      <trkpt lat="48.32023" lon="-4.04057">
        <ele>260</ele>
        <time>2017-01-14T14:16:44Z</time>
      </trkpt>
      <trkpt lat="48.3202" lon="-4.0403">
        <ele>260</ele>
        <time>2017-01-14T14:18:44Z</time>
      </trkpt>
      <trkpt lat="48.32019" lon="-4.04024">
        <ele>260</ele>
        <time>2017-01-14T14:20:44Z</time>
      </trkpt>
      <trkpt lat="48.32017" lon="-4.0399">
        <ele>259</ele>
        <time>2017-01-14T14:22:44Z</time>
      </trkpt>
      <trkpt lat="48.32015" lon="-4.03984">
        <ele>259</ele>
        <time>2017-01-14T14:24:44Z</time>
      </trkpt>
      <trkpt lat="48.32008" lon="-4.03886">
        <ele>256</ele>
        <time>2017-01-14T14:26:44Z</time>
      </trkpt>
      <trkpt lat="48.32002" lon="-4.03839">
        <ele>255</ele>
        <time>2017-01-14T14:28:44Z</time>
      </trkpt>
      <trkpt lat="48.31994" lon="-4.03792">
        <ele>254</ele>
        <time>2017-01-14T14:30:44Z</time>
      </trkpt>
      <trkpt lat="48.3199" lon="-4.03761">
        <ele>253</ele>
        <time>2017-01-14T14:32:44Z</time>
      </trkpt>
      <trkpt lat="48.3198" lon="-4.03725">
        <ele>251</ele>
        <time>2017-01-14T14:34:44Z</time>
      </trkpt>
      <trkpt lat="48.31977" lon="-4.03688">
        <ele>249</ele>
        <time>2017-01-14T14:36:44Z</time>
      </trkpt>
      <trkpt lat="48.31972" lon="-4.03654">
        <ele>248</ele>
        <time>2017-01-14T14:38:44Z</time>
      </trkpt>
      <trkpt lat="48.31965" lon="-4.0362">
        <ele>247</ele>
        <time>2017-01-14T14:40:44Z</time>
      </trkpt>
      <trkpt lat="48.31956" lon="-4.03585">
        <ele>246</ele>
        <time>2017-01-14T14:42:44Z</time>
      </trkpt>
      <trkpt lat="48.31945" lon="-4.03549">
        <ele>247</ele>
        <time>2017-01-14T14:44:44Z</time>
      </trkpt>
      <trkpt lat="48.31938" lon="-4.03518">
        <ele>247</ele>
        <time>2017-01-14T14:46:44Z</time>
      </trkpt>
      <trkpt lat="48.31928" lon="-4.03485">
        <ele>248</ele>
        <time>2017-01-14T14:48:44Z</time>
      </trkpt>
      <trkpt lat="48.31918" lon="-4.03441">
        <ele>248</ele>
        <time>2017-01-14T14:50:44Z</time>
      </trkpt>
      <trkpt lat="48.31903" lon="-4.03388">
        <ele>247</ele>
        <time>2017-01-14T14:52:44Z</time>
      </trkpt>
      <trkpt lat="48.31878" lon="-4.03295">
        <ele>245</ele>
        <time>2017-01-14T14:54:44Z</time>
      </trkpt>
      <trkpt lat="48.31868" lon="-4.03255">
        <ele>244</ele>
        <time>2017-01-14T14:56:44Z</time>
      </trkpt>
      <trkpt lat="48.31865" lon="-4.03231">
        <ele>244</ele>
        <time>2017-01-14T14:58:44Z</time>
      </trkpt>
      <trkpt lat="48.31863" lon="-4.03224">
        <ele>243</ele>
        <time>2017-01-14T15:00:44Z</time>
      </trkpt>
      <trkpt lat="48.3186" lon="-4.03187">
        <ele>243</ele>
        <time>2017-01-14T15:02:44Z</time>
      </trkpt>
      <trkpt lat="48.31861" lon="-4.03158">
        <ele>242</ele>
        <time>2017-01-14T15:04:44Z</time>
      </trkpt>
      <trkpt lat="48.31863" lon="-4.0314">
        <ele>242</ele>
        <time>2017-01-14T15:06:44Z</time>
      </trkpt>
      <trkpt lat="48.31867" lon="-4.03101">
        <ele>241</ele>
        <time>2017-01-14T15:08:44Z</time>
      </trkpt>
      <trkpt lat="48.31873" lon="-4.03066">
        <ele>241</ele>
        <time>2017-01-14T15:10:44Z</time>
      </trkpt>
      <trkpt lat="48.31884" lon="-4.03034">
        <ele>240</ele>
        <time>2017-01-14T15:12:44Z</time>
      </trkpt>
      <trkpt lat="48.31898" lon="-4.03002">
        <ele>239</ele>
        <time>2017-01-14T15:14:44Z</time>
      </trkpt>
      <trkpt lat="48.31911" lon="-4.02968">
        <ele>239</ele>
        <time>2017-01-14T15:16:44Z</time>
      </trkpt>
      <trkpt lat="48.31937" lon="-4.02942">
        <ele>241</ele>
        <time>2017-01-14T15:18:44Z</time>
      </trkpt>
      <trkpt lat="48.31957" lon="-4.02906">
        <ele>242</ele>
        <time>2017-01-14T15:20:44Z</time>
      </trkpt>
      <trkpt lat="48.3197" lon="-4.02878">
        <ele>242</ele>
        <time>2017-01-14T15:22:44Z</time>
      </trkpt>
      <trkpt lat="48.31976" lon="-4.02873">
        <ele>242</ele>
        <time>2017-01-14T15:24:44Z</time>
      </trkpt>
      <trkpt lat="48.31974" lon="-4.02874">
        <ele>242</ele>
        <time>2017-01-14T15:26:44Z</time>
      </trkpt>
      <trkpt lat="48.31974" lon="-4.02872">
        <ele>242</ele>
        <time>2017-01-14T15:28:44Z</time>
      </trkpt>
      <trkpt lat="48.3198" lon="-4.02853">
        <ele>242</ele>
        <time>2017-01-14T15:30:44Z</time>
      </trkpt>
      <trkpt lat="48.31981" lon="-4.02844">
        <ele>242</ele>
        <time>2017-01-14T15:32:44Z</time>
      </trkpt>
      <trkpt lat="48.3199" lon="-4.02811">
        <ele>241</ele>
        <time>2017-01-14T15:34:44Z</time>
      </trkpt>
      <trkpt lat="48.31995" lon="-4.02777">
        <ele>240</ele>
        <time>2017-01-14T15:36:44Z</time>
      </trkpt>
      <trkpt lat="48.32002" lon="-4.02698">
        <ele>237</ele>
        <time>2017-01-14T15:38:44Z</time>
      </trkpt>
      <trkpt lat="48.32005" lon="-4.02656">
        <ele>235</ele>
        <time>2017-01-14T15:40:44Z</time>
      </trkpt>
      <trkpt lat="48.32007" lon="-4.02615">
        <ele>232</ele>
        <time>2017-01-14T15:42:44Z</time>
      </trkpt>
      <trkpt lat="48.3201" lon="-4.02572">
        <ele>230</ele>
        <time>2017-01-14T15:44:44Z</time>
      </trkpt>
      <trkpt lat="48.32031" lon="-4.02541">
        <ele>229</ele>
        <time>2017-01-14T15:46:44Z</time>
      </trkpt>
      <trkpt lat="48.32057" lon="-4.02521">
        <ele>230</ele>
        <time>2017-01-14T15:48:44Z</time>
      </trkpt>
      <trkpt lat="48.32082" lon="-4.02494">
        <ele>231</ele>
        <time>2017-01-14T15:50:44Z</time>
      </trkpt>
      <trkpt lat="48.32101" lon="-4.0247">
        <ele>231</ele>
        <time>2017-01-14T15:52:44Z</time>
      </trkpt>
      <trkpt lat="48.32131" lon="-4.02431">
        <ele>230</ele>
        <time>2017-01-14T15:54:44Z</time>
      </trkpt>
      <trkpt lat="48.32146" lon="-4.02401">
        <ele>230</ele>
        <time>2017-01-14T15:56:44Z</time>
      </trkpt>
      <trkpt lat="48.32175" lon="-4.02358">
        <ele>230</ele>
        <time>2017-01-14T15:58:44Z</time>
      </trkpt>
      <trkpt lat="48.322" lon="-4.02334">
        <ele>230</ele>
        <time>2017-01-14T16:00:44Z</time>
      </trkpt>
      <trkpt lat="48.32218" lon="-4.02313">
        <ele>231</ele>
        <time>2017-01-14T16:02:44Z</time>
      </trkpt>
      <trkpt lat="48.32243" lon="-4.02279">
        <ele>232</ele>
        <time>2017-01-14T16:04:44Z</time>
      </trkpt>
      <trkpt lat="48.32264" lon="-4.02244">
        <ele>232</ele>
        <time>2017-01-14T16:06:44Z</time>
      </trkpt>
      <trkpt lat="48.32283" lon="-4.02207">
        <ele>230</ele>
        <time>2017-01-14T16:08:44Z</time>
      </trkpt>
      <trkpt lat="48.32307" lon="-4.0216">
        <ele>231</ele>
        <time>2017-01-14T16:10:44Z</time>
      </trkpt>
      <trkpt lat="48.32328" lon="-4.02129">
        <ele>231</ele>
        <time>2017-01-14T16:12:44Z</time>
      </trkpt>
      <trkpt lat="48.32352" lon="-4.02092">
        <ele>230</ele>
        <time>2017-01-14T16:14:44Z</time>
      </trkpt>
      <trkpt lat="48.32375" lon="-4.0205">
        <ele>229</ele>
        <time>2017-01-14T16:16:44Z</time>
      </trkpt>
      <trkpt lat="48.32379" lon="-4.02007">
        <ele>231</ele>
        <time>2017-01-14T16:18:44Z</time>
      </trkpt>
      <trkpt lat="48.32397" lon="-4.01993">
        <ele>230</ele>
        <time>2017-01-14T16:20:44Z</time>
      </trkpt>
      <trkpt lat="48.32426" lon="-4.0197">
        <ele>226</ele>
        <time>2017-01-14T16:22:44Z</time>
      </trkpt>
      <trkpt lat="48.32458" lon="-4.01938">
        <ele>221</ele>
        <time>2017-01-14T16:24:44Z</time>
      </trkpt>
      <trkpt lat="48.32472" lon="-4.01916">
        <ele>220</ele>
        <time>2017-01-14T16:26:44Z</time>
      </trkpt>
      <trkpt lat="48.32474" lon="-4.01897">
        <ele>219</ele>
        <time>2017-01-14T16:28:44Z</time>
      </trkpt>
      <trkpt lat="48.32477" lon="-4.01893">
        <ele>219</ele>
        <time>2017-01-14T16:30:44Z</time>
      </trkpt>
      <trkpt lat="48.32486" lon="-4.01881">
        <ele>216</ele>
        <time>2017-01-14T16:32:44Z</time>
      </trkpt>
      <trkpt lat="48.32491" lon="-4.01863">
        <ele>215</ele>
        <time>2017-01-14T16:34:44Z</time>
      </trkpt>
      <trkpt lat="48.32492" lon="-4.0186">
        <ele>215</ele>
        <time>2017-01-14T16:36:44Z</time>
      </trkpt>
      <trkpt lat="48.32496" lon="-4.01839">
        <ele>213</ele>
        <time>2017-01-14T16:38:44Z</time>
      </trkpt>
      <trkpt lat="48.32504" lon="-4.01817">
        <ele>211</ele>
        <time>2017-01-14T16:40:44Z</time>
      </trkpt>
      <trkpt lat="48.32515" lon="-4.01796">
        <ele>207</ele>
        <time>2017-01-14T16:42:44Z</time>
      </trkpt>
      <trkpt lat="48.32522" lon="-4.01784">
        <ele>205</ele>
        <time>2017-01-14T16:44:44Z</time>
      </trkpt>
      <trkpt lat="48.32538" lon="-4.01759">
        <ele>200</ele>
        <time>2017-01-14T16:46:44Z</time>
      </trkpt>
      <trkpt lat="48.32546" lon="-4.01736">
        <ele>198</ele>
        <time>2017-01-14T16:48:44Z</time>
      </trkpt>
      <trkpt lat="48.32555" lon="-4.01722">
        <ele>195</ele>
        <time>2017-01-14T16:50:44Z</time>
      </trkpt>
      <trkpt lat="48.32555" lon="-4.01726">
        <ele>195</ele>
        <time>2017-01-14T16:52:44Z</time>
      </trkpt>
      <trkpt lat="48.32549" lon="-4.01729">
        <ele>197</ele>
        <time>2017-01-14T16:54:44Z</time>
      </trkpt>
      <trkpt lat="48.32551" lon="-4.01725">
        <ele>197</ele>
        <time>2017-01-14T16:56:44Z</time>
      </trkpt>
      <trkpt lat="48.32553" lon="-4.01725">
        <ele>196</ele>
        <time>2017-01-14T16:58:44Z</time>
      </trkpt>
      <trkpt lat="48.32552" lon="-4.01722">
        <ele>196</ele>
        <time>2017-01-14T17:00:44Z</time>
      </trkpt>
      <trkpt lat="48.32565" lon="-4.0171">
        <ele>193</ele>
        <time>2017-01-14T17:02:44Z</time>
      </trkpt>
      <trkpt lat="48.32568" lon="-4.01703">
        <ele>192</ele>
        <time>2017-01-14T17:04:44Z</time>
      </trkpt>
      <trkpt lat="48.32576" lon="-4.01684">
        <ele>190</ele>
        <time>2017-01-14T17:06:44Z</time>
      </trkpt>
      <trkpt lat="48.3258" lon="-4.01677">
        <ele>189</ele>
        <time>2017-01-14T17:08:44Z</time>
      </trkpt>
      <trkpt lat="48.32583" lon="-4.01674">
        <ele>188</ele>
        <time>2017-01-14T17:10:44Z</time>
      </trkpt>
      <trkpt lat="48.32593" lon="-4.01651">
        <ele>186</ele>
        <time>2017-01-14T17:12:44Z</time>
      </trkpt>
      <trkpt lat="48.32608" lon="-4.01626">
        <ele>182</ele>
        <time>2017-01-14T17:14:44Z</time>
      </trkpt>
      <trkpt lat="48.32618" lon="-4.01612">
        <ele>179</ele>
        <time>2017-01-14T17:16:44Z</time>
      </trkpt>
      <trkpt lat="48.32618" lon="-4.01608">
        <ele>179</ele>
        <time>2017-01-14T17:18:44Z</time>
      </trkpt>
      <trkpt lat="48.32629" lon="-4.01587">
        <ele>176</ele>
        <time>2017-01-14T17:20:44Z</time>
      </trkpt>
      <trkpt lat="48.32633" lon="-4.01578">
        <ele>175</ele>
        <time>2017-01-14T17:22:44Z</time>
      </trkpt>
      <trkpt lat="48.32645" lon="-4.01554">
        <ele>172</ele>
        <time>2017-01-14T17:24:44Z</time>
      </trkpt>
      <trkpt lat="48.3265" lon="-4.01541">
        <ele>171</ele>
        <time>2017-01-14T17:26:44Z</time>
      </trkpt>
      <trkpt lat="48.32654" lon="-4.01531">
        <ele>169</ele>
        <time>2017-01-14T17:28:44Z</time>
      </trkpt>
      <trkpt lat="48.32657" lon="-4.0152">
        <ele>169</ele>
        <time>2017-01-14T17:30:44Z</time>
      </trkpt>
      <trkpt lat="48.32664" lon="-4.015">
        <ele>167</ele>
        <time>2017-01-14T17:32:44Z</time>
      </trkpt>
      <trkpt lat="48.32678" lon="-4.01486">
        <ele>162</ele>
        <time>2017-01-14T17:34:44Z</time>
      </trkpt>
      <trkpt lat="48.32685" lon="-4.01477">
        <ele>160</ele>
        <time>2017-01-14T17:36:44Z</time>
      </trkpt>
      <trkpt lat="48.32686" lon="-4.01471">
        <ele>159</ele>
        <time>2017-01-14T17:38:44Z</time>
      </trkpt>
      <trkpt lat="48.32698" lon="-4.01447">
        <ele>155</ele>
        <time>2017-01-14T17:40:44Z</time>
      </trkpt>
      <trkpt lat="48.32714" lon="-4.01427">
        <ele>150</ele>
        <time>2017-01-14T17:42:44Z</time>
      </trkpt>
      <trkpt lat="48.32721" lon="-4.01407">
        <ele>147</ele>
        <time>2017-01-14T17:44:44Z</time>
      </trkpt>
      <trkpt lat="48.32722" lon="-4.01403">
        <ele>147</ele>
        <time>2017-01-14T17:46:44Z</time>
      </trkpt>
      <trkpt lat="48.32723" lon="-4.014">
        <ele>146</ele>
        <time>2017-01-14T17:48:44Z</time>
      </trkpt>
      <trkpt lat="48.32728" lon="-4.01379">
        <ele>145</ele>
        <time>2017-01-14T17:50:44Z</time>
      </trkpt>
      <trkpt lat="48.32728" lon="-4.01376">
        <ele>144</ele>
        <time>2017-01-14T17:52:44Z</time>
      </trkpt>
      <trkpt lat="48.3273" lon="-4.01349">
        <ele>143</ele>
        <time>2017-01-14T17:54:44Z</time>
      </trkpt>
      <trkpt lat="48.32728" lon="-4.01332">
        <ele>143</ele>
        <time>2017-01-14T17:56:44Z</time>
      </trkpt>
      <trkpt lat="48.32729" lon="-4.01331">
        <ele>143</ele>
        <time>2017-01-14T17:58:44Z</time>
      </trkpt>
      <trkpt lat="48.32729" lon="-4.01323">
        <ele>142</ele>
        <time>2017-01-14T18:00:44Z</time>
      </trkpt>
      <trkpt lat="48.32722" lon="-4.013">
        <ele>142</ele>
        <time>2017-01-14T18:02:44Z</time>
      </trkpt>
      <trkpt lat="48.32721" lon="-4.01286">
        <ele>141</ele>
        <time>2017-01-14T18:04:44Z</time>
      </trkpt>
      <trkpt lat="48.32719" lon="-4.01279">
        <ele>141</ele>
        <time>2017-01-14T18:06:44Z</time>
      </trkpt>
      <trkpt lat="48.32722" lon="-4.01278">
        <ele>140</ele>
        <time>2017-01-14T18:08:44Z</time>
      </trkpt>
      <trkpt lat="48.32721" lon="-4.01274">
        <ele>140</ele>
        <time>2017-01-14T18:10:44Z</time>
      </trkpt>
      <trkpt lat="48.32713" lon="-4.01241">
        <ele>138</ele>
        <time>2017-01-14T18:12:44Z</time>
      </trkpt>
      <trkpt lat="48.32703" lon="-4.01213">
        <ele>136</ele>
        <time>2017-01-14T18:14:44Z</time>
      </trkpt>
      <trkpt lat="48.32692" lon="-4.01197">
        <ele>134</ele>
        <time>2017-01-14T18:16:44Z</time>
      </trkpt>
      <trkpt lat="48.3268" lon="-4.01189">
        <ele>134</ele>
        <time>2017-01-14T18:18:44Z</time>
      </trkpt>
      <trkpt lat="48.32662" lon="-4.01185">
        <ele>134</ele>
        <time>2017-01-14T18:20:44Z</time>
      </trkpt>
      <trkpt lat="48.32642" lon="-4.01176">
        <ele>132</ele>
        <time>2017-01-14T18:22:44Z</time>
      </trkpt>
      <trkpt lat="48.32629" lon="-4.01168">
        <ele>131</ele>
        <time>2017-01-14T18:24:44Z</time>
      </trkpt>
      <trkpt lat="48.32618" lon="-4.01159">
        <ele>130</ele>
        <time>2017-01-14T18:26:44Z</time>
      </trkpt>
      <trkpt lat="48.32608" lon="-4.01149">
        <ele>130</ele>
        <time>2017-01-14T18:28:44Z</time>
      </trkpt>
      <trkpt lat="48.32587" lon="-4.01136">
        <ele>129</ele>
        <time>2017-01-14T18:30:44Z</time>
      </trkpt>
      <trkpt lat="48.32584" lon="-4.01133">
        <ele>129</ele>
        <time>2017-01-14T18:32:44Z</time>
      </trkpt>
      <trkpt lat="48.3258" lon="-4.01127">
        <ele>128</ele>
        <time>2017-01-14T18:34:44Z</time>
      </trkpt>
      <trkpt lat="48.32562" lon="-4.01116">
        <ele>128</ele>
        <time>2017-01-14T18:36:44Z</time>
      </trkpt>
      <trkpt lat="48.32559" lon="-4.01106">
        <ele>127</ele>
        <time>2017-01-14T18:38:44Z</time>
      </trkpt>
      <trkpt lat="48.32563" lon="-4.01097">
        <ele>126</ele>
        <time>2017-01-14T18:40:44Z</time>
      </trkpt>
      <trkpt lat="48.32558" lon="-4.01093">
        <ele>125</ele>
        <time>2017-01-14T18:42:44Z</time>
      </trkpt>
      <trkpt lat="48.32552" lon="-4.01092">
        <ele>125</ele>
        <time>2017-01-14T18:44:44Z</time>
      </trkpt>
      <trkpt lat="48.32551" lon="-4.01092">
        <ele>125</ele>
        <time>2017-01-14T18:46:44Z</time>
      </trkpt>
      <trkpt lat="48.32549" lon="-4.01092">
        <ele>125</ele>
        <time>2017-01-14T18:48:44Z</time>
      </trkpt>
      <trkpt lat="48.32546" lon="-4.0109">
        <ele>124</ele>
        <time>2017-01-14T18:50:44Z</time>
      </trkpt>
      <trkpt lat="48.32546" lon="-4.0109">
        <ele>124</ele>
        <time>2017-01-14T18:52:44Z</time>
      </trkpt>
      <trkpt lat="48.3254" lon="-4.01086">
        <ele>123</ele>
        <time>2017-01-14T18:54:44Z</time>
      </trkpt>
      <trkpt lat="48.32526" lon="-4.01086">
        <ele>123</ele>
        <time>2017-01-14T18:56:44Z</time>
      </trkpt>
      <trkpt lat="48.32504" lon="-4.01086">
        <ele>122</ele>
        <time>2017-01-14T18:58:44Z</time>
      </trkpt>
      <trkpt lat="48.32474" lon="-4.01078">
        <ele>121</ele>
        <time>2017-01-14T19:00:44Z</time>
      </trkpt>
      <trkpt lat="48.32461" lon="-4.01075">
        <ele>121</ele>
        <time>2017-01-14T19:02:44Z</time>
      </trkpt>
      <trkpt lat="48.32459" lon="-4.0107">
        <ele>122</ele>
        <time>2017-01-14T19:04:44Z</time>
      </trkpt>
      <trkpt lat="48.32462" lon="-4.01061">
        <ele>124</ele>
        <time>2017-01-14T19:06:44Z</time>
      </trkpt>
      <trkpt lat="48.32466" lon="-4.01059">
        <ele>125</ele>
        <time>2017-01-14T19:08:44Z</time>
      </trkpt>
      <trkpt lat="48.32459" lon="-4.01064">
        <ele>124</ele>
        <time>2017-01-14T19:10:44Z</time>
      </trkpt>
      <trkpt lat="48.32457" lon="-4.01068">
        <ele>123</ele>
        <time>2017-01-14T19:12:44Z</time>
      </trkpt>
      <trkpt lat="48.32453" lon="-4.0107">
        <ele>122</ele>
        <time>2017-01-14T19:14:44Z</time>
      </trkpt>
      <trkpt lat="48.32457" lon="-4.01079">
        <ele>120</ele>
        <time>2017-01-14T19:16:44Z</time>
      </trkpt>
      <trkpt lat="48.32449" lon="-4.01092">
        <ele>121</ele>
        <time>2017-01-14T19:18:44Z</time>
      </trkpt>
      <trkpt lat="48.32442" lon="-4.01099">
        <ele>122</ele>
        <time>2017-01-14T19:20:44Z</time>
      </trkpt>
      <trkpt lat="48.32396" lon="-4.01124">
        <ele>125</ele>
        <time>2017-01-14T19:22:44Z</time>
      </trkpt>
      <trkpt lat="48.32391" lon="-4.01126">
        <ele>126</ele>
        <time>2017-01-14T19:24:44Z</time>
      </trkpt>
      <trkpt lat="48.32371" lon="-4.01128">
        <ele>126</ele>
        <time>2017-01-14T19:26:44Z</time>
      </trkpt>
      <trkpt lat="48.32366" lon="-4.01126">
        <ele>125</ele>
        <time>2017-01-14T19:28:44Z</time>
      </trkpt>
      <trkpt lat="48.32349" lon="-4.01117">
        <ele>123</ele>
        <time>2017-01-14T19:30:44Z</time>
      </trkpt>
      <trkpt lat="48.32346" lon="-4.01111">
        <ele>122</ele>
        <time>2017-01-14T19:32:44Z</time>
      </trkpt>
      <trkpt lat="48.32342" lon="-4.01108">
        <ele>121</ele>
        <time>2017-01-14T19:34:44Z</time>
      </trkpt>
      <trkpt lat="48.32329" lon="-4.01108">
        <ele>121</ele>
        <time>2017-01-14T19:36:44Z</time>
      </trkpt>
      <trkpt lat="48.32315" lon="-4.01103">
        <ele>122</ele>
        <time>2017-01-14T19:38:44Z</time>
      </trkpt>
      <trkpt lat="48.32281" lon="-4.01081">
        <ele>119</ele>
        <time>2017-01-14T19:40:44Z</time>
      </trkpt>
      <trkpt lat="48.32251" lon="-4.01058">
        <ele>118</ele>
        <time>2017-01-14T19:42:44Z</time>
      </trkpt>
      <trkpt lat="48.32224" lon="-4.01035">
        <ele>122</ele>
        <time>2017-01-14T19:44:44Z</time>
      </trkpt>
      <trkpt lat="48.32209" lon="-4.01011">
        <ele>120</ele>
        <time>2017-01-14T19:46:44Z</time>
      </trkpt>
      <trkpt lat="48.32209" lon="-4.01008">
        <ele>119</ele>
        <time>2017-01-14T19:48:44Z</time>
      </trkpt>
      <trkpt lat="48.32208" lon="-4.01005">
        <ele>118</ele>
        <time>2017-01-14T19:50:44Z</time>
      </trkpt>
      <trkpt lat="48.32182" lon="-4.00978">
        <ele>118</ele>
        <time>2017-01-14T19:52:44Z</time>
      </trkpt>
      <trkpt lat="48.32167" lon="-4.00953">
        <ele>114</ele>
        <time>2017-01-14T19:54:44Z</time>
      </trkpt>
      <trkpt lat="48.32154" lon="-4.00918">
        <ele>109</ele>
        <time>2017-01-14T19:56:44Z</time>
      </trkpt>
      <trkpt lat="48.32149" lon="-4.00909">
        <ele>110</ele>
        <time>2017-01-14T19:58:44Z</time>
      </trkpt>
      <trkpt lat="48.32133" lon="-4.00896">
        <ele>111</ele>
        <time>2017-01-14T20:00:44Z</time>
      </trkpt>
      <trkpt lat="48.32099" lon="-4.00877">
        <ele>113</ele>
        <time>2017-01-14T20:02:44Z</time>
      </trkpt>
      <trkpt lat="48.32051" lon="-4.00874">
        <ele>114</ele>
        <time>2017-01-14T20:04:44Z</time>
      </trkpt>
      <trkpt lat="48.32047" lon="-4.00869">
        <ele>113</ele>
        <time>2017-01-14T20:06:44Z</time>
      </trkpt>
      <trkpt lat="48.32019" lon="-4.00844">
        <ele>108</ele>
        <time>2017-01-14T20:08:44Z</time>
      </trkpt>
      <trkpt lat="48.31986" lon="-4.00841">
        <ele>109</ele>
        <time>2017-01-14T20:10:44Z</time>
      </trkpt>
      <trkpt lat="48.3196" lon="-4.00838">
        <ele>109</ele>
        <time>2017-01-14T20:12:44Z</time>
      </trkpt>
      <trkpt lat="48.31935" lon="-4.00826">
        <ele>109</ele>
        <time>2017-01-14T20:14:44Z</time>
      </trkpt>
      <trkpt lat="48.31915" lon="-4.00813">
        <ele>109</ele>
        <time>2017-01-14T20:16:44Z</time>
      </trkpt>
      <trkpt lat="48.31889" lon="-4.00791">
        <ele>107</ele>
        <time>2017-01-14T20:18:44Z</time>
      </trkpt>
      <trkpt lat="48.31864" lon="-4.00773">
        <ele>106</ele>
        <time>2017-01-14T20:20:44Z</time>
      </trkpt>
      <trkpt lat="48.31852" lon="-4.00729">
        <ele>103</ele>
        <time>2017-01-14T20:22:44Z</time>
      </trkpt>
      <trkpt lat="48.31846" lon="-4.00694">
        <ele>101</ele>
        <time>2017-01-14T20:24:44Z</time>
      </trkpt>
      <trkpt lat="48.31834" lon="-4.00645">
        <ele>99</ele>
        <time>2017-01-14T20:26:44Z</time>
      </trkpt>
      <trkpt lat="48.31832" lon="-4.006">
        <ele>98</ele>
        <time>2017-01-14T20:28:44Z</time>
      </trkpt>
      <trkpt lat="48.31816" lon="-4.00576">
        <ele>96</ele>
        <time>2017-01-14T20:30:44Z</time>
      </trkpt>
      <trkpt lat="48.31812" lon="-4.00544">
        <ele>95</ele>
        <time>2017-01-14T20:32:44Z</time>
      </trkpt>
      <trkpt lat="48.31825" lon="-4.00516">
        <ele>94</ele>
        <time>2017-01-14T20:34:44Z</time>
      </trkpt>
      <trkpt lat="48.31829" lon="-4.0047">
        <ele>93</ele>
        <time>2017-01-14T20:36:44Z</time>
      </trkpt>
      <trkpt lat="48.31816" lon="-4.00452">
        <ele>92</ele>
        <time>2017-01-14T20:38:44Z</time>
      </trkpt>
      <trkpt lat="48.31788" lon="-4.00452">
        <ele>92</ele>
        <time>2017-01-14T20:40:44Z</time>
      </trkpt>
      <trkpt lat="48.31781" lon="-4.00444">
        <ele>92</ele>
        <time>2017-01-14T20:42:44Z</time>
      </trkpt>
      <trkpt lat="48.31768" lon="-4.00408">
        <ele>91</ele>
        <time>2017-01-14T20:44:44Z</time>
      </trkpt>
      <trkpt lat="48.31753" lon="-4.00387">
        <ele>91</ele>
        <time>2017-01-14T20:46:44Z</time>
      </trkpt>
      <trkpt lat="48.31749" lon="-4.0038">
        <ele>90</ele>
        <time>2017-01-14T20:48:44Z</time>
      </trkpt>
      <trkpt lat="48.31751" lon="-4.00339">
        <ele>88</ele>
        <time>2017-01-14T20:50:44Z</time>
      </trkpt>
      <trkpt lat="48.31752" lon="-4.00294">
        <ele>88</ele>
        <time>2017-01-14T20:52:44Z</time>
      </trkpt>
      <trkpt lat="48.31747" lon="-4.00286">
        <ele>87</ele>
        <time>2017-01-14T20:54:44Z</time>
      </trkpt>
      <trkpt lat="48.31738" lon="-4.00283">
        <ele>88</ele>
        <time>2017-01-14T20:56:44Z</time>
      </trkpt>
      <trkpt lat="48.31712" lon="-4.00262">
        <ele>87</ele>
        <time>2017-01-14T20:58:44Z</time>
      </trkpt>
      <trkpt lat="48.3166" lon="-4.00254">
        <ele>87</ele>
        <time>2017-01-14T21:00:44Z</time>
      </trkpt>
      <trkpt lat="48.31654" lon="-4.00243">
        <ele>87</ele>
        <time>2017-01-14T21:02:44Z</time>
      </trkpt>
      <trkpt lat="48.31627" lon="-4.00215">
        <ele>85</ele>
        <time>2017-01-14T21:04:44Z</time>
      </trkpt>
      <trkpt lat="48.31606" lon="-4.00203">
        <ele>85</ele>
        <time>2017-01-14T21:06:44Z</time>
      </trkpt>
      <trkpt lat="48.31592" lon="-4.00183">
        <ele>84</ele>
        <time>2017-01-14T21:08:44Z</time>
      </trkpt>
      <trkpt lat="48.31552" lon="-4.00134">
        <ele>86</ele>
        <time>2017-01-14T21:10:44Z</time>
      </trkpt>
      <trkpt lat="48.3154" lon="-4.00121">
        <ele>86</ele>
        <time>2017-01-14T21:12:44Z</time>
      </trkpt>
      <trkpt lat="48.31529" lon="-4.001">
        <ele>86</ele>
        <time>2017-01-14T21:14:44Z</time>
      </trkpt>
      <trkpt lat="48.31513" lon="-4.00079">
        <ele>87</ele>
        <time>2017-01-14T21:16:44Z</time>
      </trkpt>
      <trkpt lat="48.31496" lon="-4.00056">
        <ele>89</ele>
        <time>2017-01-14T21:18:44Z</time>
      </trkpt>
      <trkpt lat="48.31474" lon="-4.00028">
        <ele>90</ele>
        <time>2017-01-14T21:20:44Z</time>
      </trkpt>
      <trkpt lat="48.3144" lon="-4.00014">
        <ele>88</ele>
        <time>2017-01-14T21:22:44Z</time>
      </trkpt>
      <trkpt lat="48.31435" lon="-4.00012">
        <ele>88</ele>
        <time>2017-01-14T21:24:44Z</time>
      </trkpt>
      <trkpt lat="48.31441" lon="-4.00009">
        <ele>88</ele>
        <time>2017-01-14T21:26:44Z</time>
      </trkpt>
      <trkpt lat="48.31446" lon="-4.00006">
        <ele>89</ele>
        <time>2017-01-14T21:28:44Z</time>
      </trkpt>
      <trkpt lat="48.31441" lon="-4.00012">
        <ele>88</ele>
        <time>2017-01-14T21:30:44Z</time>
      </trkpt>
      <trkpt lat="48.31435" lon="-4.00017">
        <ele>88</ele>
        <time>2017-01-14T21:32:44Z</time>
      </trkpt>
      <trkpt lat="48.31431" lon="-4.00014">
        <ele>87</ele>
        <time>2017-01-14T21:34:44Z</time>
      </trkpt>
      <trkpt lat="48.31427" lon="-4.00012">
        <ele>87</ele>
        <time>2017-01-14T21:36:44Z</time>
      </trkpt>
      <trkpt lat="48.31421" lon="-4.00004">
        <ele>86</ele>
        <time>2017-01-14T21:38:44Z</time>
      </trkpt>
      <trkpt lat="48.31401" lon="-3.9999">
        <ele>87</ele>
        <time>2017-01-14T21:40:44Z</time>
      </trkpt>
      <trkpt lat="48.31385" lon="-3.99973">
        <ele>87</ele>
        <time>2017-01-14T21:42:44Z</time>
      </trkpt>
      <trkpt lat="48.31386" lon="-3.99963">
        <ele>88</ele>
        <time>2017-01-14T21:44:44Z</time>
      </trkpt>
      <trkpt lat="48.31381" lon="-3.99956">
        <ele>88</ele>
        <time>2017-01-14T21:46:44Z</time>
      </trkpt>
      <trkpt lat="48.31367" lon="-3.99952">
        <ele>87</ele>
        <time>2017-01-14T21:48:44Z</time>
      </trkpt>
      <trkpt lat="48.31333" lon="-3.99967">
        <ele>84</ele>
        <time>2017-01-14T21:50:44Z</time>
      </trkpt>
      <trkpt lat="48.31314" lon="-3.99994">
        <ele>82</ele>
        <time>2017-01-14T21:52:44Z</time>
      </trkpt>
      <trkpt lat="48.31308" lon="-4.00003">
        <ele>82</ele>
        <time>2017-01-14T21:54:44Z</time>
      </trkpt>
      <trkpt lat="48.31287" lon="-4.00008">
        <ele>81</ele>
        <time>2017-01-14T21:56:44Z</time>
      </trkpt>
      <trkpt lat="48.31268" lon="-3.99986">
        <ele>81</ele>
        <time>2017-01-14T21:58:44Z</time>
      </trkpt>
      <trkpt lat="48.31258" lon="-3.99967">
        <ele>83</ele>
        <time>2017-01-14T22:00:44Z</time>
      </trkpt>
      <trkpt lat="48.31242" lon="-3.99957">
        <ele>84</ele>
        <time>2017-01-14T22:02:44Z</time>
      </trkpt>
      <trkpt lat="48.31234" lon="-3.99958">
        <ele>85</ele>
        <time>2017-01-14T22:04:44Z</time>
      </trkpt>
      <trkpt lat="48.31208" lon="-3.99967">
        <ele>85</ele>
        <time>2017-01-14T22:06:44Z</time>
      </trkpt>
      <trkpt lat="48.31184" lon="-3.99981">
        <ele>83</ele>
        <time>2017-01-14T22:08:44Z</time>
      </trkpt>
      <trkpt lat="48.31178" lon="-3.99986">
        <ele>82</ele>
        <time>2017-01-14T22:10:44Z</time>
      </trkpt>
      <trkpt lat="48.31176" lon="-3.99992">
        <ele>81</ele>
        <time>2017-01-14T22:12:44Z</time>
      </trkpt>
      <trkpt lat="48.31171" lon="-3.99996">
        <ele>80</ele>
        <time>2017-01-14T22:14:44Z</time>
      </trkpt>
      <trkpt lat="48.31149" lon="-4">
        <ele>79</ele>
        <time>2017-01-14T22:16:44Z</time>
      </trkpt>
      <trkpt lat="48.31074" lon="-4.00045">
        <ele>76</ele>
        <time>2017-01-14T22:18:44Z</time>
      </trkpt>
      <trkpt lat="48.31029" lon="-4.00082">
        <ele>72</ele>
        <time>2017-01-14T22:20:44Z</time>
      </trkpt>
      <trkpt lat="48.31027" lon="-4.0009">
        <ele>72</ele>
        <time>2017-01-14T22:22:44Z</time>
      </trkpt>
      <trkpt lat="48.31025" lon="-4.00104">
        <ele>73</ele>
        <time>2017-01-14T22:24:44Z</time>
      </trkpt>
      <trkpt lat="48.31014" lon="-4.00154">
        <ele>73</ele>
        <time>2017-01-14T22:26:44Z</time>
      </trkpt>
      <trkpt lat="48.31005" lon="-4.002">
        <ele>73</ele>
        <time>2017-01-14T22:28:44Z</time>
      </trkpt>
      <trkpt lat="48.31005" lon="-4.00245">
        <ele>75</ele>
        <time>2017-01-14T22:30:44Z</time>
      </trkpt>
      <trkpt lat="48.31008" lon="-4.00287">
        <ele>80</ele>
        <time>2017-01-14T22:32:44Z</time>
      </trkpt>
      <trkpt lat="48.3099" lon="-4.00328">
        <ele>85</ele>
        <time>2017-01-14T22:34:44Z</time>
      </trkpt>
      <trkpt lat="48.30959" lon="-4.00343">
        <ele>84</ele>
        <time>2017-01-14T22:36:44Z</time>
      </trkpt>
      <trkpt lat="48.3094" lon="-4.00363">
        <ele>85</ele>
        <time>2017-01-14T22:38:44Z</time>
      </trkpt>
      <trkpt lat="48.30934" lon="-4.00379">
        <ele>86</ele>
        <time>2017-01-14T22:40:44Z</time>
      </trkpt>
      <trkpt lat="48.30934" lon="-4.00381">
        <ele>86</ele>
        <time>2017-01-14T22:42:44Z</time>
      </trkpt>
      <trkpt lat="48.30931" lon="-4.00413">
        <ele>88</ele>
        <time>2017-01-14T22:44:44Z</time>
      </trkpt>
      <trkpt lat="48.3092" lon="-4.00419">
        <ele>87</ele>
        <time>2017-01-14T22:46:44Z</time>
      </trkpt>
      <trkpt lat="48.30903" lon="-4.00402">
        <ele>85</ele>
        <time>2017-01-14T22:48:44Z</time>
      </trkpt>
      <trkpt lat="48.30903" lon="-4.00401">
        <ele>85</ele>
        <time>2017-01-14T22:50:44Z</time>
      </trkpt>
      <trkpt lat="48.30897" lon="-4.00395">
        <ele>84</ele>
        <time>2017-01-14T22:52:44Z</time>
      </trkpt>
      <trkpt lat="48.30871" lon="-4.00376">
        <ele>80</ele>
        <time>2017-01-14T22:54:44Z</time>
      </trkpt>
      <trkpt lat="48.3085" lon="-4.0036">
        <ele>77</ele>
        <time>2017-01-14T22:56:44Z</time>
      </trkpt>
      <trkpt lat="48.30823" lon="-4.0034">
        <ele>75</ele>
        <time>2017-01-14T22:58:44Z</time>
      </trkpt>
      <trkpt lat="48.30802" lon="-4.00327">
        <ele>75</ele>
        <time>2017-01-14T23:00:44Z</time>
      </trkpt>
      <trkpt lat="48.30765" lon="-4.00314">
        <ele>76</ele>
        <time>2017-01-14T23:02:44Z</time>
      </trkpt>
      <trkpt lat="48.30736" lon="-4.00297">
        <ele>75</ele>
        <time>2017-01-14T23:04:44Z</time>
      </trkpt>
      <trkpt lat="48.30714" lon="-4.00272">
        <ele>73</ele>
        <time>2017-01-14T23:06:44Z</time>
      </trkpt>
      <trkpt lat="48.30682" lon="-4.0027">
        <ele>73</ele>
        <time>2017-01-14T23:08:44Z</time>
      </trkpt>
      <trkpt lat="48.30668" lon="-4.00276">
        <ele>74</ele>
        <time>2017-01-14T23:10:44Z</time>
      </trkpt>
      <trkpt lat="48.30663" lon="-4.00276">
        <ele>74</ele>
        <time>2017-01-14T23:12:44Z</time>
      </trkpt>
      <trkpt lat="48.30614" lon="-4.00289">
        <ele>73</ele>
        <time>2017-01-14T23:14:44Z</time>
      </trkpt>
      <trkpt lat="48.30584" lon="-4.00301">
        <ele>73</ele>
        <time>2017-01-14T23:16:44Z</time>
      </trkpt>
      <trkpt lat="48.30579" lon="-4.00305">
        <ele>73</ele>
        <time>2017-01-14T23:18:44Z</time>
      </trkpt>
      <trkpt lat="48.3058" lon="-4.00305">
        <ele>73</ele>
        <time>2017-01-14T23:20:44Z</time>
      </trkpt>
      <trkpt lat="48.30576" lon="-4.00305">
        <ele>73</ele>
        <time>2017-01-14T23:22:44Z</time>
      </trkpt>
      <trkpt lat="48.30578" lon="-4.00306">
        <ele>73</ele>
        <time>2017-01-14T23:24:44Z</time>
      </trkpt>
      <trkpt lat="48.30579" lon="-4.00306">
        <ele>73</ele>
        <time>2017-01-14T23:26:44Z</time>
      </trkpt>
      <trkpt lat="48.30579" lon="-4.00306">
        <ele>73</ele>
        <time>2017-01-14T23:28:44Z</time>
      </trkpt>
      <trkpt lat="48.30578" lon="-4.00304">
        <ele>73</ele>
        <time>2017-01-14T23:30:44Z</time>
      </trkpt>
      <trkpt lat="48.30564" lon="-4.00314">
        <ele>73</ele>
        <time>2017-01-14T23:32:44Z</time>
      </trkpt>
      <trkpt lat="48.30532" lon="-4.0032">
        <ele>72</ele>
        <time>2017-01-14T23:34:44Z</time>
      </trkpt>
      <trkpt lat="48.30504" lon="-4.00331">
        <ele>71</ele>
        <time>2017-01-14T23:36:44Z</time>
      </trkpt>
      <trkpt lat="48.30479" lon="-4.00339">
        <ele>70</ele>
        <time>2017-01-14T23:38:44Z</time>
      </trkpt>
      <trkpt lat="48.30452" lon="-4.00351">
        <ele>69</ele>
        <time>2017-01-14T23:40:44Z</time>
      </trkpt>
      <trkpt lat="48.30423" lon="-4.00359">
        <ele>67</ele>
        <time>2017-01-14T23:42:44Z</time>
      </trkpt>
      <trkpt lat="48.30397" lon="-4.00361">
        <ele>66</ele>
        <time>2017-01-14T23:44:44Z</time>
      </trkpt>
      <trkpt lat="48.30369" lon="-4.00362">
        <ele>65</ele>
        <time>2017-01-14T23:46:44Z</time>
      </trkpt>
      <trkpt lat="48.30333" lon="-4.00363">
        <ele>63</ele>
        <time>2017-01-14T23:48:44Z</time>
      </trkpt>
      <trkpt lat="48.30302" lon="-4.00362">
        <ele>64</ele>
        <time>2017-01-14T23:50:44Z</time>
      </trkpt>
      <trkpt lat="48.30275" lon="-4.00365">
        <ele>64</ele>
        <time>2017-01-14T23:52:44Z</time>
      </trkpt>
      <trkpt lat="48.30245" lon="-4.00362">
        <ele>64</ele>
        <time>2017-01-14T23:54:44Z</time>
      </trkpt>
      <trkpt lat="48.30215" lon="-4.00354">
        <ele>64</ele>
        <time>2017-01-14T23:56:44Z</time>
      </trkpt>
      <trkpt lat="48.30185" lon="-4.00348">
        <ele>64</ele>
        <time>2017-01-14T23:58:44Z</time>
      </trkpt>
      <trkpt lat="48.30152" lon="-4.00358">
        <ele>66</ele>
        <time>2017-01-15T00:00:44Z</time>
      </trkpt>
      <trkpt lat="48.30132" lon="-4.00364">
        <ele>68</ele>
        <time>2017-01-15T00:02:44Z</time>
      </trkpt>
      <trkpt lat="48.3012" lon="-4.00358">
        <ele>69</ele>
        <time>2017-01-15T00:04:44Z</time>
      </trkpt>
      <trkpt lat="48.30102" lon="-4.00338">
        <ele>70</ele>
        <time>2017-01-15T00:06:44Z</time>
      </trkpt>
      <trkpt lat="48.30085" lon="-4.00306">
        <ele>68</ele>
        <time>2017-01-15T00:08:44Z</time>
      </trkpt>
      <trkpt lat="48.30065" lon="-4.00276">
        <ele>65</ele>
        <time>2017-01-15T00:10:44Z</time>
      </trkpt>
      <trkpt lat="48.30038" lon="-4.00258">
        <ele>64</ele>
        <time>2017-01-15T00:12:44Z</time>
      </trkpt>
      <trkpt lat="48.30034" lon="-4.00257">
        <ele>64</ele>
        <time>2017-01-15T00:14:44Z</time>
      </trkpt>
      <trkpt lat="48.30023" lon="-4.00238">
        <ele>64</ele>
        <time>2017-01-15T00:16:44Z</time>
      </trkpt>
      <trkpt lat="48.30019" lon="-4.00164">
        <ele>62</ele>
        <time>2017-01-15T00:18:44Z</time>
      </trkpt>
      <trkpt lat="48.30017" lon="-4.00131">
        <ele>62</ele>
        <time>2017-01-15T00:20:44Z</time>
      </trkpt>
      <trkpt lat="48.30022" lon="-4.00111">
        <ele>62</ele>
        <time>2017-01-15T00:22:44Z</time>
      </trkpt>
      <trkpt lat="48.30023" lon="-4.00105">
        <ele>62</ele>
        <time>2017-01-15T00:24:44Z</time>
      </trkpt>
      <trkpt lat="48.30023" lon="-4.00068">
        <ele>62</ele>
        <time>2017-01-15T00:26:44Z</time>
      </trkpt>
      <trkpt lat="48.30024" lon="-4.00042">
        <ele>63</ele>
        <time>2017-01-15T00:28:44Z</time>
      </trkpt>
      <trkpt lat="48.30024" lon="-4.00042">
        <ele>63</ele>
        <time>2017-01-15T00:30:44Z</time>
      </trkpt>
      <trkpt lat="48.30025" lon="-4.00036">
        <ele>63</ele>
        <time>2017-01-15T00:32:44Z</time>
      </trkpt>
      <trkpt lat="48.30022" lon="-4.00029">
        <ele>64</ele>
        <time>2017-01-15T00:34:44Z</time>
      </trkpt>
      <trkpt lat="48.30021" lon="-4.00024">
        <ele>64</ele>
        <time>2017-01-15T00:36:44Z</time>
      </trkpt>
      <trkpt lat="48.30022" lon="-4.00022">
        <ele>64</ele>
        <time>2017-01-15T00:38:44Z</time>
      </trkpt>
      <trkpt lat="48.30025" lon="-4.00019">
        <ele>64</ele>
        <time>2017-01-15T00:40:44Z</time>
      </trkpt>
      <trkpt lat="48.30035" lon="-4.00017">
        <ele>64</ele>
        <time>2017-01-15T00:42:44Z</time>
      </trkpt>
      <trkpt lat="48.30038" lon="-4.00017">
        <ele>64</ele>
        <time>2017-01-15T00:44:44Z</time>
      </trkpt>
      <trkpt lat="48.30063" lon="-4.00029">
        <ele>63</ele>
        <time>2017-01-15T00:46:44Z</time>
      </trkpt>
      <trkpt lat="48.3006" lon="-4.0003">
        <ele>63</ele>
        <time>2017-01-15T00:48:44Z</time>
      </trkpt>
      <trkpt lat="48.30051" lon="-4.0002">
        <ele>64</ele>
        <time>2017-01-15T00:50:44Z</time>
      </trkpt>
      <trkpt lat="48.30054" lon="-4.00023">
        <ele>64</ele>
        <time>2017-01-15T00:52:44Z</time>
      </trkpt>
      <trkpt lat="48.30083" lon="-4.00034">
        <ele>63</ele>
        <time>2017-01-15T00:54:44Z</time>
      </trkpt>
      <trkpt lat="48.30089" lon="-4.00025">
        <ele>63</ele>
        <time>2017-01-15T00:56:44Z</time>
      </trkpt>
      <trkpt lat="48.30106" lon="-3.9999">
        <ele>64</ele>
        <time>2017-01-15T00:58:44Z</time>
      </trkpt>
      <trkpt lat="48.30116" lon="-3.9996">
        <ele>65</ele>
        <time>2017-01-15T01:00:44Z</time>
      </trkpt>
      <trkpt lat="48.30123" lon="-3.99933">
        <ele>66</ele>
        <time>2017-01-15T01:02:44Z</time>
      </trkpt>
      <trkpt lat="48.30124" lon="-3.99932">
        <ele>66</ele>
        <time>2017-01-15T01:04:44Z</time>
      </trkpt>
      <trkpt lat="48.30138" lon="-3.9992">
        <ele>66</ele>
        <time>2017-01-15T01:06:44Z</time>
      </trkpt>
      <trkpt lat="48.30145" lon="-3.99908">
        <ele>67</ele>
        <time>2017-01-15T01:08:44Z</time>
      </trkpt>
      <trkpt lat="48.30148" lon="-3.99901">
        <ele>67</ele>
        <time>2017-01-15T01:10:44Z</time>
      </trkpt>
      <trkpt lat="48.30162" lon="-3.99868">
        <ele>67</ele>
        <time>2017-01-15T01:12:44Z</time>
      </trkpt>
      <trkpt lat="48.30167" lon="-3.99854">
        <ele>68</ele>
        <time>2017-01-15T01:14:44Z</time>
      </trkpt>
      <trkpt lat="48.30178" lon="-3.99816">
        <ele>69</ele>
        <time>2017-01-15T01:16:44Z</time>
      </trkpt>
      <trkpt lat="48.30191" lon="-3.99788">
        <ele>70</ele>
        <time>2017-01-15T01:18:44Z</time>
      </trkpt>
      <trkpt lat="48.30206" lon="-3.9976">
        <ele>72</ele>
        <time>2017-01-15T01:20:44Z</time>
      </trkpt>
      <trkpt lat="48.3022" lon="-3.99748">
        <ele>74</ele>
        <time>2017-01-15T01:22:44Z</time>
      </trkpt>
      <trkpt lat="48.30228" lon="-3.99741">
        <ele>75</ele>
        <time>2017-01-15T01:24:44Z</time>
      </trkpt>
      <trkpt lat="48.30246" lon="-3.99715">
        <ele>78</ele>
        <time>2017-01-15T01:26:44Z</time>
      </trkpt>
      <trkpt lat="48.30264" lon="-3.99702">
        <ele>80</ele>
        <time>2017-01-15T01:28:44Z</time>
      </trkpt>
      <trkpt lat="48.30285" lon="-3.99673">
        <ele>84</ele>
        <time>2017-01-15T01:30:44Z</time>
      </trkpt>
      <trkpt lat="48.30291" lon="-3.99666">
        <ele>85</ele>
        <time>2017-01-15T01:32:44Z</time>
      </trkpt>
      <trkpt lat="48.30331" lon="-3.99619">
        <ele>92</ele>
        <time>2017-01-15T01:34:44Z</time>
      </trkpt>
      <trkpt lat="48.30344" lon="-3.99605">
        <ele>95</ele>
        <time>2017-01-15T01:36:44Z</time>
      </trkpt>
      <trkpt lat="48.30367" lon="-3.99597">
        <ele>98</ele>
        <time>2017-01-15T01:38:44Z</time>
      </trkpt>
      <trkpt lat="48.30382" lon="-3.99585">
        <ele>101</ele>
        <time>2017-01-15T01:40:44Z</time>
      </trkpt>
      <trkpt lat="48.30388" lon="-3.99576">
        <ele>102</ele>
        <time>2017-01-15T01:42:44Z</time>
      </trkpt>
      <trkpt lat="48.30403" lon="-3.99554">
        <ele>105</ele>
        <time>2017-01-15T01:44:44Z</time>
      </trkpt>
      <trkpt lat="48.30417" lon="-3.9953">
        <ele>109</ele>
        <time>2017-01-15T01:46:44Z</time>
      </trkpt>
      <trkpt lat="48.30438" lon="-3.9949">
        <ele>111</ele>
        <time>2017-01-15T01:48:44Z</time>
      </trkpt>
      <trkpt lat="48.30448" lon="-3.99477">
        <ele>112</ele>
        <time>2017-01-15T01:50:44Z</time>
      </trkpt>
      <trkpt lat="48.30457" lon="-3.9946">
        <ele>113</ele>
        <time>2017-01-15T01:52:44Z</time>
      </trkpt>
      <trkpt lat="48.3047" lon="-3.99437">
        <ele>116</ele>
        <time>2017-01-15T01:54:44Z</time>
      </trkpt>
      <trkpt lat="48.30483" lon="-3.99411">
        <ele>119</ele>
        <time>2017-01-15T01:56:44Z</time>
      </trkpt>
      <trkpt lat="48.30498" lon="-3.9939">
        <ele>123</ele>
        <time>2017-01-15T01:58:44Z</time>
      </trkpt>
      <trkpt lat="48.30513" lon="-3.99367">
        <ele>126</ele>
        <time>2017-01-15T02:00:44Z</time>
      </trkpt>
      <trkpt lat="48.3052" lon="-3.9935">
        <ele>129</ele>
        <time>2017-01-15T02:02:44Z</time>
      </trkpt>
      <trkpt lat="48.30535" lon="-3.99328">
        <ele>133</ele>
        <time>2017-01-15T02:04:44Z</time>
      </trkpt>
      <trkpt lat="48.30547" lon="-3.99304">
        <ele>135</ele>
        <time>2017-01-15T02:06:44Z</time>
      </trkpt>
      <trkpt lat="48.30558" lon="-3.99285">
        <ele>137</ele>
        <time>2017-01-15T02:08:44Z</time>
      </trkpt>
      <trkpt lat="48.30584" lon="-3.99244">
        <ele>142</ele>
        <time>2017-01-15T02:10:44Z</time>
      </trkpt>
      <trkpt lat="48.30585" lon="-3.99243">
        <ele>142</ele>
        <time>2017-01-15T02:12:44Z</time>
      </trkpt>
      <trkpt lat="48.30591" lon="-3.9923">
        <ele>142</ele>
        <time>2017-01-15T02:14:44Z</time>
      </trkpt>
      <trkpt lat="48.30604" lon="-3.99202">
        <ele>142</ele>
        <time>2017-01-15T02:16:44Z</time>
      </trkpt>
      <trkpt lat="48.3063" lon="-3.99153">
        <ele>144</ele>
        <time>2017-01-15T02:18:44Z</time>
      </trkpt>
      <trkpt lat="48.30644" lon="-3.99111">
        <ele>145</ele>
        <time>2017-01-15T02:20:44Z</time>
      </trkpt>
      <trkpt lat="48.30649" lon="-3.99087">
        <ele>146</ele>
        <time>2017-01-15T02:22:44Z</time>
      </trkpt>
      <trkpt lat="48.30663" lon="-3.99056">
        <ele>147</ele>
        <time>2017-01-15T02:24:44Z</time>
      </trkpt>
      <trkpt lat="48.30685" lon="-3.99034">
        <ele>147</ele>
        <time>2017-01-15T02:26:44Z</time>
      </trkpt>
      <trkpt lat="48.30735" lon="-3.99013">
        <ele>147</ele>
        <time>2017-01-15T02:28:44Z</time>
      </trkpt>
      <trkpt lat="48.3076" lon="-3.99004">
        <ele>146</ele>
        <time>2017-01-15T02:30:44Z</time>
      </trkpt>
      <trkpt lat="48.30781" lon="-3.98995">
        <ele>145</ele>
        <time>2017-01-15T02:32:44Z</time>
      </trkpt>
      <trkpt lat="48.30803" lon="-3.98968">
        <ele>144</ele>
        <time>2017-01-15T02:34:44Z</time>
      </trkpt>
      <trkpt lat="48.30828" lon="-3.98936">
        <ele>143</ele>
        <time>2017-01-15T02:36:44Z</time>
      </trkpt>
      <trkpt lat="48.30889" lon="-3.98879">
        <ele>148</ele>
        <time>2017-01-15T02:38:44Z</time>
      </trkpt>
      <trkpt lat="48.309" lon="-3.9885">
        <ele>148</ele>
        <time>2017-01-15T02:40:44Z</time>
      </trkpt>
      <trkpt lat="48.30932" lon="-3.98808">
        <ele>151</ele>
        <time>2017-01-15T02:42:44Z</time>
      </trkpt>
      <trkpt lat="48.30954" lon="-3.9875">
        <ele>152</ele>
        <time>2017-01-15T02:44:44Z</time>
      </trkpt>
      <trkpt lat="48.30963" lon="-3.98733">
        <ele>153</ele>
        <time>2017-01-15T02:46:44Z</time>
      </trkpt>
      <trkpt lat="48.3099" lon="-3.98677">
        <ele>157</ele>
        <time>2017-01-15T02:48:44Z</time>
      </trkpt>
      <trkpt lat="48.31004" lon="-3.98653">
        <ele>160</ele>
        <time>2017-01-15T02:50:44Z</time>
      </trkpt>
      <trkpt lat="48.3102" lon="-3.98631">
        <ele>162</ele>
        <time>2017-01-15T02:52:44Z</time>
      </trkpt>
      <trkpt lat="48.31033" lon="-3.9861">
        <ele>163</ele>
        <time>2017-01-15T02:54:44Z</time>
      </trkpt>
      <trkpt lat="48.31062" lon="-3.98561">
        <ele>164</ele>
        <time>2017-01-15T02:56:44Z</time>
      </trkpt>
      <trkpt lat="48.31099" lon="-3.98486">
        <ele>162</ele>
        <time>2017-01-15T02:58:44Z</time>
      </trkpt>
      <trkpt lat="48.31103" lon="-3.98477">
        <ele>161</ele>
        <time>2017-01-15T03:00:44Z</time>
      </trkpt>
      <trkpt lat="48.31108" lon="-3.98455">
        <ele>160</ele>
        <time>2017-01-15T03:02:44Z</time>
      </trkpt>
      <trkpt lat="48.31108" lon="-3.9845">
        <ele>160</ele>
        <time>2017-01-15T03:04:44Z</time>
      </trkpt>
      <trkpt lat="48.31106" lon="-3.98444">
        <ele>159</ele>
        <time>2017-01-15T03:06:44Z</time>
      </trkpt>
      <trkpt lat="48.31097" lon="-3.98443">
        <ele>159</ele>
        <time>2017-01-15T03:08:44Z</time>
      </trkpt>
      <trkpt lat="48.31069" lon="-3.98438">
        <ele>158</ele>
        <time>2017-01-15T03:10:44Z</time>
      </trkpt>
      <trkpt lat="48.31042" lon="-3.98426">
        <ele>156</ele>
        <time>2017-01-15T03:12:44Z</time>
      </trkpt>
      <trkpt lat="48.3101" lon="-3.98414">
        <ele>154</ele>
        <time>2017-01-15T03:14:44Z</time>
      </trkpt>
      <trkpt lat="48.3099" lon="-3.98414">
        <ele>153</ele>
        <time>2017-01-15T03:16:44Z</time>
      </trkpt>
      <trkpt lat="48.30979" lon="-3.98412">
        <ele>152</ele>
        <time>2017-01-15T03:18:44Z</time>
      </trkpt>
      <trkpt lat="48.30977" lon="-3.98412">
        <ele>152</ele>
        <time>2017-01-15T03:20:44Z</time>
      </trkpt>
      <trkpt lat="48.30956" lon="-3.98407">
        <ele>150</ele>
        <time>2017-01-15T03:22:44Z</time>
      </trkpt>
      <trkpt lat="48.30939" lon="-3.9841">
        <ele>148</ele>
        <time>2017-01-15T03:24:44Z</time>
      </trkpt>
      <trkpt lat="48.30911" lon="-3.98405">
        <ele>145</ele>
        <time>2017-01-15T03:26:44Z</time>
      </trkpt>
      <trkpt lat="48.30889" lon="-3.98411">
        <ele>141</ele>
        <time>2017-01-15T03:28:44Z</time>
      </trkpt>
      <trkpt lat="48.30881" lon="-3.9841">
        <ele>139</ele>
        <time>2017-01-15T03:30:44Z</time>
      </trkpt>
      <trkpt lat="48.30872" lon="-3.9841">
        <ele>137</ele>
        <time>2017-01-15T03:32:44Z</time>
      </trkpt>
      <trkpt lat="48.30873" lon="-3.98411">
        <ele>138</ele>
        <time>2017-01-15T03:34:44Z</time>
      </trkpt>
      <trkpt lat="48.30874" lon="-3.9841">
        <ele>138</ele>
        <time>2017-01-15T03:36:44Z</time>
      </trkpt>
      <trkpt lat="48.30874" lon="-3.98411">
        <ele>138</ele>
        <time>2017-01-15T03:38:44Z</time>
      </trkpt>
      <trkpt lat="48.30874" lon="-3.9841">
        <ele>138</ele>
        <time>2017-01-15T03:40:44Z</time>
      </trkpt>
      <trkpt lat="48.30876" lon="-3.98413">
        <ele>138</ele>
        <time>2017-01-15T03:42:44Z</time>
      </trkpt>
      <trkpt lat="48.30876" lon="-3.98412">
        <ele>138</ele>
        <time>2017-01-15T03:44:44Z</time>
      </trkpt>
      <trkpt lat="48.30875" lon="-3.98413">
        <ele>138</ele>
        <time>2017-01-15T03:46:44Z</time>
      </trkpt>
      <trkpt lat="48.30875" lon="-3.98414">
        <ele>138</ele>
        <time>2017-01-15T03:48:44Z</time>
      </trkpt>
      <trkpt lat="48.30876" lon="-3.98415">
        <ele>138</ele>
        <time>2017-01-15T03:50:44Z</time>
      </trkpt>
      <trkpt lat="48.30876" lon="-3.98414">
        <ele>138</ele>
        <time>2017-01-15T03:52:44Z</time>
      </trkpt>
      <trkpt lat="48.30875" lon="-3.98414">
        <ele>138</ele>
        <time>2017-01-15T03:54:44Z</time>
      </trkpt>
      <trkpt lat="48.30875" lon="-3.98414">
        <ele>138</ele>
        <time>2017-01-15T03:56:44Z</time>
      </trkpt>
      <trkpt lat="48.30876" lon="-3.98411">
        <ele>138</ele>
        <time>2017-01-15T03:58:44Z</time>
      </trkpt>
      <trkpt lat="48.30874" lon="-3.98411">
        <ele>138</ele>
        <time>2017-01-15T04:00:44Z</time>
      </trkpt>
      <trkpt lat="48.30881" lon="-3.98411">
        <ele>139</ele>
        <time>2017-01-15T04:02:44Z</time>
      </trkpt>
      <trkpt lat="48.30883" lon="-3.98412">
        <ele>140</ele>
        <time>2017-01-15T04:04:44Z</time>
      </trkpt>
      <trkpt lat="48.30883" lon="-3.98413">
        <ele>140</ele>
        <time>2017-01-15T04:06:44Z</time>
      </trkpt>
      <trkpt lat="48.30882" lon="-3.98411">
        <ele>139</ele>
        <time>2017-01-15T04:08:44Z</time>
      </trkpt>
      <trkpt lat="48.30882" lon="-3.98412">
        <ele>139</ele>
        <time>2017-01-15T04:10:44Z</time>
      </trkpt>
      <trkpt lat="48.30883" lon="-3.98412">
        <ele>140</ele>
        <time>2017-01-15T04:12:44Z</time>
      </trkpt>
      <trkpt lat="48.30882" lon="-3.98413">
        <ele>139</ele>
        <time>2017-01-15T04:14:44Z</time>
      </trkpt>
      <trkpt lat="48.30882" lon="-3.98414">
        <ele>139</ele>
        <time>2017-01-15T04:16:44Z</time>
      </trkpt>
      <trkpt lat="48.30882" lon="-3.98414">
        <ele>139</ele>
        <time>2017-01-15T04:18:44Z</time>
      </trkpt>
      <trkpt lat="48.30882" lon="-3.98414">
        <ele>139</ele>
        <time>2017-01-15T04:20:44Z</time>
      </trkpt>
      <trkpt lat="48.30881" lon="-3.98414">
        <ele>139</ele>
        <time>2017-01-15T04:22:44Z</time>
      </trkpt>
      <trkpt lat="48.30881" lon="-3.98416">
        <ele>139</ele>
        <time>2017-01-15T04:24:44Z</time>
      </trkpt>
      <trkpt lat="48.30882" lon="-3.98416">
        <ele>139</ele>
        <time>2017-01-15T04:26:44Z</time>
      </trkpt>
      <trkpt lat="48.30882" lon="-3.98414">
        <ele>139</ele>
        <time>2017-01-15T04:28:44Z</time>
      </trkpt>
      <trkpt lat="48.30882" lon="-3.98415">
        <ele>139</ele>
        <time>2017-01-15T04:30:44Z</time>
      </trkpt>
      <trkpt lat="48.30882" lon="-3.98415">
        <ele>139</ele>
        <time>2017-01-15T04:32:44Z</time>
      </trkpt>
      <trkpt lat="48.30882" lon="-3.98415">
        <ele>139</ele>
        <time>2017-01-15T04:34:44Z</time>
      </trkpt>
      <trkpt lat="48.30883" lon="-3.98414">
        <ele>140</ele>
        <time>2017-01-15T04:36:44Z</time>
      </trkpt>
      <trkpt lat="48.30884" lon="-3.98414">
        <ele>140</ele>
        <time>2017-01-15T04:38:44Z</time>
      </trkpt>
      <trkpt lat="48.30884" lon="-3.98415">
        <ele>140</ele>
        <time>2017-01-15T04:40:44Z</time>
      </trkpt>
      <trkpt lat="48.30884" lon="-3.98415">
        <ele>140</ele>
        <time>2017-01-15T04:42:44Z</time>
      </trkpt>
      <trkpt lat="48.30884" lon="-3.98414">
        <ele>140</ele>
        <time>2017-01-15T04:44:44Z</time>
      </trkpt>
      <trkpt lat="48.30884" lon="-3.98415">
        <ele>140</ele>
        <time>2017-01-15T04:46:44Z</time>
      </trkpt>
      <trkpt lat="48.30883" lon="-3.98414">
        <ele>140</ele>
        <time>2017-01-15T04:48:44Z</time>
      </trkpt>
      <trkpt lat="48.30883" lon="-3.98414">
        <ele>140</ele>
        <time>2017-01-15T04:50:44Z</time>
      </trkpt>
      <trkpt lat="48.30884" lon="-3.98414">
        <ele>140</ele>
        <time>2017-01-15T04:52:44Z</time>
      </trkpt>
      <trkpt lat="48.30884" lon="-3.98414">
        <ele>140</ele>
        <time>2017-01-15T04:54:44Z</time>
      </trkpt>
      <trkpt lat="48.30884" lon="-3.98414">
        <ele>140</ele>
        <time>2017-01-15T04:56:44Z</time>
      </trkpt>
      <trkpt lat="48.30884" lon="-3.98413">
        <ele>140</ele>
        <time>2017-01-15T04:58:44Z</time>
      </trkpt>
      <trkpt lat="48.30884" lon="-3.98414">
        <ele>140</ele>
        <time>2017-01-15T05:00:44Z</time>
      </trkpt>
      <trkpt lat="48.30884" lon="-3.98414">
        <ele>140</ele>
        <time>2017-01-15T05:02:44Z</time>
      </trkpt>
      <trkpt lat="48.30883" lon="-3.98413">
        <ele>140</ele>
        <time>2017-01-15T05:04:44Z</time>
      </trkpt>
      <trkpt lat="48.30883" lon="-3.98414">
        <ele>140</ele>
        <time>2017-01-15T05:06:44Z</time>
      </trkpt>
      <trkpt lat="48.30884" lon="-3.98415">
        <ele>140</ele>
        <time>2017-01-15T05:08:44Z</time>
      </trkpt>
      <trkpt lat="48.30883" lon="-3.98413">
        <ele>140</ele>
        <time>2017-01-15T05:10:44Z</time>
      </trkpt>
      <trkpt lat="48.30883" lon="-3.98413">
        <ele>140</ele>
        <time>2017-01-15T05:12:44Z</time>
      </trkpt>
      <trkpt lat="48.30883" lon="-3.98412">
        <ele>140</ele>
        <time>2017-01-15T05:14:44Z</time>
      </trkpt>
      <trkpt lat="48.30883" lon="-3.98413">
        <ele>140</ele>
        <time>2017-01-15T05:16:44Z</time>
      </trkpt>
      <trkpt lat="48.30883" lon="-3.98413">
        <ele>140</ele>
        <time>2017-01-15T05:18:44Z</time>
      </trkpt>
      <trkpt lat="48.30883" lon="-3.98413">
        <ele>140</ele>
        <time>2017-01-15T05:20:44Z</time>
      </trkpt>
      <trkpt lat="48.30882" lon="-3.98413">
        <ele>139</ele>
        <time>2017-01-15T05:22:44Z</time>
      </trkpt>
      <trkpt lat="48.30882" lon="-3.98413">
        <ele>139</ele>
        <time>2017-01-15T05:24:44Z</time>
      </trkpt>
      <trkpt lat="48.30882" lon="-3.98417">
        <ele>139</ele>
        <time>2017-01-15T05:26:44Z</time>
      </trkpt>
      <trkpt lat="48.30882" lon="-3.98411">
        <ele>139</ele>
        <time>2017-01-15T05:28:44Z</time>
      </trkpt>
      <trkpt lat="48.30882" lon="-3.98409">
        <ele>139</ele>
        <time>2017-01-15T05:30:44Z</time>
      </trkpt>
      <trkpt lat="48.30883" lon="-3.98411">
        <ele>140</ele>
        <time>2017-01-15T05:32:44Z</time>
      </trkpt>
      <trkpt lat="48.30883" lon="-3.9841">
        <ele>140</ele>
        <time>2017-01-15T05:34:44Z</time>
      </trkpt>
      <trkpt lat="48.30883" lon="-3.98411">
        <ele>140</ele>
        <time>2017-01-15T05:36:44Z</time>
      </trkpt>
      <trkpt lat="48.30883" lon="-3.98412">
        <ele>140</ele>
        <time>2017-01-15T05:38:44Z</time>
      </trkpt>
      <trkpt lat="48.30883" lon="-3.9841">
        <ele>140</ele>
        <time>2017-01-15T05:40:44Z</time>
      </trkpt>
      <trkpt lat="48.30883" lon="-3.98411">
        <ele>140</ele>
        <time>2017-01-15T05:42:44Z</time>
      </trkpt>
      <trkpt lat="48.30882" lon="-3.9841">
        <ele>139</ele>
        <time>2017-01-15T05:44:44Z</time>
      </trkpt>
      <trkpt lat="48.30881" lon="-3.98408">
        <ele>139</ele>
        <time>2017-01-15T05:46:44Z</time>
      </trkpt>
      <trkpt lat="48.30882" lon="-3.98411">
        <ele>139</ele>
        <time>2017-01-15T05:48:44Z</time>
      </trkpt>
      <trkpt lat="48.30882" lon="-3.98411">
        <ele>139</ele>
        <time>2017-01-15T05:50:44Z</time>
      </trkpt>
      <trkpt lat="48.30883" lon="-3.9841">
        <ele>140</ele>
        <time>2017-01-15T05:52:44Z</time>
      </trkpt>
      <trkpt lat="48.30883" lon="-3.9841">
        <ele>140</ele>
        <time>2017-01-15T05:54:44Z</time>
      </trkpt>
      <trkpt lat="48.30883" lon="-3.98411">
        <ele>140</ele>
        <time>2017-01-15T05:56:44Z</time>
      </trkpt>
      <trkpt lat="48.30882" lon="-3.98412">
        <ele>139</ele>
        <time>2017-01-15T05:58:44Z</time>
      </trkpt>
      <trkpt lat="48.30879" lon="-3.98413">
        <ele>139</ele>
        <time>2017-01-15T06:00:44Z</time>
      </trkpt>
      <trkpt lat="48.30879" lon="-3.98413">
        <ele>139</ele>
        <time>2017-01-15T06:02:44Z</time>
      </trkpt>
      <trkpt lat="48.30877" lon="-3.98414">
        <ele>138</ele>
        <time>2017-01-15T06:04:44Z</time>
      </trkpt>
      <trkpt lat="48.30878" lon="-3.98413">
        <ele>139</ele>
        <time>2017-01-15T06:06:44Z</time>
      </trkpt>
      <trkpt lat="48.30878" lon="-3.98414">
        <ele>139</ele>
        <time>2017-01-15T06:08:44Z</time>
      </trkpt>
      <trkpt lat="48.30877" lon="-3.98412">
        <ele>138</ele>
        <time>2017-01-15T06:10:44Z</time>
      </trkpt>
      <trkpt lat="48.30876" lon="-3.98411">
        <ele>138</ele>
        <time>2017-01-15T06:12:44Z</time>
      </trkpt>
      <trkpt lat="48.30873" lon="-3.98411">
        <ele>138</ele>
        <time>2017-01-15T06:14:44Z</time>
      </trkpt>
      <trkpt lat="48.30874" lon="-3.98411">
        <ele>138</ele>
        <time>2017-01-15T06:16:44Z</time>
      </trkpt>
      <trkpt lat="48.30874" lon="-3.9841">
        <ele>138</ele>
        <time>2017-01-15T06:18:44Z</time>
      </trkpt>
      <trkpt lat="48.30866" lon="-3.98411">
        <ele>136</ele>
        <time>2017-01-15T06:20:44Z</time>
      </trkpt>
      <trkpt lat="48.30826" lon="-3.98399">
        <ele>129</ele>
        <time>2017-01-15T06:22:44Z</time>
      </trkpt>
      <trkpt lat="48.30801" lon="-3.98391">
        <ele>126</ele>
        <time>2017-01-15T06:24:44Z</time>
      </trkpt>
      <trkpt lat="48.3078" lon="-3.98388">
        <ele>123</ele>
        <time>2017-01-15T06:26:44Z</time>
      </trkpt>
      <trkpt lat="48.30773" lon="-3.98386">
        <ele>123</ele>
        <time>2017-01-15T06:28:44Z</time>
      </trkpt>
      <trkpt lat="48.30746" lon="-3.98375">
        <ele>120</ele>
        <time>2017-01-15T06:30:44Z</time>
      </trkpt>
      <trkpt lat="48.30722" lon="-3.98368">
        <ele>119</ele>
        <time>2017-01-15T06:32:44Z</time>
      </trkpt>
      <trkpt lat="48.30699" lon="-3.98356">
        <ele>119</ele>
        <time>2017-01-15T06:34:44Z</time>
      </trkpt>
      <trkpt lat="48.30676" lon="-3.98332">
        <ele>117</ele>
        <time>2017-01-15T06:36:44Z</time>
      </trkpt>
      <trkpt lat="48.30659" lon="-3.98303">
        <ele>115</ele>
        <time>2017-01-15T06:38:44Z</time>
      </trkpt>
      <trkpt lat="48.3064" lon="-3.98288">
        <ele>113</ele>
        <time>2017-01-15T06:40:44Z</time>
      </trkpt>
      <trkpt lat="48.30612" lon="-3.98269">
        <ele>111</ele>
        <time>2017-01-15T06:42:44Z</time>
      </trkpt>
      <trkpt lat="48.30588" lon="-3.98242">
        <ele>110</ele>
        <time>2017-01-15T06:44:44Z</time>
      </trkpt>
      <trkpt lat="48.30585" lon="-3.98212">
        <ele>111</ele>
        <time>2017-01-15T06:46:44Z</time>
      </trkpt>
      <trkpt lat="48.30587" lon="-3.98202">
        <ele>111</ele>
        <time>2017-01-15T06:48:44Z</time>
      </trkpt>
      <trkpt lat="48.30594" lon="-3.98161">
        <ele>112</ele>
        <time>2017-01-15T06:50:44Z</time>
      </trkpt>
      <trkpt lat="48.30601" lon="-3.98126">
        <ele>113</ele>
        <time>2017-01-15T06:52:44Z</time>
      </trkpt>
      <trkpt lat="48.30603" lon="-3.981">
        <ele>113</ele>
        <time>2017-01-15T06:54:44Z</time>
      </trkpt>
      <trkpt lat="48.30599" lon="-3.98067">
        <ele>113</ele>
        <time>2017-01-15T06:56:44Z</time>
      </trkpt>
      <trkpt lat="48.30598" lon="-3.98017">
        <ele>113</ele>
        <time>2017-01-15T06:58:44Z</time>
      </trkpt>
      <trkpt lat="48.30594" lon="-3.9798">
        <ele>111</ele>
        <time>2017-01-15T07:00:44Z</time>
      </trkpt>
      <trkpt lat="48.30596" lon="-3.97931">
        <ele>109</ele>
        <time>2017-01-15T07:02:44Z</time>
      </trkpt>
      <trkpt lat="48.30622" lon="-3.97878">
        <ele>104</ele>
        <time>2017-01-15T07:04:44Z</time>
      </trkpt>
      <trkpt lat="48.30624" lon="-3.97837">
        <ele>101</ele>
        <time>2017-01-15T07:06:44Z</time>
      </trkpt>
      <trkpt lat="48.30622" lon="-3.97836">
        <ele>101</ele>
        <time>2017-01-15T07:08:44Z</time>
      </trkpt>
      <trkpt lat="48.3061" lon="-3.97813">
        <ele>100</ele>
        <time>2017-01-15T07:10:44Z</time>
      </trkpt>
      <trkpt lat="48.30597" lon="-3.97786">
        <ele>100</ele>
        <time>2017-01-15T07:12:44Z</time>
      </trkpt>
      <trkpt lat="48.30588" lon="-3.97778">
        <ele>100</ele>
        <time>2017-01-15T07:14:44Z</time>
      </trkpt>
      <trkpt lat="48.30569" lon="-3.97738">
        <ele>98</ele>
        <time>2017-01-15T07:16:44Z</time>
      </trkpt>
      <trkpt lat="48.30559" lon="-3.97732">
        <ele>97</ele>
        <time>2017-01-15T07:18:44Z</time>
      </trkpt>
      <trkpt lat="48.30543" lon="-3.97718">
        <ele>96</ele>
        <time>2017-01-15T07:20:44Z</time>
      </trkpt>
      <trkpt lat="48.30532" lon="-3.97698">
        <ele>96</ele>
        <time>2017-01-15T07:22:44Z</time>
      </trkpt>
      <trkpt lat="48.30534" lon="-3.97686">
        <ele>96</ele>
        <time>2017-01-15T07:24:44Z</time>
      </trkpt>
      <trkpt lat="48.30532" lon="-3.97684">
        <ele>95</ele>
        <time>2017-01-15T07:26:44Z</time>
      </trkpt>
      <trkpt lat="48.30532" lon="-3.9768">
        <ele>95</ele>
        <time>2017-01-15T07:28:44Z</time>
      </trkpt>
      <trkpt lat="48.30529" lon="-3.97643">
        <ele>97</ele>
        <time>2017-01-15T07:30:44Z</time>
      </trkpt>
      <trkpt lat="48.30532" lon="-3.97605">
        <ele>99</ele>
        <time>2017-01-15T07:32:44Z</time>
      </trkpt>
      <trkpt lat="48.30531" lon="-3.97589">
        <ele>101</ele>
        <time>2017-01-15T07:34:44Z</time>
      </trkpt>
      <trkpt lat="48.30531" lon="-3.97586">
        <ele>101</ele>
        <time>2017-01-15T07:36:44Z</time>
      </trkpt>
      <trkpt lat="48.30533" lon="-3.97566">
        <ele>103</ele>
        <time>2017-01-15T07:38:44Z</time>
      </trkpt>
      <trkpt lat="48.3053" lon="-3.9754">
        <ele>105</ele>
        <time>2017-01-15T07:40:44Z</time>
      </trkpt>
      <trkpt lat="48.30533" lon="-3.97504">
        <ele>108</ele>
        <time>2017-01-15T07:42:44Z</time>
      </trkpt>
      <trkpt lat="48.30534" lon="-3.97471">
        <ele>111</ele>
        <time>2017-01-15T07:44:44Z</time>
      </trkpt>
      <trkpt lat="48.30541" lon="-3.97429">
        <ele>114</ele>
        <time>2017-01-15T07:46:44Z</time>
      </trkpt>
      <trkpt lat="48.30541" lon="-3.9739">
        <ele>117</ele>
        <time>2017-01-15T07:48:44Z</time>
      </trkpt>
      <trkpt lat="48.30539" lon="-3.97383">
        <ele>117</ele>
        <time>2017-01-15T07:50:44Z</time>
      </trkpt>
      <trkpt lat="48.30539" lon="-3.97364">
        <ele>118</ele>
        <time>2017-01-15T07:52:44Z</time>
      </trkpt>
      <trkpt lat="48.30534" lon="-3.97335">
        <ele>121</ele>
        <time>2017-01-15T07:54:44Z</time>
      </trkpt>
      <trkpt lat="48.30545" lon="-3.97306">
        <ele>120</ele>
        <time>2017-01-15T07:56:44Z</time>
      </trkpt>
      <trkpt lat="48.30547" lon="-3.97274">
        <ele>121</ele>
        <time>2017-01-15T07:58:44Z</time>
      </trkpt>
      <trkpt lat="48.30551" lon="-3.97258">
        <ele>121</ele>
        <time>2017-01-15T08:00:44Z</time>
      </trkpt>
      <trkpt lat="48.30552" lon="-3.97233">
        <ele>122</ele>
        <time>2017-01-15T08:02:44Z</time>
      </trkpt>
      <trkpt lat="48.30561" lon="-3.97213">
        <ele>121</ele>
        <time>2017-01-15T08:04:44Z</time>
      </trkpt>
      <trkpt lat="48.30564" lon="-3.97192">
        <ele>122</ele>
        <time>2017-01-15T08:06:44Z</time>
      </trkpt>
      <trkpt lat="48.30565" lon="-3.97161">
        <ele>124</ele>
        <time>2017-01-15T08:08:44Z</time>
      </trkpt>
      <trkpt lat="48.30567" lon="-3.97119">
        <ele>126</ele>
        <time>2017-01-15T08:10:44Z</time>
      </trkpt>
      <trkpt lat="48.30564" lon="-3.97085">
        <ele>128</ele>
        <time>2017-01-15T08:12:44Z</time>
      </trkpt>
      <trkpt lat="48.30561" lon="-3.97055">
        <ele>129</ele>
        <time>2017-01-15T08:14:44Z</time>
      </trkpt>
      <trkpt lat="48.30558" lon="-3.97049">
        <ele>129</ele>
        <time>2017-01-15T08:16:44Z</time>
      </trkpt>
      <trkpt lat="48.30556" lon="-3.97016">
        <ele>130</ele>
        <time>2017-01-15T08:18:44Z</time>
      </trkpt>
      <trkpt lat="48.30539" lon="-3.96983">
        <ele>132</ele>
        <time>2017-01-15T08:20:44Z</time>
      </trkpt>
      <trkpt lat="48.30534" lon="-3.96977">
        <ele>133</ele>
        <time>2017-01-15T08:22:44Z</time>
      </trkpt>
      <trkpt lat="48.30513" lon="-3.9695">
        <ele>136</ele>
        <time>2017-01-15T08:24:44Z</time>
      </trkpt>
      <trkpt lat="48.3051" lon="-3.96938">
        <ele>136</ele>
        <time>2017-01-15T08:26:44Z</time>
      </trkpt>
      <trkpt lat="48.30495" lon="-3.96893">
        <ele>138</ele>
        <time>2017-01-15T08:28:44Z</time>
      </trkpt>
      <trkpt lat="48.3049" lon="-3.96855">
        <ele>139</ele>
        <time>2017-01-15T08:30:44Z</time>
      </trkpt>
      <trkpt lat="48.30483" lon="-3.96818">
        <ele>140</ele>
        <time>2017-01-15T08:32:44Z</time>
      </trkpt>
      <trkpt lat="48.30482" lon="-3.96815">
        <ele>140</ele>
        <time>2017-01-15T08:34:44Z</time>
      </trkpt>
      <trkpt lat="48.3048" lon="-3.96811">
        <ele>141</ele>
        <time>2017-01-15T08:36:44Z</time>
      </trkpt>
      <trkpt lat="48.30474" lon="-3.96784">
        <ele>141</ele>
        <time>2017-01-15T08:38:44Z</time>
      </trkpt>
      <trkpt lat="48.30472" lon="-3.96746">
        <ele>142</ele>
        <time>2017-01-15T08:40:44Z</time>
      </trkpt>
      <trkpt lat="48.30461" lon="-3.96674">
        <ele>142</ele>
        <time>2017-01-15T08:42:44Z</time>
      </trkpt>
      <trkpt lat="48.30459" lon="-3.96634">
        <ele>142</ele>
        <time>2017-01-15T08:44:44Z</time>
      </trkpt>
      <trkpt lat="48.30458" lon="-3.96623">
        <ele>141</ele>
        <time>2017-01-15T08:46:44Z</time>
      </trkpt>
      <trkpt lat="48.30451" lon="-3.96624">
        <ele>141</ele>
        <time>2017-01-15T08:48:44Z</time>
      </trkpt>
      <trkpt lat="48.30429" lon="-3.96637">
        <ele>141</ele>
        <time>2017-01-15T08:50:44Z</time>
      </trkpt>
      <trkpt lat="48.30406" lon="-3.96652">
        <ele>141</ele>
        <time>2017-01-15T08:52:44Z</time>
      </trkpt>
      <trkpt lat="48.30381" lon="-3.96667">
        <ele>139</ele>
        <time>2017-01-15T08:54:44Z</time>
      </trkpt>
      <trkpt lat="48.30353" lon="-3.96685">
        <ele>137</ele>
        <time>2017-01-15T08:56:44Z</time>
      </trkpt>
      <trkpt lat="48.30325" lon="-3.9669">
        <ele>136</ele>
        <time>2017-01-15T08:58:44Z</time>
      </trkpt>
      <trkpt lat="48.30297" lon="-3.96686">
        <ele>134</ele>
        <time>2017-01-15T09:00:44Z</time>
      </trkpt>
      <trkpt lat="48.30247" lon="-3.96664">
        <ele>132</ele>
        <time>2017-01-15T09:02:44Z</time>
      </trkpt>
      <trkpt lat="48.30238" lon="-3.96658">
        <ele>132</ele>
        <time>2017-01-15T09:04:44Z</time>
      </trkpt>
      <trkpt lat="48.30238" lon="-3.96649">
        <ele>132</ele>
        <time>2017-01-15T09:06:44Z</time>
      </trkpt>
      <trkpt lat="48.30257" lon="-3.9662">
        <ele>133</ele>
        <time>2017-01-15T09:08:44Z</time>
      </trkpt>
      <trkpt lat="48.30287" lon="-3.96558">
        <ele>131</ele>
        <time>2017-01-15T09:10:44Z</time>
      </trkpt>
      <trkpt lat="48.30295" lon="-3.9653">
        <ele>129</ele>
        <time>2017-01-15T09:12:44Z</time>
      </trkpt>
      <trkpt lat="48.30301" lon="-3.96515">
        <ele>128</ele>
        <time>2017-01-15T09:14:44Z</time>
      </trkpt>
      <trkpt lat="48.30307" lon="-3.96472">
        <ele>125</ele>
        <time>2017-01-15T09:16:44Z</time>
      </trkpt>
      <trkpt lat="48.30308" lon="-3.96457">
        <ele>124</ele>
        <time>2017-01-15T09:18:44Z</time>
      </trkpt>
      <trkpt lat="48.30306" lon="-3.96422">
        <ele>122</ele>
        <time>2017-01-15T09:20:44Z</time>
      </trkpt>
      <trkpt lat="48.30314" lon="-3.96394">
        <ele>119</ele>
        <time>2017-01-15T09:22:44Z</time>
      </trkpt>
      <trkpt lat="48.30355" lon="-3.96344">
        <ele>115</ele>
        <time>2017-01-15T09:24:44Z</time>
      </trkpt>
      <trkpt lat="48.30376" lon="-3.96323">
        <ele>116</ele>
        <time>2017-01-15T09:26:44Z</time>
      </trkpt>
      <trkpt lat="48.30393" lon="-3.96294">
        <ele>117</ele>
        <time>2017-01-15T09:28:44Z</time>
      </trkpt>
      <trkpt lat="48.30396" lon="-3.96259">
        <ele>116</ele>
        <time>2017-01-15T09:30:44Z</time>
      </trkpt>
      <trkpt lat="48.3039" lon="-3.96223">
        <ele>113</ele>
        <time>2017-01-15T09:32:44Z</time>
      </trkpt>
      <trkpt lat="48.30385" lon="-3.96201">
        <ele>111</ele>
        <time>2017-01-15T09:34:44Z</time>
      </trkpt>
      <trkpt lat="48.30389" lon="-3.96178">
        <ele>110</ele>
        <time>2017-01-15T09:36:44Z</time>
      </trkpt>
      <trkpt lat="48.30381" lon="-3.96159">
        <ele>108</ele>
        <time>2017-01-15T09:38:44Z</time>
      </trkpt>
      <trkpt lat="48.30375" lon="-3.96118">
        <ele>105</ele>
        <time>2017-01-15T09:40:44Z</time>
      </trkpt>
      <trkpt lat="48.30363" lon="-3.96077">
        <ele>101</ele>
        <time>2017-01-15T09:42:44Z</time>
      </trkpt>
      <trkpt lat="48.30359" lon="-3.96058">
        <ele>101</ele>
        <time>2017-01-15T09:44:44Z</time>
      </trkpt>
      <trkpt lat="48.3036" lon="-3.9603">
        <ele>100</ele>
        <time>2017-01-15T09:46:44Z</time>
      </trkpt>
      <trkpt lat="48.30354" lon="-3.95994">
        <ele>99</ele>
        <time>2017-01-15T09:48:44Z</time>
      </trkpt>
      <trkpt lat="48.30336" lon="-3.95947">
        <ele>101</ele>
        <time>2017-01-15T09:50:44Z</time>
      </trkpt>
      <trkpt lat="48.3034" lon="-3.95918">
        <ele>102</ele>
        <time>2017-01-15T09:52:44Z</time>
      </trkpt>
      <trkpt lat="48.30348" lon="-3.95885">
        <ele>105</ele>
        <time>2017-01-15T09:54:44Z</time>
      </trkpt>
      <trkpt lat="48.30352" lon="-3.95878">
        <ele>105</ele>
        <time>2017-01-15T09:56:44Z</time>
      </trkpt>
      <trkpt lat="48.3035" lon="-3.9585">
        <ele>108</ele>
        <time>2017-01-15T09:58:44Z</time>
      </trkpt>
      <trkpt lat="48.30327" lon="-3.9584">
        <ele>110</ele>
        <time>2017-01-15T10:00:44Z</time>
      </trkpt>
      <trkpt lat="48.30299" lon="-3.95835">
        <ele>111</ele>
        <time>2017-01-15T10:02:44Z</time>
      </trkpt>
      <trkpt lat="48.30284" lon="-3.95819">
        <ele>114</ele>
        <time>2017-01-15T10:04:44Z</time>
      </trkpt>
      <trkpt lat="48.30268" lon="-3.95811">
        <ele>117</ele>
        <time>2017-01-15T10:06:44Z</time>
      </trkpt>
      <trkpt lat="48.30267" lon="-3.95806">
        <ele>117</ele>
        <time>2017-01-15T10:08:44Z</time>
      </trkpt>
      <trkpt lat="48.30255" lon="-3.95786">
        <ele>122</ele>
        <time>2017-01-15T10:10:44Z</time>
      </trkpt>
      <trkpt lat="48.3024" lon="-3.95779">
        <ele>123</ele>
        <time>2017-01-15T10:12:44Z</time>
      </trkpt>
      <trkpt lat="48.30238" lon="-3.95777">
        <ele>123</ele>
        <time>2017-01-15T10:14:44Z</time>
      </trkpt>
      <trkpt lat="48.30222" lon="-3.95767">
        <ele>124</ele>
        <time>2017-01-15T10:16:44Z</time>
      </trkpt>
      <trkpt lat="48.30211" lon="-3.95756">
        <ele>125</ele>
        <time>2017-01-15T10:18:44Z</time>
      </trkpt>
      <trkpt lat="48.30178" lon="-3.95722">
        <ele>127</ele>
        <time>2017-01-15T10:20:44Z</time>
      </trkpt>
      <trkpt lat="48.30154" lon="-3.95699">
        <ele>128</ele>
        <time>2017-01-15T10:22:44Z</time>
      </trkpt>
      <trkpt lat="48.30142" lon="-3.95663">
        <ele>131</ele>
        <time>2017-01-15T10:24:44Z</time>
      </trkpt>
      <trkpt lat="48.30144" lon="-3.95653">
        <ele>131</ele>
        <time>2017-01-15T10:26:44Z</time>
      </trkpt>
      <trkpt lat="48.30157" lon="-3.95648">
        <ele>132</ele>
        <time>2017-01-15T10:28:44Z</time>
      </trkpt>
      <trkpt lat="48.30154" lon="-3.95647">
        <ele>131</ele>
        <time>2017-01-15T10:30:44Z</time>
      </trkpt>
      <trkpt lat="48.30138" lon="-3.95622">
        <ele>131</ele>
        <time>2017-01-15T10:32:44Z</time>
      </trkpt>
      <trkpt lat="48.30137" lon="-3.95621">
        <ele>131</ele>
        <time>2017-01-15T10:34:44Z</time>
      </trkpt>
      <trkpt lat="48.30121" lon="-3.95615">
        <ele>130</ele>
        <time>2017-01-15T10:36:44Z</time>
      </trkpt>
      <trkpt lat="48.30125" lon="-3.95601">
        <ele>130</ele>
        <time>2017-01-15T10:38:44Z</time>
      </trkpt>
      <trkpt lat="48.30144" lon="-3.95569">
        <ele>131</ele>
        <time>2017-01-15T10:40:44Z</time>
      </trkpt>
      <trkpt lat="48.3016" lon="-3.9555">
        <ele>131</ele>
        <time>2017-01-15T10:42:44Z</time>
      </trkpt>
      <trkpt lat="48.30162" lon="-3.95548">
        <ele>131</ele>
        <time>2017-01-15T10:44:44Z</time>
      </trkpt>
      <trkpt lat="48.30165" lon="-3.95556">
        <ele>131</ele>
        <time>2017-01-15T10:46:44Z</time>
      </trkpt>
      <trkpt lat="48.30168" lon="-3.95559">
        <ele>131</ele>
        <time>2017-01-15T10:48:44Z</time>
      </trkpt>
      <trkpt lat="48.30172" lon="-3.9556">
        <ele>131</ele>
        <time>2017-01-15T10:50:44Z</time>
      </trkpt>
      <trkpt lat="48.30172" lon="-3.9556">
        <ele>131</ele>
        <time>2017-01-15T10:52:44Z</time>
      </trkpt>
      <trkpt lat="48.30171" lon="-3.95559">
        <ele>131</ele>
        <time>2017-01-15T10:54:44Z</time>
      </trkpt>
      <trkpt lat="48.3017" lon="-3.95557">
        <ele>131</ele>
        <time>2017-01-15T10:56:44Z</time>
      </trkpt>
      <trkpt lat="48.30169" lon="-3.95557">
        <ele>131</ele>
        <time>2017-01-15T10:58:44Z</time>
      </trkpt>
      <trkpt lat="48.30169" lon="-3.95556">
        <ele>131</ele>
        <time>2017-01-15T11:00:44Z</time>
      </trkpt>
      <trkpt lat="48.30169" lon="-3.95557">
        <ele>131</ele>
        <time>2017-01-15T11:02:44Z</time>
      </trkpt>
      <trkpt lat="48.30169" lon="-3.95556">
        <ele>131</ele>
        <time>2017-01-15T11:04:44Z</time>
      </trkpt>
      <trkpt lat="48.30168" lon="-3.95557">
        <ele>131</ele>
        <time>2017-01-15T11:06:44Z</time>
      </trkpt>
      <trkpt lat="48.3017" lon="-3.95559">
        <ele>131</ele>
        <time>2017-01-15T11:08:44Z</time>
      </trkpt>
      <trkpt lat="48.30171" lon="-3.95559">
        <ele>131</ele>
        <time>2017-01-15T11:10:44Z</time>
      </trkpt>
      <trkpt lat="48.30172" lon="-3.95559">
        <ele>131</ele>
        <time>2017-01-15T11:12:44Z</time>
      </trkpt>
      <trkpt lat="48.30171" lon="-3.95557">
        <ele>131</ele>
        <time>2017-01-15T11:14:44Z</time>
      </trkpt>
      <trkpt lat="48.30171" lon="-3.95557">
        <ele>131</ele>
        <time>2017-01-15T11:16:44Z</time>
      </trkpt>
      <trkpt lat="48.30172" lon="-3.95558">
        <ele>131</ele>
        <time>2017-01-15T11:18:44Z</time>
      </trkpt>
      <trkpt lat="48.30172" lon="-3.95557">
        <ele>131</ele>
        <time>2017-01-15T11:20:44Z</time>
      </trkpt>
      <trkpt lat="48.30172" lon="-3.95557">
        <ele>131</ele>
        <time>2017-01-15T11:22:44Z</time>
      </trkpt>
      <trkpt lat="48.30172" lon="-3.95557">
        <ele>131</ele>
        <time>2017-01-15T11:24:44Z</time>
      </trkpt>
      <trkpt lat="48.30172" lon="-3.95557">
        <ele>131</ele>
        <time>2017-01-15T11:26:44Z</time>
      </trkpt>
      <trkpt lat="48.30172" lon="-3.95558">
        <ele>131</ele>
        <time>2017-01-15T11:28:44Z</time>
      </trkpt>
      <trkpt lat="48.30173" lon="-3.95558">
        <ele>131</ele>
        <time>2017-01-15T11:30:44Z</time>
      </trkpt>
      <trkpt lat="48.30172" lon="-3.95558">
        <ele>131</ele>
        <time>2017-01-15T11:32:44Z</time>
      </trkpt>
      <trkpt lat="48.30173" lon="-3.95557">
        <ele>131</ele>
        <time>2017-01-15T11:34:44Z</time>
      </trkpt>
      <trkpt lat="48.30172" lon="-3.95556">
        <ele>131</ele>
        <time>2017-01-15T11:36:44Z</time>
      </trkpt>
      <trkpt lat="48.30171" lon="-3.95556">
        <ele>131</ele>
        <time>2017-01-15T11:38:44Z</time>
      </trkpt>
      <trkpt lat="48.3017" lon="-3.95558">
        <ele>131</ele>
        <time>2017-01-15T11:40:44Z</time>
      </trkpt>
      <trkpt lat="48.30171" lon="-3.95561">
        <ele>131</ele>
        <time>2017-01-15T11:42:44Z</time>
      </trkpt>
      <trkpt lat="48.30172" lon="-3.95561">
        <ele>131</ele>
        <time>2017-01-15T11:44:44Z</time>
      </trkpt>
      <trkpt lat="48.30172" lon="-3.95563">
        <ele>131</ele>
        <time>2017-01-15T11:46:44Z</time>
      </trkpt>
      <trkpt lat="48.30172" lon="-3.95563">
        <ele>131</ele>
        <time>2017-01-15T11:48:44Z</time>
      </trkpt>
      <trkpt lat="48.30172" lon="-3.95563">
        <ele>131</ele>
        <time>2017-01-15T11:50:44Z</time>
      </trkpt>
      <trkpt lat="48.30173" lon="-3.95563">
        <ele>131</ele>
        <time>2017-01-15T11:52:44Z</time>
      </trkpt>
      <trkpt lat="48.30172" lon="-3.95562">
        <ele>131</ele>
        <time>2017-01-15T11:54:44Z</time>
      </trkpt>
      <trkpt lat="48.30172" lon="-3.95562">
        <ele>131</ele>
        <time>2017-01-15T11:56:44Z</time>
      </trkpt>
      <trkpt lat="48.30172" lon="-3.95563">
        <ele>131</ele>
        <time>2017-01-15T11:58:44Z</time>
      </trkpt>
      <trkpt lat="48.30172" lon="-3.95562">
        <ele>131</ele>
        <time>2017-01-15T12:00:44Z</time>
      </trkpt>
      <trkpt lat="48.30172" lon="-3.95562">
        <ele>131</ele>
        <time>2017-01-15T12:02:44Z</time>
      </trkpt>
      <trkpt lat="48.30171" lon="-3.95563">
        <ele>131</ele>
        <time>2017-01-15T12:04:44Z</time>
      </trkpt>
      <trkpt lat="48.30171" lon="-3.95563">
        <ele>131</ele>
        <time>2017-01-15T12:06:44Z</time>
      </trkpt>
      <trkpt lat="48.30171" lon="-3.95564">
        <ele>131</ele>
        <time>2017-01-15T12:08:44Z</time>
      </trkpt>
      <trkpt lat="48.30173" lon="-3.95563">
        <ele>131</ele>
        <time>2017-01-15T12:10:44Z</time>
      </trkpt>
      <trkpt lat="48.30175" lon="-3.95563">
        <ele>131</ele>
        <time>2017-01-15T12:12:44Z</time>
      </trkpt>
      <trkpt lat="48.30174" lon="-3.95564">
        <ele>131</ele>
        <time>2017-01-15T12:14:44Z</time>
      </trkpt>
      <trkpt lat="48.30174" lon="-3.95563">
        <ele>131</ele>
        <time>2017-01-15T12:16:44Z</time>
      </trkpt>
      <trkpt lat="48.30174" lon="-3.95562">
        <ele>131</ele>
        <time>2017-01-15T12:18:44Z</time>
      </trkpt>
      <trkpt lat="48.30172" lon="-3.95562">
        <ele>131</ele>
        <time>2017-01-15T12:20:44Z</time>
      </trkpt>
      <trkpt lat="48.30169" lon="-3.95558">
        <ele>131</ele>
        <time>2017-01-15T12:22:44Z</time>
      </trkpt>
      <trkpt lat="48.30159" lon="-3.95549">
        <ele>131</ele>
        <time>2017-01-15T12:24:44Z</time>
      </trkpt>
      <trkpt lat="48.30152" lon="-3.95562">
        <ele>131</ele>
        <time>2017-01-15T12:26:44Z</time>
      </trkpt>
      <trkpt lat="48.3015" lon="-3.95568">
        <ele>131</ele>
        <time>2017-01-15T12:28:44Z</time>
      </trkpt>
      <trkpt lat="48.30155" lon="-3.95578">
        <ele>131</ele>
        <time>2017-01-15T12:30:44Z</time>
      </trkpt>
      <trkpt lat="48.30164" lon="-3.95592">
        <ele>132</ele>
        <time>2017-01-15T12:32:44Z</time>
      </trkpt>
      <trkpt lat="48.30181" lon="-3.95599">
        <ele>132</ele>
        <time>2017-01-15T12:34:44Z</time>
      </trkpt>
      <trkpt lat="48.30205" lon="-3.956">
        <ele>133</ele>
        <time>2017-01-15T12:36:44Z</time>
      </trkpt>
      <trkpt lat="48.30223" lon="-3.95601">
        <ele>134</ele>
        <time>2017-01-15T12:38:44Z</time>
      </trkpt>
      <trkpt lat="48.3025" lon="-3.95594">
        <ele>134</ele>
        <time>2017-01-15T12:40:44Z</time>
      </trkpt>
      <trkpt lat="48.30258" lon="-3.95591">
        <ele>134</ele>
        <time>2017-01-15T12:42:44Z</time>
      </trkpt>
      <trkpt lat="48.30273" lon="-3.95585">
        <ele>134</ele>
        <time>2017-01-15T12:44:44Z</time>
      </trkpt>
      <trkpt lat="48.30275" lon="-3.95585">
        <ele>134</ele>
        <time>2017-01-15T12:46:44Z</time>
      </trkpt>
      <trkpt lat="48.30281" lon="-3.95578">
        <ele>134</ele>
        <time>2017-01-15T12:48:44Z</time>
      </trkpt>
      <trkpt lat="48.30289" lon="-3.95571">
        <ele>134</ele>
        <time>2017-01-15T12:50:44Z</time>
      </trkpt>
      <trkpt lat="48.3029" lon="-3.9557">
        <ele>134</ele>
        <time>2017-01-15T12:52:44Z</time>
      </trkpt>
      <trkpt lat="48.30303" lon="-3.9556">
        <ele>134</ele>
        <time>2017-01-15T12:54:44Z</time>
      </trkpt>
      <trkpt lat="48.30328" lon="-3.95519">
        <ele>135</ele>
        <time>2017-01-15T12:56:44Z</time>
      </trkpt>
      <trkpt lat="48.30347" lon="-3.95498">
        <ele>136</ele>
        <time>2017-01-15T12:58:44Z</time>
      </trkpt>
      <trkpt lat="48.30356" lon="-3.95487">
        <ele>136</ele>
        <time>2017-01-15T13:00:44Z</time>
      </trkpt>
      <trkpt lat="48.30358" lon="-3.95485">
        <ele>136</ele>
        <time>2017-01-15T13:02:44Z</time>
      </trkpt>
      <trkpt lat="48.3037" lon="-3.95468">
        <ele>137</ele>
        <time>2017-01-15T13:04:44Z</time>
      </trkpt>
      <trkpt lat="48.30382" lon="-3.95449">
        <ele>138</ele>
        <time>2017-01-15T13:06:44Z</time>
      </trkpt>
      <trkpt lat="48.30386" lon="-3.95442">
        <ele>139</ele>
        <time>2017-01-15T13:08:44Z</time>
      </trkpt>
      <trkpt lat="48.304" lon="-3.95419">
        <ele>141</ele>
        <time>2017-01-15T13:10:44Z</time>
      </trkpt>
      <trkpt lat="48.30407" lon="-3.95413">
        <ele>141</ele>
        <time>2017-01-15T13:12:44Z</time>
      </trkpt>
      <trkpt lat="48.30416" lon="-3.95403">
        <ele>142</ele>
        <time>2017-01-15T13:14:44Z</time>
      </trkpt>
      <trkpt lat="48.30436" lon="-3.95383">
        <ele>143</ele>
        <time>2017-01-15T13:16:44Z</time>
      </trkpt>
      <trkpt lat="48.30442" lon="-3.95377">
        <ele>144</ele>
        <time>2017-01-15T13:18:44Z</time>
      </trkpt>
      <trkpt lat="48.30445" lon="-3.95378">
        <ele>144</ele>
        <time>2017-01-15T13:20:44Z</time>
      </trkpt>
      <trkpt lat="48.30446" lon="-3.95376">
        <ele>144</ele>
        <time>2017-01-15T13:22:44Z</time>
      </trkpt>
      <trkpt lat="48.30447" lon="-3.95368">
        <ele>144</ele>
        <time>2017-01-15T13:24:44Z</time>
      </trkpt>
      <trkpt lat="48.3045" lon="-3.95369">
        <ele>144</ele>
        <time>2017-01-15T13:26:44Z</time>
      </trkpt>
      <trkpt lat="48.30456" lon="-3.95366">
        <ele>144</ele>
        <time>2017-01-15T13:28:44Z</time>
      </trkpt>
      <trkpt lat="48.30479" lon="-3.95352">
        <ele>146</ele>
        <time>2017-01-15T13:30:44Z</time>
      </trkpt>
      <trkpt lat="48.30492" lon="-3.95343">
        <ele>146</ele>
        <time>2017-01-15T13:32:44Z</time>
      </trkpt>
      <trkpt lat="48.30506" lon="-3.95335">
        <ele>147</ele>
        <time>2017-01-15T13:34:44Z</time>
      </trkpt>
      <trkpt lat="48.30525" lon="-3.95315">
        <ele>146</ele>
        <time>2017-01-15T13:36:44Z</time>
      </trkpt>
      <trkpt lat="48.30538" lon="-3.9528">
        <ele>145</ele>
        <time>2017-01-15T13:38:44Z</time>
      </trkpt>
      <trkpt lat="48.30549" lon="-3.95257">
        <ele>144</ele>
        <time>2017-01-15T13:40:44Z</time>
      </trkpt>
      <trkpt lat="48.3057" lon="-3.95226">
        <ele>141</ele>
        <time>2017-01-15T13:42:44Z</time>
      </trkpt>
      <trkpt lat="48.30587" lon="-3.95198">
        <ele>138</ele>
        <time>2017-01-15T13:44:44Z</time>
      </trkpt>
      <trkpt lat="48.30613" lon="-3.9517">
        <ele>135</ele>
        <time>2017-01-15T13:46:44Z</time>
      </trkpt>
      <trkpt lat="48.30625" lon="-3.95155">
        <ele>133</ele>
        <time>2017-01-15T13:48:44Z</time>
      </trkpt>
      <trkpt lat="48.30646" lon="-3.95125">
        <ele>128</ele>
        <time>2017-01-15T13:50:44Z</time>
      </trkpt>
      <trkpt lat="48.30681" lon="-3.95068">
        <ele>121</ele>
        <time>2017-01-15T13:52:44Z</time>
      </trkpt>
      <trkpt lat="48.30704" lon="-3.95046">
        <ele>119</ele>
        <time>2017-01-15T13:54:44Z</time>
      </trkpt>
      <trkpt lat="48.30734" lon="-3.95019">
        <ele>115</ele>
        <time>2017-01-15T13:56:44Z</time>
      </trkpt>
      <trkpt lat="48.30762" lon="-3.94996">
        <ele>112</ele>
        <time>2017-01-15T13:58:44Z</time>
      </trkpt>
      <trkpt lat="48.30802" lon="-3.94956">
        <ele>108</ele>
        <time>2017-01-15T14:00:44Z</time>
      </trkpt>
      <trkpt lat="48.30828" lon="-3.94928">
        <ele>104</ele>
        <time>2017-01-15T14:02:44Z</time>
      </trkpt>
      <trkpt lat="48.30851" lon="-3.94899">
        <ele>101</ele>
        <time>2017-01-15T14:04:44Z</time>
      </trkpt>
      <trkpt lat="48.30867" lon="-3.94878">
        <ele>100</ele>
        <time>2017-01-15T14:06:44Z</time>
      </trkpt>
      <trkpt lat="48.30892" lon="-3.94857">
        <ele>98</ele>
        <time>2017-01-15T14:08:44Z</time>
      </trkpt>
      <trkpt lat="48.30916" lon="-3.94839">
        <ele>97</ele>
        <time>2017-01-15T14:10:44Z</time>
      </trkpt>
      <trkpt lat="48.30941" lon="-3.94833">
        <ele>98</ele>
        <time>2017-01-15T14:12:44Z</time>
      </trkpt>
      <trkpt lat="48.30975" lon="-3.94829">
        <ele>98</ele>
        <time>2017-01-15T14:14:44Z</time>
      </trkpt>
      <trkpt lat="48.31001" lon="-3.94824">
        <ele>99</ele>
        <time>2017-01-15T14:16:44Z</time>
      </trkpt>
      <trkpt lat="48.3105" lon="-3.94807">
        <ele>102</ele>
        <time>2017-01-15T14:18:44Z</time>
      </trkpt>
      <trkpt lat="48.31071" lon="-3.94796">
        <ele>103</ele>
        <time>2017-01-15T14:20:44Z</time>
      </trkpt>
      <trkpt lat="48.31091" lon="-3.94786">
        <ele>104</ele>
        <time>2017-01-15T14:22:44Z</time>
      </trkpt>
      <trkpt lat="48.31108" lon="-3.94776">
        <ele>105</ele>
        <time>2017-01-15T14:24:44Z</time>
      </trkpt>
      <trkpt lat="48.31131" lon="-3.94766">
        <ele>106</ele>
        <time>2017-01-15T14:26:44Z</time>
      </trkpt>
      <trkpt lat="48.31191" lon="-3.94756">
        <ele>108</ele>
        <time>2017-01-15T14:28:44Z</time>
      </trkpt>
      <trkpt lat="48.31226" lon="-3.94763">
        <ele>110</ele>
        <time>2017-01-15T14:30:44Z</time>
      </trkpt>
      <trkpt lat="48.31248" lon="-3.94763">
        <ele>111</ele>
        <time>2017-01-15T14:32:44Z</time>
      </trkpt>
      <trkpt lat="48.31249" lon="-3.94763">
        <ele>111</ele>
        <time>2017-01-15T14:34:44Z</time>
      </trkpt>
      <trkpt lat="48.31248" lon="-3.94762">
        <ele>111</ele>
        <time>2017-01-15T14:36:44Z</time>
      </trkpt>
      <trkpt lat="48.31257" lon="-3.94775">
        <ele>111</ele>
        <time>2017-01-15T14:38:44Z</time>
      </trkpt>
      <trkpt lat="48.31269" lon="-3.9478">
        <ele>111</ele>
        <time>2017-01-15T14:40:44Z</time>
      </trkpt>
      <trkpt lat="48.31288" lon="-3.94786">
        <ele>110</ele>
        <time>2017-01-15T14:42:44Z</time>
      </trkpt>
      <trkpt lat="48.31302" lon="-3.94784">
        <ele>109</ele>
        <time>2017-01-15T14:44:44Z</time>
      </trkpt>
      <trkpt lat="48.31314" lon="-3.94795">
        <ele>109</ele>
        <time>2017-01-15T14:46:44Z</time>
      </trkpt>
      <trkpt lat="48.3134" lon="-3.94797">
        <ele>108</ele>
        <time>2017-01-15T14:48:44Z</time>
      </trkpt>
      <trkpt lat="48.3137" lon="-3.94805">
        <ele>110</ele>
        <time>2017-01-15T14:50:44Z</time>
      </trkpt>
      <trkpt lat="48.31383" lon="-3.9481">
        <ele>111</ele>
        <time>2017-01-15T14:52:44Z</time>
      </trkpt>
      <trkpt lat="48.31412" lon="-3.9481">
        <ele>113</ele>
        <time>2017-01-15T14:54:44Z</time>
      </trkpt>
      <trkpt lat="48.31452" lon="-3.94803">
        <ele>114</ele>
        <time>2017-01-15T14:56:44Z</time>
      </trkpt>
      <trkpt lat="48.31477" lon="-3.94799">
        <ele>115</ele>
        <time>2017-01-15T14:58:44Z</time>
      </trkpt>
      <trkpt lat="48.31479" lon="-3.948">
        <ele>115</ele>
        <time>2017-01-15T15:00:44Z</time>
      </trkpt>
      <trkpt lat="48.31507" lon="-3.94797">
        <ele>116</ele>
        <time>2017-01-15T15:02:44Z</time>
      </trkpt>
      <trkpt lat="48.31515" lon="-3.94798">
        <ele>116</ele>
        <time>2017-01-15T15:04:44Z</time>
      </trkpt>
      <trkpt lat="48.31534" lon="-3.94796">
        <ele>117</ele>
        <time>2017-01-15T15:06:44Z</time>
      </trkpt>
      <trkpt lat="48.31573" lon="-3.94804">
        <ele>118</ele>
        <time>2017-01-15T15:08:44Z</time>
      </trkpt>
      <trkpt lat="48.31585" lon="-3.94799">
        <ele>118</ele>
        <time>2017-01-15T15:10:44Z</time>
      </trkpt>
      <trkpt lat="48.31607" lon="-3.9477">
        <ele>116</ele>
        <time>2017-01-15T15:12:44Z</time>
      </trkpt>
      <trkpt lat="48.31624" lon="-3.94755">
        <ele>115</ele>
        <time>2017-01-15T15:14:44Z</time>
      </trkpt>
      <trkpt lat="48.31634" lon="-3.94756">
        <ele>115</ele>
        <time>2017-01-15T15:16:44Z</time>
      </trkpt>
      <trkpt lat="48.31642" lon="-3.94749">
        <ele>115</ele>
        <time>2017-01-15T15:18:44Z</time>
      </trkpt>
      <trkpt lat="48.31677" lon="-3.94704">
        <ele>118</ele>
        <time>2017-01-15T15:20:44Z</time>
      </trkpt>
      <trkpt lat="48.31712" lon="-3.9468">
        <ele>121</ele>
        <time>2017-01-15T15:22:44Z</time>
      </trkpt>
      <trkpt lat="48.31723" lon="-3.94651">
        <ele>123</ele>
        <time>2017-01-15T15:24:44Z</time>
      </trkpt>
      <trkpt lat="48.31731" lon="-3.94635">
        <ele>124</ele>
        <time>2017-01-15T15:26:44Z</time>
      </trkpt>
      <trkpt lat="48.31729" lon="-3.94625">
        <ele>125</ele>
        <time>2017-01-15T15:28:44Z</time>
      </trkpt>
      <trkpt lat="48.31731" lon="-3.94603">
        <ele>125</ele>
        <time>2017-01-15T15:30:44Z</time>
      </trkpt>
      <trkpt lat="48.31744" lon="-3.94577">
        <ele>126</ele>
        <time>2017-01-15T15:32:44Z</time>
      </trkpt>
      <trkpt lat="48.31757" lon="-3.94548">
        <ele>127</ele>
        <time>2017-01-15T15:34:44Z</time>
      </trkpt>
      <trkpt lat="48.31758" lon="-3.94539">
        <ele>128</ele>
        <time>2017-01-15T15:36:44Z</time>
      </trkpt>
      <trkpt lat="48.31774" lon="-3.94504">
        <ele>131</ele>
        <time>2017-01-15T15:38:44Z</time>
      </trkpt>
      <trkpt lat="48.31774" lon="-3.945">
        <ele>131</ele>
        <time>2017-01-15T15:40:44Z</time>
      </trkpt>
      <trkpt lat="48.31783" lon="-3.94454">
        <ele>134</ele>
        <time>2017-01-15T15:42:44Z</time>
      </trkpt>
      <trkpt lat="48.31784" lon="-3.94452">
        <ele>135</ele>
        <time>2017-01-15T15:44:44Z</time>
      </trkpt>
      <trkpt lat="48.31786" lon="-3.94447">
        <ele>135</ele>
        <time>2017-01-15T15:46:44Z</time>
      </trkpt>
      <trkpt lat="48.31801" lon="-3.94396">
        <ele>137</ele>
        <time>2017-01-15T15:48:44Z</time>
      </trkpt>
      <trkpt lat="48.31803" lon="-3.94393">
        <ele>137</ele>
        <time>2017-01-15T15:50:44Z</time>
      </trkpt>
      <trkpt lat="48.31805" lon="-3.94369">
        <ele>137</ele>
        <time>2017-01-15T15:52:44Z</time>
      </trkpt>
      <trkpt lat="48.3181" lon="-3.94336">
        <ele>137</ele>
        <time>2017-01-15T15:54:44Z</time>
      </trkpt>
      <trkpt lat="48.31811" lon="-3.9433">
        <ele>137</ele>
        <time>2017-01-15T15:56:44Z</time>
      </trkpt>
      <trkpt lat="48.31819" lon="-3.94298">
        <ele>136</ele>
        <time>2017-01-15T15:58:44Z</time>
      </trkpt>
      <trkpt lat="48.3182" lon="-3.9429">
        <ele>136</ele>
        <time>2017-01-15T16:00:44Z</time>
      </trkpt>
      <trkpt lat="48.31832" lon="-3.94253">
        <ele>134</ele>
        <time>2017-01-15T16:02:44Z</time>
      </trkpt>
      <trkpt lat="48.31834" lon="-3.94248">
        <ele>134</ele>
        <time>2017-01-15T16:04:44Z</time>
      </trkpt>
      <trkpt lat="48.31834" lon="-3.94243">
        <ele>134</ele>
        <time>2017-01-15T16:06:44Z</time>
      </trkpt>
      <trkpt lat="48.31842" lon="-3.94209">
        <ele>136</ele>
        <time>2017-01-15T16:08:44Z</time>
      </trkpt>
      <trkpt lat="48.31845" lon="-3.94198">
        <ele>137</ele>
        <time>2017-01-15T16:10:44Z</time>
      </trkpt>
      <trkpt lat="48.31846" lon="-3.94189">
        <ele>137</ele>
        <time>2017-01-15T16:12:44Z</time>
      </trkpt>
      <trkpt lat="48.31853" lon="-3.94154">
        <ele>139</ele>
        <time>2017-01-15T16:14:44Z</time>
      </trkpt>
      <trkpt lat="48.31868" lon="-3.94121">
        <ele>142</ele>
        <time>2017-01-15T16:16:44Z</time>
      </trkpt>
      <trkpt lat="48.31873" lon="-3.94072">
        <ele>143</ele>
        <time>2017-01-15T16:18:44Z</time>
      </trkpt>
      <trkpt lat="48.31877" lon="-3.94049">
        <ele>144</ele>
        <time>2017-01-15T16:20:44Z</time>
      </trkpt>
      <trkpt lat="48.31882" lon="-3.9404">
        <ele>144</ele>
        <time>2017-01-15T16:22:44Z</time>
      </trkpt>
      <trkpt lat="48.31895" lon="-3.93991">
        <ele>143</ele>
        <time>2017-01-15T16:24:44Z</time>
      </trkpt>
      <trkpt lat="48.31894" lon="-3.93944">
        <ele>143</ele>
        <time>2017-01-15T16:26:44Z</time>
      </trkpt>
      <trkpt lat="48.31894" lon="-3.93929">
        <ele>143</ele>
        <time>2017-01-15T16:28:44Z</time>
      </trkpt>
      <trkpt lat="48.31903" lon="-3.93902">
        <ele>141</ele>
        <time>2017-01-15T16:30:44Z</time>
      </trkpt>
      <trkpt lat="48.31915" lon="-3.93871">
        <ele>141</ele>
        <time>2017-01-15T16:32:44Z</time>
      </trkpt>
      <trkpt lat="48.31925" lon="-3.93826">
        <ele>143</ele>
        <time>2017-01-15T16:34:44Z</time>
      </trkpt>
      <trkpt lat="48.3194" lon="-3.93788">
        <ele>145</ele>
        <time>2017-01-15T16:36:44Z</time>
      </trkpt>
      <trkpt lat="48.31942" lon="-3.93757">
        <ele>147</ele>
        <time>2017-01-15T16:38:44Z</time>
      </trkpt>
      <trkpt lat="48.31943" lon="-3.93749">
        <ele>147</ele>
        <time>2017-01-15T16:40:44Z</time>
      </trkpt>
      <trkpt lat="48.3194" lon="-3.93715">
        <ele>150</ele>
        <time>2017-01-15T16:42:44Z</time>
      </trkpt>
      <trkpt lat="48.31944" lon="-3.93668">
        <ele>153</ele>
        <time>2017-01-15T16:44:44Z</time>
      </trkpt>
      <trkpt lat="48.31945" lon="-3.93651">
        <ele>153</ele>
        <time>2017-01-15T16:46:44Z</time>
      </trkpt>
      <trkpt lat="48.31944" lon="-3.93636">
        <ele>153</ele>
        <time>2017-01-15T16:48:44Z</time>
      </trkpt>
      <trkpt lat="48.31943" lon="-3.93582">
        <ele>154</ele>
        <time>2017-01-15T16:50:44Z</time>
      </trkpt>
      <trkpt lat="48.3194" lon="-3.93538">
        <ele>156</ele>
        <time>2017-01-15T16:52:44Z</time>
      </trkpt>
      <trkpt lat="48.3194" lon="-3.93533">
        <ele>157</ele>
        <time>2017-01-15T16:54:44Z</time>
      </trkpt>
      <trkpt lat="48.31935" lon="-3.93507">
        <ele>158</ele>
        <time>2017-01-15T16:56:44Z</time>
      </trkpt>
      <trkpt lat="48.31934" lon="-3.93504">
        <ele>159</ele>
        <time>2017-01-15T16:58:44Z</time>
      </trkpt>
      <trkpt lat="48.31932" lon="-3.93492">
        <ele>159</ele>
        <time>2017-01-15T17:00:44Z</time>
      </trkpt>
      <trkpt lat="48.31931" lon="-3.93487">
        <ele>160</ele>
        <time>2017-01-15T17:02:44Z</time>
      </trkpt>
      <trkpt lat="48.31931" lon="-3.93485">
        <ele>160</ele>
        <time>2017-01-15T17:04:44Z</time>
      </trkpt>
      <trkpt lat="48.31932" lon="-3.9346">
        <ele>160</ele>
        <time>2017-01-15T17:06:44Z</time>
      </trkpt>
      <trkpt lat="48.31943" lon="-3.93421">
        <ele>158</ele>
        <time>2017-01-15T17:08:44Z</time>
      </trkpt>
      <trkpt lat="48.31954" lon="-3.93368">
        <ele>159</ele>
        <time>2017-01-15T17:10:44Z</time>
      </trkpt>
      <trkpt lat="48.31955" lon="-3.93355">
        <ele>160</ele>
        <time>2017-01-15T17:12:44Z</time>
      </trkpt>
      <trkpt lat="48.31955" lon="-3.93356">
        <ele>160</ele>
        <time>2017-01-15T17:14:44Z</time>
      </trkpt>
      <trkpt lat="48.31956" lon="-3.93354">
        <ele>159</ele>
        <time>2017-01-15T17:16:44Z</time>
      </trkpt>
      <trkpt lat="48.31956" lon="-3.93354">
        <ele>159</ele>
        <time>2017-01-15T17:18:44Z</time>
      </trkpt>
      <trkpt lat="48.31957" lon="-3.93352">
        <ele>159</ele>
        <time>2017-01-15T17:20:44Z</time>
      </trkpt>
      <trkpt lat="48.31957" lon="-3.93336">
        <ele>160</ele>
        <time>2017-01-15T17:22:44Z</time>
      </trkpt>
      <trkpt lat="48.31959" lon="-3.93322">
        <ele>160</ele>
        <time>2017-01-15T17:24:44Z</time>
      </trkpt>
      <trkpt lat="48.31958" lon="-3.9332">
        <ele>160</ele>
        <time>2017-01-15T17:26:44Z</time>
      </trkpt>
      <trkpt lat="48.31958" lon="-3.93315">
        <ele>161</ele>
        <time>2017-01-15T17:28:44Z</time>
      </trkpt>
      <trkpt lat="48.31958" lon="-3.9331">
        <ele>161</ele>
        <time>2017-01-15T17:30:44Z</time>
      </trkpt>
      <trkpt lat="48.31958" lon="-3.93303">
        <ele>161</ele>
        <time>2017-01-15T17:32:44Z</time>
      </trkpt>
      <trkpt lat="48.31958" lon="-3.93301">
        <ele>161</ele>
        <time>2017-01-15T17:34:44Z</time>
      </trkpt>
      <trkpt lat="48.3196" lon="-3.93256">
        <ele>162</ele>
        <time>2017-01-15T17:36:44Z</time>
      </trkpt>
      <trkpt lat="48.31966" lon="-3.9321">
        <ele>163</ele>
        <time>2017-01-15T17:38:44Z</time>
      </trkpt>
      <trkpt lat="48.31968" lon="-3.93205">
        <ele>163</ele>
        <time>2017-01-15T17:40:44Z</time>
      </trkpt>
      <trkpt lat="48.31977" lon="-3.93206">
        <ele>162</ele>
        <time>2017-01-15T17:42:44Z</time>
      </trkpt>
      <trkpt lat="48.31977" lon="-3.93206">
        <ele>162</ele>
        <time>2017-01-15T17:44:44Z</time>
      </trkpt>
      <trkpt lat="48.31977" lon="-3.93208">
        <ele>162</ele>
        <time>2017-01-15T17:46:44Z</time>
      </trkpt>
      <trkpt lat="48.31974" lon="-3.93204">
        <ele>162</ele>
        <time>2017-01-15T17:48:44Z</time>
      </trkpt>
      <trkpt lat="48.31974" lon="-3.93202">
        <ele>162</ele>
        <time>2017-01-15T17:50:44Z</time>
      </trkpt>
      <trkpt lat="48.31973" lon="-3.93199">
        <ele>162</ele>
        <time>2017-01-15T17:52:44Z</time>
      </trkpt>
      <trkpt lat="48.31979" lon="-3.93176">
        <ele>162</ele>
        <time>2017-01-15T17:54:44Z</time>
      </trkpt>
      <trkpt lat="48.31982" lon="-3.93162">
        <ele>162</ele>
        <time>2017-01-15T17:56:44Z</time>
      </trkpt>
      <trkpt lat="48.3198" lon="-3.9315">
        <ele>162</ele>
        <time>2017-01-15T17:58:44Z</time>
      </trkpt>
      <trkpt lat="48.31966" lon="-3.93116">
        <ele>163</ele>
        <time>2017-01-15T18:00:44Z</time>
      </trkpt>
      <trkpt lat="48.3195" lon="-3.93072">
        <ele>163</ele>
        <time>2017-01-15T18:02:44Z</time>
      </trkpt>
      <trkpt lat="48.31929" lon="-3.93033">
        <ele>162</ele>
        <time>2017-01-15T18:04:44Z</time>
      </trkpt>
      <trkpt lat="48.31903" lon="-3.92997">
        <ele>161</ele>
        <time>2017-01-15T18:06:44Z</time>
      </trkpt>
      <trkpt lat="48.31875" lon="-3.92962">
        <ele>159</ele>
        <time>2017-01-15T18:08:44Z</time>
      </trkpt>
      <trkpt lat="48.31851" lon="-3.92939">
        <ele>157</ele>
        <time>2017-01-15T18:10:44Z</time>
      </trkpt>
      <trkpt lat="48.31826" lon="-3.92915">
        <ele>155</ele>
        <time>2017-01-15T18:12:44Z</time>
      </trkpt>
      <trkpt lat="48.31808" lon="-3.92893">
        <ele>153</ele>
        <time>2017-01-15T18:14:44Z</time>
      </trkpt>
      <trkpt lat="48.31808" lon="-3.92895">
        <ele>153</ele>
        <time>2017-01-15T18:16:44Z</time>
      </trkpt>
      <trkpt lat="48.31809" lon="-3.92895">
        <ele>153</ele>
        <time>2017-01-15T18:18:44Z</time>
      </trkpt>
      <trkpt lat="48.31806" lon="-3.92891">
        <ele>153</ele>
        <time>2017-01-15T18:20:44Z</time>
      </trkpt>
      <trkpt lat="48.3179" lon="-3.92875">
        <ele>151</ele>
        <time>2017-01-15T18:22:44Z</time>
      </trkpt>
      <trkpt lat="48.31764" lon="-3.92846">
        <ele>148</ele>
        <time>2017-01-15T18:24:44Z</time>
      </trkpt>
      <trkpt lat="48.31761" lon="-3.92839">
        <ele>148</ele>
        <time>2017-01-15T18:26:44Z</time>
      </trkpt>
      <trkpt lat="48.31749" lon="-3.928">
        <ele>145</ele>
        <time>2017-01-15T18:28:44Z</time>
      </trkpt>
      <trkpt lat="48.31747" lon="-3.92795">
        <ele>144</ele>
        <time>2017-01-15T18:30:44Z</time>
      </trkpt>
      <trkpt lat="48.31745" lon="-3.92793">
        <ele>144</ele>
        <time>2017-01-15T18:32:44Z</time>
      </trkpt>
      <trkpt lat="48.31725" lon="-3.92758">
        <ele>140</ele>
        <time>2017-01-15T18:34:44Z</time>
      </trkpt>
      <trkpt lat="48.31713" lon="-3.92722">
        <ele>137</ele>
        <time>2017-01-15T18:36:44Z</time>
      </trkpt>
      <trkpt lat="48.31708" lon="-3.9269">
        <ele>135</ele>
        <time>2017-01-15T18:38:44Z</time>
      </trkpt>
      <trkpt lat="48.31714" lon="-3.9267">
        <ele>135</ele>
        <time>2017-01-15T18:40:44Z</time>
      </trkpt>
      <trkpt lat="48.31716" lon="-3.92664">
        <ele>135</ele>
        <time>2017-01-15T18:42:44Z</time>
      </trkpt>
      <trkpt lat="48.31722" lon="-3.92651">
        <ele>134</ele>
        <time>2017-01-15T18:44:44Z</time>
      </trkpt>
      <trkpt lat="48.31723" lon="-3.92646">
        <ele>133</ele>
        <time>2017-01-15T18:46:44Z</time>
      </trkpt>
      <trkpt lat="48.31725" lon="-3.9264">
        <ele>133</ele>
        <time>2017-01-15T18:48:44Z</time>
      </trkpt>
      <trkpt lat="48.31738" lon="-3.92614">
        <ele>130</ele>
        <time>2017-01-15T18:50:44Z</time>
      </trkpt>
      <trkpt lat="48.31754" lon="-3.92592">
        <ele>127</ele>
        <time>2017-01-15T18:52:44Z</time>
      </trkpt>
      <trkpt lat="48.31778" lon="-3.92581">
        <ele>126</ele>
        <time>2017-01-15T18:54:44Z</time>
      </trkpt>
      <trkpt lat="48.31799" lon="-3.92559">
        <ele>124</ele>
        <time>2017-01-15T18:56:44Z</time>
      </trkpt>
      <trkpt lat="48.31819" lon="-3.92537">
        <ele>122</ele>
        <time>2017-01-15T18:58:44Z</time>
      </trkpt>
      <trkpt lat="48.31826" lon="-3.9253">
        <ele>122</ele>
        <time>2017-01-15T19:00:44Z</time>
      </trkpt>
      <trkpt lat="48.31828" lon="-3.92527">
        <ele>122</ele>
        <time>2017-01-15T19:02:44Z</time>
      </trkpt>
      <trkpt lat="48.31848" lon="-3.92497">
        <ele>121</ele>
        <time>2017-01-15T19:04:44Z</time>
      </trkpt>
      <trkpt lat="48.3187" lon="-3.9247">
        <ele>122</ele>
        <time>2017-01-15T19:06:44Z</time>
      </trkpt>
      <trkpt lat="48.31894" lon="-3.92451">
        <ele>124</ele>
        <time>2017-01-15T19:08:44Z</time>
      </trkpt>
      <trkpt lat="48.31916" lon="-3.92438">
        <ele>125</ele>
        <time>2017-01-15T19:10:44Z</time>
      </trkpt>
      <trkpt lat="48.31943" lon="-3.92422">
        <ele>128</ele>
        <time>2017-01-15T19:12:44Z</time>
      </trkpt>
      <trkpt lat="48.31969" lon="-3.92415">
        <ele>131</ele>
        <time>2017-01-15T19:14:44Z</time>
      </trkpt>
      <trkpt lat="48.31988" lon="-3.92422">
        <ele>132</ele>
        <time>2017-01-15T19:16:44Z</time>
      </trkpt>
      <trkpt lat="48.3201" lon="-3.92435">
        <ele>133</ele>
        <time>2017-01-15T19:18:44Z</time>
      </trkpt>
      <trkpt lat="48.32026" lon="-3.92443">
        <ele>133</ele>
        <time>2017-01-15T19:20:44Z</time>
      </trkpt>
      <trkpt lat="48.32053" lon="-3.92434">
        <ele>135</ele>
        <time>2017-01-15T19:22:44Z</time>
      </trkpt>
      <trkpt lat="48.32089" lon="-3.92407">
        <ele>140</ele>
        <time>2017-01-15T19:24:44Z</time>
      </trkpt>
      <trkpt lat="48.32111" lon="-3.92369">
        <ele>142</ele>
        <time>2017-01-15T19:26:44Z</time>
      </trkpt>
      <trkpt lat="48.32128" lon="-3.92342">
        <ele>144</ele>
        <time>2017-01-15T19:28:44Z</time>
      </trkpt>
      <trkpt lat="48.32132" lon="-3.92331">
        <ele>145</ele>
        <time>2017-01-15T19:30:44Z</time>
      </trkpt>
      <trkpt lat="48.32151" lon="-3.92299">
        <ele>149</ele>
        <time>2017-01-15T19:32:44Z</time>
      </trkpt>
      <trkpt lat="48.32166" lon="-3.92272">
        <ele>153</ele>
        <time>2017-01-15T19:34:44Z</time>
      </trkpt>
      <trkpt lat="48.32182" lon="-3.9224">
        <ele>155</ele>
        <time>2017-01-15T19:36:44Z</time>
      </trkpt>
      <trkpt lat="48.32197" lon="-3.92213">
        <ele>156</ele>
        <time>2017-01-15T19:38:44Z</time>
      </trkpt>
      <trkpt lat="48.32209" lon="-3.92174">
        <ele>160</ele>
        <time>2017-01-15T19:40:44Z</time>
      </trkpt>
      <trkpt lat="48.32216" lon="-3.92147">
        <ele>161</ele>
        <time>2017-01-15T19:42:44Z</time>
      </trkpt>
      <trkpt lat="48.3222" lon="-3.92115">
        <ele>164</ele>
        <time>2017-01-15T19:44:44Z</time>
      </trkpt>
      <trkpt lat="48.32221" lon="-3.92112">
        <ele>164</ele>
        <time>2017-01-15T19:46:44Z</time>
      </trkpt>
      <trkpt lat="48.32223" lon="-3.921">
        <ele>165</ele>
        <time>2017-01-15T19:48:44Z</time>
      </trkpt>
      <trkpt lat="48.32227" lon="-3.9208">
        <ele>166</ele>
        <time>2017-01-15T19:50:44Z</time>
      </trkpt>
      <trkpt lat="48.32229" lon="-3.92069">
        <ele>167</ele>
        <time>2017-01-15T19:52:44Z</time>
      </trkpt>
      <trkpt lat="48.32236" lon="-3.92035">
        <ele>168</ele>
        <time>2017-01-15T19:54:44Z</time>
      </trkpt>
      <trkpt lat="48.32244" lon="-3.91988">
        <ele>170</ele>
        <time>2017-01-15T19:56:44Z</time>
      </trkpt>
      <trkpt lat="48.32259" lon="-3.91954">
        <ele>171</ele>
        <time>2017-01-15T19:58:44Z</time>
      </trkpt>
      <trkpt lat="48.32283" lon="-3.91938">
        <ele>171</ele>
        <time>2017-01-15T20:00:44Z</time>
      </trkpt>
      <trkpt lat="48.32312" lon="-3.91929">
        <ele>171</ele>
        <time>2017-01-15T20:02:44Z</time>
      </trkpt>
      <trkpt lat="48.32339" lon="-3.91922">
        <ele>171</ele>
        <time>2017-01-15T20:04:44Z</time>
      </trkpt>
      <trkpt lat="48.32369" lon="-3.91916">
        <ele>170</ele>
        <time>2017-01-15T20:06:44Z</time>
      </trkpt>
      <trkpt lat="48.32371" lon="-3.91914">
        <ele>170</ele>
        <time>2017-01-15T20:08:44Z</time>
      </trkpt>
      <trkpt lat="48.32372" lon="-3.91915">
        <ele>170</ele>
        <time>2017-01-15T20:10:44Z</time>
      </trkpt>
      <trkpt lat="48.32381" lon="-3.91914">
        <ele>170</ele>
        <time>2017-01-15T20:12:44Z</time>
      </trkpt>
      <trkpt lat="48.32381" lon="-3.91915">
        <ele>170</ele>
        <time>2017-01-15T20:14:44Z</time>
      </trkpt>
      <trkpt lat="48.32381" lon="-3.91915">
        <ele>170</ele>
        <time>2017-01-15T20:16:44Z</time>
      </trkpt>
      <trkpt lat="48.32387" lon="-3.91914">
        <ele>170</ele>
        <time>2017-01-15T20:18:44Z</time>
      </trkpt>
      <trkpt lat="48.3244" lon="-3.9195">
        <ele>168</ele>
        <time>2017-01-15T20:20:44Z</time>
      </trkpt>
      <trkpt lat="48.32464" lon="-3.91965">
        <ele>169</ele>
        <time>2017-01-15T20:22:44Z</time>
      </trkpt>
      <trkpt lat="48.32488" lon="-3.91979">
        <ele>170</ele>
        <time>2017-01-15T20:24:44Z</time>
      </trkpt>
      <trkpt lat="48.32509" lon="-3.91985">
        <ele>172</ele>
        <time>2017-01-15T20:26:44Z</time>
      </trkpt>
      <trkpt lat="48.32538" lon="-3.91989">
        <ele>174</ele>
        <time>2017-01-15T20:28:44Z</time>
      </trkpt>
      <trkpt lat="48.32546" lon="-3.91989">
        <ele>175</ele>
        <time>2017-01-15T20:30:44Z</time>
      </trkpt>
      <trkpt lat="48.32584" lon="-3.91987">
        <ele>178</ele>
        <time>2017-01-15T20:32:44Z</time>
      </trkpt>
      <trkpt lat="48.32611" lon="-3.91984">
        <ele>180</ele>
        <time>2017-01-15T20:34:44Z</time>
      </trkpt>
      <trkpt lat="48.32638" lon="-3.91986">
        <ele>181</ele>
        <time>2017-01-15T20:36:44Z</time>
      </trkpt>
      <trkpt lat="48.32656" lon="-3.91995">
        <ele>182</ele>
        <time>2017-01-15T20:38:44Z</time>
      </trkpt>
      <trkpt lat="48.32662" lon="-3.91989">
        <ele>182</ele>
        <time>2017-01-15T20:40:44Z</time>
      </trkpt>
      <trkpt lat="48.32666" lon="-3.91982">
        <ele>183</ele>
        <time>2017-01-15T20:42:44Z</time>
      </trkpt>
      <trkpt lat="48.3269" lon="-3.91984">
        <ele>184</ele>
        <time>2017-01-15T20:44:44Z</time>
      </trkpt>
      <trkpt lat="48.32716" lon="-3.91995">
        <ele>185</ele>
        <time>2017-01-15T20:46:44Z</time>
      </trkpt>
      <trkpt lat="48.32733" lon="-3.92008">
        <ele>185</ele>
        <time>2017-01-15T20:48:44Z</time>
      </trkpt>
      <trkpt lat="48.32766" lon="-3.92027">
        <ele>187</ele>
        <time>2017-01-15T20:50:44Z</time>
      </trkpt>
      <trkpt lat="48.32832" lon="-3.92049">
        <ele>192</ele>
        <time>2017-01-15T20:52:44Z</time>
      </trkpt>
      <trkpt lat="48.32861" lon="-3.92053">
        <ele>198</ele>
        <time>2017-01-15T20:54:44Z</time>
      </trkpt>
      <trkpt lat="48.32863" lon="-3.92054">
        <ele>198</ele>
        <time>2017-01-15T20:56:44Z</time>
      </trkpt>
      <trkpt lat="48.32885" lon="-3.9205">
        <ele>203</ele>
        <time>2017-01-15T20:58:44Z</time>
      </trkpt>
      <trkpt lat="48.32886" lon="-3.92048">
        <ele>203</ele>
        <time>2017-01-15T21:00:44Z</time>
      </trkpt>
      <trkpt lat="48.329" lon="-3.92012">
        <ele>208</ele>
        <time>2017-01-15T21:02:44Z</time>
      </trkpt>
      <trkpt lat="48.32907" lon="-3.91989">
        <ele>210</ele>
        <time>2017-01-15T21:04:44Z</time>
      </trkpt>
      <trkpt lat="48.32921" lon="-3.91972">
        <ele>212</ele>
        <time>2017-01-15T21:06:44Z</time>
      </trkpt>
      <trkpt lat="48.32934" lon="-3.91958">
        <ele>213</ele>
        <time>2017-01-15T21:08:44Z</time>
      </trkpt>
      <trkpt lat="48.32957" lon="-3.91947">
        <ele>216</ele>
        <time>2017-01-15T21:10:44Z</time>
      </trkpt>
      <trkpt lat="48.32976" lon="-3.91942">
        <ele>219</ele>
        <time>2017-01-15T21:12:44Z</time>
      </trkpt>
      <trkpt lat="48.33017" lon="-3.91941">
        <ele>223</ele>
        <time>2017-01-15T21:14:44Z</time>
      </trkpt>
      <trkpt lat="48.3304" lon="-3.91948">
        <ele>225</ele>
        <time>2017-01-15T21:16:44Z</time>
      </trkpt>
      <trkpt lat="48.33049" lon="-3.91951">
        <ele>226</ele>
        <time>2017-01-15T21:18:44Z</time>
      </trkpt>
      <trkpt lat="48.33078" lon="-3.91966">
        <ele>228</ele>
        <time>2017-01-15T21:20:44Z</time>
      </trkpt>
      <trkpt lat="48.33114" lon="-3.9197">
        <ele>232</ele>
        <time>2017-01-15T21:22:44Z</time>
      </trkpt>
      <trkpt lat="48.33125" lon="-3.91972">
        <ele>234</ele>
        <time>2017-01-15T21:24:44Z</time>
      </trkpt>
      <trkpt lat="48.33143" lon="-3.91969">
        <ele>236</ele>
        <time>2017-01-15T21:26:44Z</time>
      </trkpt>
      <trkpt lat="48.33158" lon="-3.9197">
        <ele>238</ele>
        <time>2017-01-15T21:28:44Z</time>
      </trkpt>
      <trkpt lat="48.33183" lon="-3.91962">
        <ele>241</ele>
        <time>2017-01-15T21:30:44Z</time>
      </trkpt>
      <trkpt lat="48.33205" lon="-3.9196">
        <ele>243</ele>
        <time>2017-01-15T21:32:44Z</time>
      </trkpt>
      <trkpt lat="48.33225" lon="-3.91961">
        <ele>245</ele>
        <time>2017-01-15T21:34:44Z</time>
      </trkpt>
      <trkpt lat="48.33245" lon="-3.91959">
        <ele>247</ele>
        <time>2017-01-15T21:36:44Z</time>
      </trkpt>
      <trkpt lat="48.33272" lon="-3.91957">
        <ele>249</ele>
        <time>2017-01-15T21:38:44Z</time>
      </trkpt>
      <trkpt lat="48.33297" lon="-3.91946">
        <ele>251</ele>
        <time>2017-01-15T21:40:44Z</time>
      </trkpt>
      <trkpt lat="48.33304" lon="-3.9194">
        <ele>252</ele>
        <time>2017-01-15T21:42:44Z</time>
      </trkpt>
      <trkpt lat="48.33328" lon="-3.91928">
        <ele>254</ele>
        <time>2017-01-15T21:44:44Z</time>
      </trkpt>
      <trkpt lat="48.33358" lon="-3.91924">
        <ele>255</ele>
        <time>2017-01-15T21:46:44Z</time>
      </trkpt>
      <trkpt lat="48.33364" lon="-3.91922">
        <ele>255</ele>
        <time>2017-01-15T21:48:44Z</time>
      </trkpt>
      <trkpt lat="48.33395" lon="-3.91912">
        <ele>257</ele>
        <time>2017-01-15T21:50:44Z</time>
      </trkpt>
      <trkpt lat="48.33419" lon="-3.91907">
        <ele>258</ele>
        <time>2017-01-15T21:52:44Z</time>
      </trkpt>
      <trkpt lat="48.33446" lon="-3.91902">
        <ele>260</ele>
        <time>2017-01-15T21:54:44Z</time>
      </trkpt>
      <trkpt lat="48.33455" lon="-3.91901">
        <ele>260</ele>
        <time>2017-01-15T21:56:44Z</time>
      </trkpt>
      <trkpt lat="48.33477" lon="-3.91895">
        <ele>261</ele>
        <time>2017-01-15T21:58:44Z</time>
      </trkpt>
      <trkpt lat="48.33501" lon="-3.91896">
        <ele>262</ele>
        <time>2017-01-15T22:00:44Z</time>
      </trkpt>
      <trkpt lat="48.33511" lon="-3.91896">
        <ele>262</ele>
        <time>2017-01-15T22:02:44Z</time>
      </trkpt>
      <trkpt lat="48.3352" lon="-3.91901">
        <ele>263</ele>
        <time>2017-01-15T22:04:44Z</time>
      </trkpt>
      <trkpt lat="48.33545" lon="-3.91903">
        <ele>264</ele>
        <time>2017-01-15T22:06:44Z</time>
      </trkpt>
      <trkpt lat="48.33569" lon="-3.91913">
        <ele>265</ele>
        <time>2017-01-15T22:08:44Z</time>
      </trkpt>
      <trkpt lat="48.33589" lon="-3.91922">
        <ele>266</ele>
        <time>2017-01-15T22:10:44Z</time>
      </trkpt>
      <trkpt lat="48.33618" lon="-3.9194">
        <ele>267</ele>
        <time>2017-01-15T22:12:44Z</time>
      </trkpt>
      <trkpt lat="48.33643" lon="-3.91963">
        <ele>267</ele>
        <time>2017-01-15T22:14:44Z</time>
      </trkpt>
      <trkpt lat="48.33671" lon="-3.91983">
        <ele>268</ele>
        <time>2017-01-15T22:16:44Z</time>
      </trkpt>
      <trkpt lat="48.33692" lon="-3.91996">
        <ele>268</ele>
        <time>2017-01-15T22:18:44Z</time>
      </trkpt>
      <trkpt lat="48.33708" lon="-3.92016">
        <ele>268</ele>
        <time>2017-01-15T22:20:44Z</time>
      </trkpt>
      <trkpt lat="48.33728" lon="-3.92037">
        <ele>269</ele>
        <time>2017-01-15T22:22:44Z</time>
      </trkpt>
      <trkpt lat="48.33738" lon="-3.92044">
        <ele>269</ele>
        <time>2017-01-15T22:24:44Z</time>
      </trkpt>
      <trkpt lat="48.33741" lon="-3.92047">
        <ele>269</ele>
        <time>2017-01-15T22:26:44Z</time>
      </trkpt>
      <trkpt lat="48.33745" lon="-3.92051">
        <ele>269</ele>
        <time>2017-01-15T22:28:44Z</time>
      </trkpt>
      <trkpt lat="48.33774" lon="-3.92074">
        <ele>270</ele>
        <time>2017-01-15T22:30:44Z</time>
      </trkpt>
      <trkpt lat="48.33799" lon="-3.92099">
        <ele>270</ele>
        <time>2017-01-15T22:32:44Z</time>
      </trkpt>
      <trkpt lat="48.33821" lon="-3.92125">
        <ele>271</ele>
        <time>2017-01-15T22:34:44Z</time>
      </trkpt>
      <trkpt lat="48.33846" lon="-3.9215">
        <ele>272</ele>
        <time>2017-01-15T22:36:44Z</time>
      </trkpt>
      <trkpt lat="48.33869" lon="-3.92176">
        <ele>274</ele>
        <time>2017-01-15T22:38:44Z</time>
      </trkpt>
      <trkpt lat="48.3389" lon="-3.92207">
        <ele>276</ele>
        <time>2017-01-15T22:40:44Z</time>
      </trkpt>
      <trkpt lat="48.33906" lon="-3.92225">
        <ele>277</ele>
        <time>2017-01-15T22:42:44Z</time>
      </trkpt>
      <trkpt lat="48.33908" lon="-3.92227">
        <ele>277</ele>
        <time>2017-01-15T22:44:44Z</time>
      </trkpt>
      <trkpt lat="48.33915" lon="-3.92233">
        <ele>278</ele>
        <time>2017-01-15T22:46:44Z</time>
      </trkpt>
      <trkpt lat="48.33941" lon="-3.92248">
        <ele>279</ele>
        <time>2017-01-15T22:48:44Z</time>
      </trkpt>
      <trkpt lat="48.33962" lon="-3.92261">
        <ele>280</ele>
        <time>2017-01-15T22:50:44Z</time>
      </trkpt>
      <trkpt lat="48.33981" lon="-3.9228">
        <ele>281</ele>
        <time>2017-01-15T22:52:44Z</time>
      </trkpt>
      <trkpt lat="48.34023" lon="-3.92313">
        <ele>280</ele>
        <time>2017-01-15T22:54:44Z</time>
      </trkpt>
      <trkpt lat="48.34042" lon="-3.92325">
        <ele>278</ele>
        <time>2017-01-15T22:56:44Z</time>
      </trkpt>
      <trkpt lat="48.34049" lon="-3.92326">
        <ele>278</ele>
        <time>2017-01-15T22:58:44Z</time>
      </trkpt>
      <trkpt lat="48.34083" lon="-3.92357">
        <ele>276</ele>
        <time>2017-01-15T23:00:44Z</time>
      </trkpt>
      <trkpt lat="48.3411" lon="-3.9237">
        <ele>277</ele>
        <time>2017-01-15T23:02:44Z</time>
      </trkpt>
      <trkpt lat="48.34112" lon="-3.92372">
        <ele>277</ele>
        <time>2017-01-15T23:04:44Z</time>
      </trkpt>
      <trkpt lat="48.34113" lon="-3.92371">
        <ele>277</ele>
        <time>2017-01-15T23:06:44Z</time>
      </trkpt>
      <trkpt lat="48.34115" lon="-3.92375">
        <ele>277</ele>
        <time>2017-01-15T23:08:44Z</time>
      </trkpt>
      <trkpt lat="48.3412" lon="-3.92379">
        <ele>277</ele>
        <time>2017-01-15T23:10:44Z</time>
      </trkpt>
      <trkpt lat="48.34129" lon="-3.92378">
        <ele>277</ele>
        <time>2017-01-15T23:12:44Z</time>
      </trkpt>
      <trkpt lat="48.34152" lon="-3.92387">
        <ele>278</ele>
        <time>2017-01-15T23:14:44Z</time>
      </trkpt>
      <trkpt lat="48.34171" lon="-3.92399">
        <ele>278</ele>
        <time>2017-01-15T23:16:44Z</time>
      </trkpt>
      <trkpt lat="48.34193" lon="-3.92418">
        <ele>278</ele>
        <time>2017-01-15T23:18:44Z</time>
      </trkpt>
      <trkpt lat="48.34207" lon="-3.92437">
        <ele>277</ele>
        <time>2017-01-15T23:20:44Z</time>
      </trkpt>
      <trkpt lat="48.34224" lon="-3.92466">
        <ele>277</ele>
        <time>2017-01-15T23:22:44Z</time>
      </trkpt>
      <trkpt lat="48.3424" lon="-3.92491">
        <ele>276</ele>
        <time>2017-01-15T23:24:44Z</time>
      </trkpt>
      <trkpt lat="48.3428" lon="-3.92541">
        <ele>276</ele>
        <time>2017-01-15T23:26:44Z</time>
      </trkpt>
      <trkpt lat="48.34302" lon="-3.9256">
        <ele>276</ele>
        <time>2017-01-15T23:28:44Z</time>
      </trkpt>
      <trkpt lat="48.34323" lon="-3.92579">
        <ele>275</ele>
        <time>2017-01-15T23:30:44Z</time>
      </trkpt>
      <trkpt lat="48.34324" lon="-3.9258">
        <ele>275</ele>
        <time>2017-01-15T23:32:44Z</time>
      </trkpt>
      <trkpt lat="48.34327" lon="-3.92582">
        <ele>275</ele>
        <time>2017-01-15T23:34:44Z</time>
      </trkpt>
      <trkpt lat="48.34328" lon="-3.92584">
        <ele>275</ele>
        <time>2017-01-15T23:36:44Z</time>
      </trkpt>
      <trkpt lat="48.34333" lon="-3.92586">
        <ele>275</ele>
        <time>2017-01-15T23:38:44Z</time>
      </trkpt>
      <trkpt lat="48.34348" lon="-3.92594">
        <ele>275</ele>
        <time>2017-01-15T23:40:44Z</time>
      </trkpt>
      <trkpt lat="48.34368" lon="-3.92612">
        <ele>275</ele>
        <time>2017-01-15T23:42:44Z</time>
      </trkpt>
      <trkpt lat="48.34391" lon="-3.92627">
        <ele>275</ele>
        <time>2017-01-15T23:44:44Z</time>
      </trkpt>
      <trkpt lat="48.34392" lon="-3.92628">
        <ele>275</ele>
        <time>2017-01-15T23:46:44Z</time>
      </trkpt>
      <trkpt lat="48.34402" lon="-3.92635">
        <ele>275</ele>
        <time>2017-01-15T23:48:44Z</time>
      </trkpt>
      <trkpt lat="48.34404" lon="-3.92636">
        <ele>275</ele>
        <time>2017-01-15T23:50:44Z</time>
      </trkpt>
      <trkpt lat="48.34409" lon="-3.92635">
        <ele>275</ele>
        <time>2017-01-15T23:52:44Z</time>
      </trkpt>
      <trkpt lat="48.34415" lon="-3.92638">
        <ele>275</ele>
        <time>2017-01-15T23:54:44Z</time>
      </trkpt>
      <trkpt lat="48.34446" lon="-3.92661">
        <ele>275</ele>
        <time>2017-01-15T23:56:44Z</time>
      </trkpt>
      <trkpt lat="48.34464" lon="-3.92695">
        <ele>275</ele>
        <time>2017-01-15T23:58:44Z</time>
      </trkpt>
      <trkpt lat="48.34471" lon="-3.92715">
        <ele>275</ele>
        <time>2017-01-16T00:00:44Z</time>
      </trkpt>
      <trkpt lat="48.34484" lon="-3.92764">
        <ele>274</ele>
        <time>2017-01-16T00:02:44Z</time>
      </trkpt>
      <trkpt lat="48.34488" lon="-3.92806">
        <ele>274</ele>
        <time>2017-01-16T00:04:44Z</time>
      </trkpt>
      <trkpt lat="48.34501" lon="-3.92854">
        <ele>274</ele>
        <time>2017-01-16T00:06:44Z</time>
      </trkpt>
      <trkpt lat="48.3451" lon="-3.92904">
        <ele>274</ele>
        <time>2017-01-16T00:08:44Z</time>
      </trkpt>
      <trkpt lat="48.34506" lon="-3.92965">
        <ele>274</ele>
        <time>2017-01-16T00:10:44Z</time>
      </trkpt>
      <trkpt lat="48.34501" lon="-3.93013">
        <ele>273</ele>
        <time>2017-01-16T00:12:44Z</time>
      </trkpt>
      <trkpt lat="48.34495" lon="-3.93064">
        <ele>274</ele>
        <time>2017-01-16T00:14:44Z</time>
      </trkpt>
      <trkpt lat="48.34493" lon="-3.93103">
        <ele>276</ele>
        <time>2017-01-16T00:16:44Z</time>
      </trkpt>
      <trkpt lat="48.34492" lon="-3.9314">
        <ele>277</ele>
        <time>2017-01-16T00:18:44Z</time>
      </trkpt>
      <trkpt lat="48.34491" lon="-3.93166">
        <ele>278</ele>
        <time>2017-01-16T00:20:44Z</time>
      </trkpt>
      <trkpt lat="48.34489" lon="-3.93229">
        <ele>280</ele>
        <time>2017-01-16T00:22:44Z</time>
      </trkpt>
      <trkpt lat="48.34488" lon="-3.93266">
        <ele>281</ele>
        <time>2017-01-16T00:24:44Z</time>
      </trkpt>
      <trkpt lat="48.34486" lon="-3.93289">
        <ele>282</ele>
        <time>2017-01-16T00:26:44Z</time>
      </trkpt>
      <trkpt lat="48.34484" lon="-3.93299">
        <ele>282</ele>
        <time>2017-01-16T00:28:44Z</time>
      </trkpt>
      <trkpt lat="48.34482" lon="-3.93341">
        <ele>283</ele>
        <time>2017-01-16T00:30:44Z</time>
      </trkpt>
      <trkpt lat="48.34475" lon="-3.93389">
        <ele>284</ele>
        <time>2017-01-16T00:32:44Z</time>
      </trkpt>
      <trkpt lat="48.34465" lon="-3.9343">
        <ele>285</ele>
        <time>2017-01-16T00:34:44Z</time>
      </trkpt>
      <trkpt lat="48.34454" lon="-3.93463">
        <ele>286</ele>
        <time>2017-01-16T00:36:44Z</time>
      </trkpt>
      <trkpt lat="48.34442" lon="-3.93493">
        <ele>287</ele>
        <time>2017-01-16T00:38:44Z</time>
      </trkpt>
      <trkpt lat="48.34429" lon="-3.93527">
        <ele>288</ele>
        <time>2017-01-16T00:40:44Z</time>
      </trkpt>
      <trkpt lat="48.34416" lon="-3.93561">
        <ele>288</ele>
        <time>2017-01-16T00:42:44Z</time>
      </trkpt>
      <trkpt lat="48.34409" lon="-3.93576">
        <ele>288</ele>
        <time>2017-01-16T00:44:44Z</time>
      </trkpt>
      <trkpt lat="48.34406" lon="-3.93583">
        <ele>288</ele>
        <time>2017-01-16T00:46:44Z</time>
      </trkpt>
      <trkpt lat="48.34394" lon="-3.9361">
        <ele>288</ele>
        <time>2017-01-16T00:48:44Z</time>
      </trkpt>
      <trkpt lat="48.34393" lon="-3.93613">
        <ele>288</ele>
        <time>2017-01-16T00:50:44Z</time>
      </trkpt>
      <trkpt lat="48.34379" lon="-3.93647">
        <ele>289</ele>
        <time>2017-01-16T00:52:44Z</time>
      </trkpt>
      <trkpt lat="48.34378" lon="-3.93647">
        <ele>289</ele>
        <time>2017-01-16T00:54:44Z</time>
      </trkpt>
      <trkpt lat="48.34379" lon="-3.93647">
        <ele>289</ele>
        <time>2017-01-16T00:56:44Z</time>
      </trkpt>
      <trkpt lat="48.34378" lon="-3.93647">
        <ele>289</ele>
        <time>2017-01-16T00:58:44Z</time>
      </trkpt>
      <trkpt lat="48.34378" lon="-3.93648">
        <ele>289</ele>
        <time>2017-01-16T01:00:44Z</time>
      </trkpt>
      <trkpt lat="48.34379" lon="-3.93649">
        <ele>289</ele>
        <time>2017-01-16T01:02:44Z</time>
      </trkpt>
      <trkpt lat="48.34377" lon="-3.93651">
        <ele>289</ele>
        <time>2017-01-16T01:04:44Z</time>
      </trkpt>
      <trkpt lat="48.34376" lon="-3.9367">
        <ele>289</ele>
        <time>2017-01-16T01:06:44Z</time>
      </trkpt>
      <trkpt lat="48.34374" lon="-3.93713">
        <ele>290</ele>
        <time>2017-01-16T01:08:44Z</time>
      </trkpt>
      <trkpt lat="48.34372" lon="-3.93724">
        <ele>290</ele>
        <time>2017-01-16T01:10:44Z</time>
      </trkpt>
      <trkpt lat="48.34363" lon="-3.93765">
        <ele>291</ele>
        <time>2017-01-16T01:12:44Z</time>
      </trkpt>
      <trkpt lat="48.34357" lon="-3.93801">
        <ele>291</ele>
        <time>2017-01-16T01:14:44Z</time>
      </trkpt>
      <trkpt lat="48.34352" lon="-3.93841">
        <ele>291</ele>
        <time>2017-01-16T01:16:44Z</time>
      </trkpt>
      <trkpt lat="48.34345" lon="-3.93879">
        <ele>291</ele>
        <time>2017-01-16T01:18:44Z</time>
      </trkpt>
      <trkpt lat="48.34327" lon="-3.93974">
        <ele>293</ele>
        <time>2017-01-16T01:20:44Z</time>
      </trkpt>
      <trkpt lat="48.34323" lon="-3.94013">
        <ele>294</ele>
        <time>2017-01-16T01:22:44Z</time>
      </trkpt>
      <trkpt lat="48.34318" lon="-3.94043">
        <ele>294</ele>
        <time>2017-01-16T01:24:44Z</time>
      </trkpt>
      <trkpt lat="48.3431" lon="-3.94084">
        <ele>295</ele>
        <time>2017-01-16T01:26:44Z</time>
      </trkpt>
      <trkpt lat="48.34299" lon="-3.94127">
        <ele>294</ele>
        <time>2017-01-16T01:28:44Z</time>
      </trkpt>
      <trkpt lat="48.3429" lon="-3.94163">
        <ele>294</ele>
        <time>2017-01-16T01:30:44Z</time>
      </trkpt>
      <trkpt lat="48.34285" lon="-3.94179">
        <ele>294</ele>
        <time>2017-01-16T01:32:44Z</time>
      </trkpt>
      <trkpt lat="48.34283" lon="-3.94185">
        <ele>293</ele>
        <time>2017-01-16T01:34:44Z</time>
      </trkpt>
      <trkpt lat="48.34282" lon="-3.9419">
        <ele>293</ele>
        <time>2017-01-16T01:36:44Z</time>
      </trkpt>
      <trkpt lat="48.34265" lon="-3.94236">
        <ele>292</ele>
        <time>2017-01-16T01:38:44Z</time>
      </trkpt>
      <trkpt lat="48.3425" lon="-3.94269">
        <ele>292</ele>
        <time>2017-01-16T01:40:44Z</time>
      </trkpt>
      <trkpt lat="48.34242" lon="-3.9428">
        <ele>291</ele>
        <time>2017-01-16T01:42:44Z</time>
      </trkpt>
      <trkpt lat="48.34234" lon="-3.94292">
        <ele>291</ele>
        <time>2017-01-16T01:44:44Z</time>
      </trkpt>
      <trkpt lat="48.34227" lon="-3.94303">
        <ele>290</ele>
        <time>2017-01-16T01:46:44Z</time>
      </trkpt>
      <trkpt lat="48.34206" lon="-3.94338">
        <ele>289</ele>
        <time>2017-01-16T01:48:44Z</time>
      </trkpt>
      <trkpt lat="48.34194" lon="-3.94369">
        <ele>289</ele>
        <time>2017-01-16T01:50:44Z</time>
      </trkpt>
      <trkpt lat="48.34177" lon="-3.94402">
        <ele>289</ele>
        <time>2017-01-16T01:52:44Z</time>
      </trkpt>
      <trkpt lat="48.34155" lon="-3.94427">
        <ele>289</ele>
        <time>2017-01-16T01:54:44Z</time>
      </trkpt>
      <trkpt lat="48.34132" lon="-3.94447">
        <ele>289</ele>
        <time>2017-01-16T01:56:44Z</time>
      </trkpt>
      <trkpt lat="48.34117" lon="-3.94448">
        <ele>289</ele>
        <time>2017-01-16T01:58:44Z</time>
      </trkpt>
      <trkpt lat="48.341" lon="-3.94466">
        <ele>289</ele>
        <time>2017-01-16T02:00:44Z</time>
      </trkpt>
      <trkpt lat="48.34082" lon="-3.94516">
        <ele>290</ele>
        <time>2017-01-16T02:02:44Z</time>
      </trkpt>
      <trkpt lat="48.34073" lon="-3.94545">
        <ele>290</ele>
        <time>2017-01-16T02:04:44Z</time>
      </trkpt>
      <trkpt lat="48.34042" lon="-3.94594">
        <ele>291</ele>
        <time>2017-01-16T02:06:44Z</time>
      </trkpt>
      <trkpt lat="48.34031" lon="-3.94623">
        <ele>291</ele>
        <time>2017-01-16T02:08:44Z</time>
      </trkpt>
      <trkpt lat="48.34008" lon="-3.94629">
        <ele>292</ele>
        <time>2017-01-16T02:10:44Z</time>
      </trkpt>
      <trkpt lat="48.3399" lon="-3.94646">
        <ele>293</ele>
        <time>2017-01-16T02:12:44Z</time>
      </trkpt>
      <trkpt lat="48.33974" lon="-3.94656">
        <ele>295</ele>
        <time>2017-01-16T02:14:44Z</time>
      </trkpt>
      <trkpt lat="48.33948" lon="-3.94671">
        <ele>297</ele>
        <time>2017-01-16T02:16:44Z</time>
      </trkpt>
      <trkpt lat="48.33928" lon="-3.94689">
        <ele>299</ele>
        <time>2017-01-16T02:18:44Z</time>
      </trkpt>
      <trkpt lat="48.33913" lon="-3.94705">
        <ele>300</ele>
        <time>2017-01-16T02:20:44Z</time>
      </trkpt>
      <trkpt lat="48.33876" lon="-3.94751">
        <ele>300</ele>
        <time>2017-01-16T02:22:44Z</time>
      </trkpt>
      <trkpt lat="48.3386" lon="-3.94776">
        <ele>301</ele>
        <time>2017-01-16T02:24:44Z</time>
      </trkpt>
      <trkpt lat="48.33851" lon="-3.94803">
        <ele>301</ele>
        <time>2017-01-16T02:26:44Z</time>
      </trkpt>
      <trkpt lat="48.33842" lon="-3.94844">
        <ele>302</ele>
        <time>2017-01-16T02:28:44Z</time>
      </trkpt>
      <trkpt lat="48.3383" lon="-3.94878">
        <ele>303</ele>
        <time>2017-01-16T02:30:44Z</time>
      </trkpt>
      <trkpt lat="48.33818" lon="-3.94913">
        <ele>304</ele>
        <time>2017-01-16T02:32:44Z</time>
      </trkpt>
      <trkpt lat="48.3381" lon="-3.94943">
        <ele>305</ele>
        <time>2017-01-16T02:34:44Z</time>
      </trkpt>
      <trkpt lat="48.33796" lon="-3.95011">
        <ele>306</ele>
        <time>2017-01-16T02:36:44Z</time>
      </trkpt>
      <trkpt lat="48.33779" lon="-3.95091">
        <ele>305</ele>
        <time>2017-01-16T02:38:44Z</time>
      </trkpt>
      <trkpt lat="48.3377" lon="-3.95133">
        <ele>306</ele>
        <time>2017-01-16T02:40:44Z</time>
      </trkpt>
      <trkpt lat="48.33761" lon="-3.95185">
        <ele>308</ele>
        <time>2017-01-16T02:42:44Z</time>
      </trkpt>
      <trkpt lat="48.33761" lon="-3.95198">
        <ele>308</ele>
        <time>2017-01-16T02:44:44Z</time>
      </trkpt>
      <trkpt lat="48.33754" lon="-3.95238">
        <ele>309</ele>
        <time>2017-01-16T02:46:44Z</time>
      </trkpt>
      <trkpt lat="48.33745" lon="-3.95277">
        <ele>310</ele>
        <time>2017-01-16T02:48:44Z</time>
      </trkpt>
      <trkpt lat="48.33739" lon="-3.95313">
        <ele>310</ele>
        <time>2017-01-16T02:50:44Z</time>
      </trkpt>
      <trkpt lat="48.33735" lon="-3.95348">
        <ele>311</ele>
        <time>2017-01-16T02:52:44Z</time>
      </trkpt>
      <trkpt lat="48.33733" lon="-3.95382">
        <ele>312</ele>
        <time>2017-01-16T02:54:44Z</time>
      </trkpt>
      <trkpt lat="48.33729" lon="-3.9542">
        <ele>313</ele>
        <time>2017-01-16T02:56:44Z</time>
      </trkpt>
      <trkpt lat="48.33719" lon="-3.95464">
        <ele>313</ele>
        <time>2017-01-16T02:58:44Z</time>
      </trkpt>
      <trkpt lat="48.33714" lon="-3.95504">
        <ele>313</ele>
        <time>2017-01-16T03:00:44Z</time>
      </trkpt>
      <trkpt lat="48.33709" lon="-3.95542">
        <ele>313</ele>
        <time>2017-01-16T03:02:44Z</time>
      </trkpt>
      <trkpt lat="48.337" lon="-3.95589">
        <ele>313</ele>
        <time>2017-01-16T03:04:44Z</time>
      </trkpt>
      <trkpt lat="48.33701" lon="-3.95636">
        <ele>312</ele>
        <time>2017-01-16T03:06:44Z</time>
      </trkpt>
      <trkpt lat="48.33704" lon="-3.95645">
        <ele>311</ele>
        <time>2017-01-16T03:08:44Z</time>
      </trkpt>
      <trkpt lat="48.33705" lon="-3.95655">
        <ele>311</ele>
        <time>2017-01-16T03:10:44Z</time>
      </trkpt>
      <trkpt lat="48.33702" lon="-3.95662">
        <ele>311</ele>
        <time>2017-01-16T03:12:44Z</time>
      </trkpt>
      <trkpt lat="48.33696" lon="-3.95679">
        <ele>313</ele>
        <time>2017-01-16T03:14:44Z</time>
      </trkpt>
      <trkpt lat="48.3369" lon="-3.95725">
        <ele>314</ele>
        <time>2017-01-16T03:16:44Z</time>
      </trkpt>
      <trkpt lat="48.3369" lon="-3.9577">
        <ele>313</ele>
        <time>2017-01-16T03:18:44Z</time>
      </trkpt>
      <trkpt lat="48.33677" lon="-3.95858">
        <ele>313</ele>
        <time>2017-01-16T03:20:44Z</time>
      </trkpt>
      <trkpt lat="48.33669" lon="-3.95903">
        <ele>314</ele>
        <time>2017-01-16T03:22:44Z</time>
      </trkpt>
      <trkpt lat="48.33659" lon="-3.9595">
        <ele>315</ele>
        <time>2017-01-16T03:24:44Z</time>
      </trkpt>
      <trkpt lat="48.33653" lon="-3.96002">
        <ele>316</ele>
        <time>2017-01-16T03:26:44Z</time>
      </trkpt>
      <trkpt lat="48.33642" lon="-3.96055">
        <ele>317</ele>
        <time>2017-01-16T03:28:44Z</time>
      </trkpt>
      <trkpt lat="48.33635" lon="-3.96087">
        <ele>319</ele>
        <time>2017-01-16T03:30:44Z</time>
      </trkpt>
      <trkpt lat="48.33628" lon="-3.96115">
        <ele>320</ele>
        <time>2017-01-16T03:32:44Z</time>
      </trkpt>
      <trkpt lat="48.33625" lon="-3.96121">
        <ele>321</ele>
        <time>2017-01-16T03:34:44Z</time>
      </trkpt>
      <trkpt lat="48.33612" lon="-3.96175">
        <ele>323</ele>
        <time>2017-01-16T03:36:44Z</time>
      </trkpt>
      <trkpt lat="48.33607" lon="-3.96212">
        <ele>324</ele>
        <time>2017-01-16T03:38:44Z</time>
      </trkpt>
      <trkpt lat="48.33608" lon="-3.9622">
        <ele>324</ele>
        <time>2017-01-16T03:40:44Z</time>
      </trkpt>
      <trkpt lat="48.33608" lon="-3.96227">
        <ele>324</ele>
        <time>2017-01-16T03:42:44Z</time>
      </trkpt>
      <trkpt lat="48.33608" lon="-3.96277">
        <ele>323</ele>
        <time>2017-01-16T03:44:44Z</time>
      </trkpt>
      <trkpt lat="48.336" lon="-3.96318">
        <ele>322</ele>
        <time>2017-01-16T03:46:44Z</time>
      </trkpt>
      <trkpt lat="48.33601" lon="-3.96371">
        <ele>318</ele>
        <time>2017-01-16T03:48:44Z</time>
      </trkpt>
      <trkpt lat="48.33599" lon="-3.96387">
        <ele>317</ele>
        <time>2017-01-16T03:50:44Z</time>
      </trkpt>
      <trkpt lat="48.33599" lon="-3.96395">
        <ele>316</ele>
        <time>2017-01-16T03:52:44Z</time>
      </trkpt>
      <trkpt lat="48.33599" lon="-3.96453">
        <ele>313</ele>
        <time>2017-01-16T03:54:44Z</time>
      </trkpt>
      <trkpt lat="48.33598" lon="-3.96471">
        <ele>312</ele>
        <time>2017-01-16T03:56:44Z</time>
      </trkpt>
      <trkpt lat="48.3361" lon="-3.96507">
        <ele>311</ele>
        <time>2017-01-16T03:58:44Z</time>
      </trkpt>
      <trkpt lat="48.3362" lon="-3.96556">
        <ele>310</ele>
        <time>2017-01-16T04:00:44Z</time>
      </trkpt>
      <trkpt lat="48.33627" lon="-3.96594">
        <ele>310</ele>
        <time>2017-01-16T04:02:44Z</time>
      </trkpt>
      <trkpt lat="48.33636" lon="-3.9663">
        <ele>310</ele>
        <time>2017-01-16T04:04:44Z</time>
      </trkpt>
      <trkpt lat="48.33642" lon="-3.96673">
        <ele>309</ele>
        <time>2017-01-16T04:06:44Z</time>
      </trkpt>
      <trkpt lat="48.33642" lon="-3.96689">
        <ele>309</ele>
        <time>2017-01-16T04:08:44Z</time>
      </trkpt>
      <trkpt lat="48.33642" lon="-3.96694">
        <ele>309</ele>
        <time>2017-01-16T04:10:44Z</time>
      </trkpt>
      <trkpt lat="48.33642" lon="-3.96698">
        <ele>309</ele>
        <time>2017-01-16T04:12:44Z</time>
      </trkpt>
      <trkpt lat="48.33643" lon="-3.96708">
        <ele>309</ele>
        <time>2017-01-16T04:14:44Z</time>
      </trkpt>
      <trkpt lat="48.33648" lon="-3.96747">
        <ele>308</ele>
        <time>2017-01-16T04:16:44Z</time>
      </trkpt>
      <trkpt lat="48.33647" lon="-3.96789">
        <ele>307</ele>
        <time>2017-01-16T04:18:44Z</time>
      </trkpt>
      <trkpt lat="48.33647" lon="-3.96834">
        <ele>305</ele>
        <time>2017-01-16T04:20:44Z</time>
      </trkpt>
      <trkpt lat="48.33646" lon="-3.96867">
        <ele>306</ele>
        <time>2017-01-16T04:22:44Z</time>
      </trkpt>
      <trkpt lat="48.3364" lon="-3.96906">
        <ele>307</ele>
        <time>2017-01-16T04:24:44Z</time>
      </trkpt>
      <trkpt lat="48.33641" lon="-3.96923">
        <ele>307</ele>
        <time>2017-01-16T04:26:44Z</time>
      </trkpt>
      <trkpt lat="48.33639" lon="-3.96959">
        <ele>307</ele>
        <time>2017-01-16T04:28:44Z</time>
      </trkpt>
      <trkpt lat="48.33636" lon="-3.96977">
        <ele>307</ele>
        <time>2017-01-16T04:30:44Z</time>
      </trkpt>
      <trkpt lat="48.33637" lon="-3.96979">
        <ele>307</ele>
        <time>2017-01-16T04:32:44Z</time>
      </trkpt>
      <trkpt lat="48.33647" lon="-3.96987">
        <ele>307</ele>
        <time>2017-01-16T04:34:44Z</time>
      </trkpt>
      <trkpt lat="48.33659" lon="-3.96989">
        <ele>307</ele>
        <time>2017-01-16T04:36:44Z</time>
      </trkpt>
      <trkpt lat="48.3367" lon="-3.96987">
        <ele>307</ele>
        <time>2017-01-16T04:38:44Z</time>
      </trkpt>
      <trkpt lat="48.33694" lon="-3.96992">
        <ele>305</ele>
        <time>2017-01-16T04:40:44Z</time>
      </trkpt>
      <trkpt lat="48.3373" lon="-3.96991">
        <ele>303</ele>
        <time>2017-01-16T04:42:44Z</time>
      </trkpt>
      <trkpt lat="48.33778" lon="-3.96992">
        <ele>300</ele>
        <time>2017-01-16T04:44:44Z</time>
      </trkpt>
      <trkpt lat="48.338" lon="-3.96994">
        <ele>298</ele>
        <time>2017-01-16T04:46:44Z</time>
      </trkpt>
      <trkpt lat="48.33872" lon="-3.96983">
        <ele>292</ele>
        <time>2017-01-16T04:48:44Z</time>
      </trkpt>
      <trkpt lat="48.33893" lon="-3.96983">
        <ele>289</ele>
        <time>2017-01-16T04:50:44Z</time>
      </trkpt>
      <trkpt lat="48.33912" lon="-3.96972">
        <ele>287</ele>
        <time>2017-01-16T04:52:44Z</time>
      </trkpt>
      <trkpt lat="48.33919" lon="-3.96972">
        <ele>286</ele>
        <time>2017-01-16T04:54:44Z</time>
      </trkpt>
      <trkpt lat="48.33942" lon="-3.96962">
        <ele>281</ele>
        <time>2017-01-16T04:56:44Z</time>
      </trkpt>
      <trkpt lat="48.3395" lon="-3.96962">
        <ele>279</ele>
        <time>2017-01-16T04:58:44Z</time>
      </trkpt>
      <trkpt lat="48.33952" lon="-3.96963">
        <ele>279</ele>
        <time>2017-01-16T05:00:44Z</time>
      </trkpt>
      <trkpt lat="48.33958" lon="-3.96961">
        <ele>277</ele>
        <time>2017-01-16T05:02:44Z</time>
      </trkpt>
      <trkpt lat="48.33971" lon="-3.96962">
        <ele>275</ele>
        <time>2017-01-16T05:04:44Z</time>
      </trkpt>
      <trkpt lat="48.33979" lon="-3.96957">
        <ele>273</ele>
        <time>2017-01-16T05:06:44Z</time>
      </trkpt>
      <trkpt lat="48.33985" lon="-3.96958">
        <ele>272</ele>
        <time>2017-01-16T05:08:44Z</time>
      </trkpt>
      <trkpt lat="48.34001" lon="-3.96958">
        <ele>268</ele>
        <time>2017-01-16T05:10:44Z</time>
      </trkpt>
      <trkpt lat="48.34022" lon="-3.96966">
        <ele>265</ele>
        <time>2017-01-16T05:12:44Z</time>
      </trkpt>
      <trkpt lat="48.34041" lon="-3.96972">
        <ele>262</ele>
        <time>2017-01-16T05:14:44Z</time>
      </trkpt>
      <trkpt lat="48.34062" lon="-3.9698">
        <ele>258</ele>
        <time>2017-01-16T05:16:44Z</time>
      </trkpt>
      <trkpt lat="48.34083" lon="-3.96991">
        <ele>255</ele>
        <time>2017-01-16T05:18:44Z</time>
      </trkpt>
      <trkpt lat="48.34109" lon="-3.9701">
        <ele>250</ele>
        <time>2017-01-16T05:20:44Z</time>
      </trkpt>
      <trkpt lat="48.34123" lon="-3.97019">
        <ele>247</ele>
        <time>2017-01-16T05:22:44Z</time>
      </trkpt>
      <trkpt lat="48.34141" lon="-3.97028">
        <ele>243</ele>
        <time>2017-01-16T05:24:44Z</time>
      </trkpt>
      <trkpt lat="48.3415" lon="-3.97016">
        <ele>241</ele>
        <time>2017-01-16T05:26:44Z</time>
      </trkpt>
      <trkpt lat="48.34154" lon="-3.97003">
        <ele>240</ele>
        <time>2017-01-16T05:28:44Z</time>
      </trkpt>
      <trkpt lat="48.3415" lon="-3.96977">
        <ele>239</ele>
        <time>2017-01-16T05:30:44Z</time>
      </trkpt>
      <trkpt lat="48.34156" lon="-3.96968">
        <ele>238</ele>
        <time>2017-01-16T05:32:44Z</time>
      </trkpt>
      <trkpt lat="48.34176" lon="-3.96958">
        <ele>233</ele>
        <time>2017-01-16T05:34:44Z</time>
      </trkpt>
      <trkpt lat="48.34203" lon="-3.96952">
        <ele>227</ele>
        <time>2017-01-16T05:36:44Z</time>
      </trkpt>
      <trkpt lat="48.34232" lon="-3.96942">
        <ele>220</ele>
        <time>2017-01-16T05:38:44Z</time>
      </trkpt>
      <trkpt lat="48.34252" lon="-3.96939">
        <ele>216</ele>
        <time>2017-01-16T05:40:44Z</time>
      </trkpt>
      <trkpt lat="48.34256" lon="-3.96938">
        <ele>216</ele>
        <time>2017-01-16T05:42:44Z</time>
      </trkpt>
      <trkpt lat="48.34256" lon="-3.96937">
        <ele>216</ele>
        <time>2017-01-16T05:44:44Z</time>
      </trkpt>
      <trkpt lat="48.34257" lon="-3.96938">
        <ele>216</ele>
        <time>2017-01-16T05:46:44Z</time>
      </trkpt>
      <trkpt lat="48.3426" lon="-3.96937">
        <ele>216</ele>
        <time>2017-01-16T05:48:44Z</time>
      </trkpt>
      <trkpt lat="48.34262" lon="-3.96936">
        <ele>216</ele>
        <time>2017-01-16T05:50:44Z</time>
      </trkpt>
      <trkpt lat="48.34264" lon="-3.96935">
        <ele>216</ele>
        <time>2017-01-16T05:52:44Z</time>
      </trkpt>
      <trkpt lat="48.34268" lon="-3.96933">
        <ele>217</ele>
        <time>2017-01-16T05:54:44Z</time>
      </trkpt>
      <trkpt lat="48.34276" lon="-3.96933">
        <ele>217</ele>
        <time>2017-01-16T05:56:44Z</time>
      </trkpt>
      <trkpt lat="48.34279" lon="-3.96932">
        <ele>217</ele>
        <time>2017-01-16T05:58:44Z</time>
      </trkpt>
      <trkpt lat="48.34277" lon="-3.96932">
        <ele>217</ele>
        <time>2017-01-16T06:00:44Z</time>
      </trkpt>
      <trkpt lat="48.34278" lon="-3.96932">
        <ele>217</ele>
        <time>2017-01-16T06:02:44Z</time>
      </trkpt>
      <trkpt lat="48.34308" lon="-3.9694">
        <ele>217</ele>
        <time>2017-01-16T06:04:44Z</time>
      </trkpt>
      <trkpt lat="48.34328" lon="-3.96939">
        <ele>217</ele>
        <time>2017-01-16T06:06:44Z</time>
      </trkpt>
      <trkpt lat="48.34338" lon="-3.96933">
        <ele>218</ele>
        <time>2017-01-16T06:08:44Z</time>
      </trkpt>
      <trkpt lat="48.34356" lon="-3.96929">
        <ele>220</ele>
        <time>2017-01-16T06:10:44Z</time>
      </trkpt>
      <trkpt lat="48.34368" lon="-3.96929">
        <ele>221</ele>
        <time>2017-01-16T06:12:44Z</time>
      </trkpt>
      <trkpt lat="48.3437" lon="-3.96929">
        <ele>221</ele>
        <time>2017-01-16T06:14:44Z</time>
      </trkpt>
      <trkpt lat="48.34388" lon="-3.96932">
        <ele>222</ele>
        <time>2017-01-16T06:16:44Z</time>
      </trkpt>
      <trkpt lat="48.34411" lon="-3.96939">
        <ele>224</ele>
        <time>2017-01-16T06:18:44Z</time>
      </trkpt>
      <trkpt lat="48.34418" lon="-3.9694">
        <ele>224</ele>
        <time>2017-01-16T06:20:44Z</time>
      </trkpt>
      <trkpt lat="48.34427" lon="-3.96943">
        <ele>225</ele>
        <time>2017-01-16T06:22:44Z</time>
      </trkpt>
      <trkpt lat="48.34449" lon="-3.96949">
        <ele>227</ele>
        <time>2017-01-16T06:24:44Z</time>
      </trkpt>
      <trkpt lat="48.34465" lon="-3.9696">
        <ele>228</ele>
        <time>2017-01-16T06:26:44Z</time>
      </trkpt>
      <trkpt lat="48.34467" lon="-3.96961">
        <ele>228</ele>
        <time>2017-01-16T06:28:44Z</time>
      </trkpt>
      <trkpt lat="48.34472" lon="-3.96964">
        <ele>228</ele>
        <time>2017-01-16T06:30:44Z</time>
      </trkpt>
      <trkpt lat="48.34472" lon="-3.9697">
        <ele>228</ele>
        <time>2017-01-16T06:32:44Z</time>
      </trkpt>
      <trkpt lat="48.34472" lon="-3.96972">
        <ele>228</ele>
        <time>2017-01-16T06:34:44Z</time>
      </trkpt>
      <trkpt lat="48.3448" lon="-3.96976">
        <ele>228</ele>
        <time>2017-01-16T06:36:44Z</time>
      </trkpt>
      <trkpt lat="48.345" lon="-3.96992">
        <ele>229</ele>
        <time>2017-01-16T06:38:44Z</time>
      </trkpt>
      <trkpt lat="48.34507" lon="-3.97008">
        <ele>229</ele>
        <time>2017-01-16T06:40:44Z</time>
      </trkpt>
      <trkpt lat="48.34504" lon="-3.97032">
        <ele>229</ele>
        <time>2017-01-16T06:42:44Z</time>
      </trkpt>
      <trkpt lat="48.345" lon="-3.97038">
        <ele>229</ele>
        <time>2017-01-16T06:44:44Z</time>
      </trkpt>
      <trkpt lat="48.34497" lon="-3.97042">
        <ele>228</ele>
        <time>2017-01-16T06:46:44Z</time>
      </trkpt>
      <trkpt lat="48.34481" lon="-3.9707">
        <ele>227</ele>
        <time>2017-01-16T06:48:44Z</time>
      </trkpt>
      <trkpt lat="48.34471" lon="-3.97105">
        <ele>227</ele>
        <time>2017-01-16T06:50:44Z</time>
      </trkpt>
      <trkpt lat="48.34461" lon="-3.97135">
        <ele>228</ele>
        <time>2017-01-16T06:52:44Z</time>
      </trkpt>
      <trkpt lat="48.34454" lon="-3.9715">
        <ele>228</ele>
        <time>2017-01-16T06:54:44Z</time>
      </trkpt>
      <trkpt lat="48.34451" lon="-3.9716">
        <ele>228</ele>
        <time>2017-01-16T06:56:44Z</time>
      </trkpt>
      <trkpt lat="48.34436" lon="-3.97188">
        <ele>227</ele>
        <time>2017-01-16T06:58:44Z</time>
      </trkpt>
      <trkpt lat="48.34423" lon="-3.97203">
        <ele>227</ele>
        <time>2017-01-16T07:00:44Z</time>
      </trkpt>
      <trkpt lat="48.34415" lon="-3.97211">
        <ele>226</ele>
        <time>2017-01-16T07:02:44Z</time>
      </trkpt>
      <trkpt lat="48.34406" lon="-3.97241">
        <ele>225</ele>
        <time>2017-01-16T07:04:44Z</time>
      </trkpt>
      <trkpt lat="48.34405" lon="-3.97244">
        <ele>225</ele>
        <time>2017-01-16T07:06:44Z</time>
      </trkpt>
      <trkpt lat="48.34404" lon="-3.97251">
        <ele>225</ele>
        <time>2017-01-16T07:08:44Z</time>
      </trkpt>
      <trkpt lat="48.34401" lon="-3.97278">
        <ele>225</ele>
        <time>2017-01-16T07:10:44Z</time>
      </trkpt>
      <trkpt lat="48.34388" lon="-3.97329">
        <ele>223</ele>
        <time>2017-01-16T07:12:44Z</time>
      </trkpt>
      <trkpt lat="48.34382" lon="-3.97351">
        <ele>222</ele>
        <time>2017-01-16T07:14:44Z</time>
      </trkpt>
      <trkpt lat="48.34383" lon="-3.97381">
        <ele>221</ele>
        <time>2017-01-16T07:16:44Z</time>
      </trkpt>
      <trkpt lat="48.34395" lon="-3.97398">
        <ele>221</ele>
        <time>2017-01-16T07:18:44Z</time>
      </trkpt>
      <trkpt lat="48.34406" lon="-3.97416">
        <ele>221</ele>
        <time>2017-01-16T07:20:44Z</time>
      </trkpt>
      <trkpt lat="48.34408" lon="-3.97421">
        <ele>220</ele>
        <time>2017-01-16T07:22:44Z</time>
      </trkpt>
      <trkpt lat="48.34413" lon="-3.97429">
        <ele>220</ele>
        <time>2017-01-16T07:24:44Z</time>
      </trkpt>
      <trkpt lat="48.34431" lon="-3.97454">
        <ele>219</ele>
        <time>2017-01-16T07:26:44Z</time>
      </trkpt>
      <trkpt lat="48.34447" lon="-3.97477">
        <ele>218</ele>
        <time>2017-01-16T07:28:44Z</time>
      </trkpt>
      <trkpt lat="48.34452" lon="-3.97488">
        <ele>217</ele>
        <time>2017-01-16T07:30:44Z</time>
      </trkpt>
      <trkpt lat="48.34469" lon="-3.97512">
        <ele>217</ele>
        <time>2017-01-16T07:32:44Z</time>
      </trkpt>
      <trkpt lat="48.34475" lon="-3.97521">
        <ele>218</ele>
        <time>2017-01-16T07:34:44Z</time>
      </trkpt>
      <trkpt lat="48.34477" lon="-3.97523">
        <ele>218</ele>
        <time>2017-01-16T07:36:44Z</time>
      </trkpt>
      <trkpt lat="48.34479" lon="-3.97524">
        <ele>218</ele>
        <time>2017-01-16T07:38:44Z</time>
      </trkpt>
      <trkpt lat="48.34484" lon="-3.97534">
        <ele>218</ele>
        <time>2017-01-16T07:40:44Z</time>
      </trkpt>
      <trkpt lat="48.34499" lon="-3.97567">
        <ele>218</ele>
        <time>2017-01-16T07:42:44Z</time>
      </trkpt>
      <trkpt lat="48.345" lon="-3.97573">
        <ele>218</ele>
        <time>2017-01-16T07:44:44Z</time>
      </trkpt>
      <trkpt lat="48.34502" lon="-3.97582">
        <ele>218</ele>
        <time>2017-01-16T07:46:44Z</time>
      </trkpt>
      <trkpt lat="48.34503" lon="-3.97588">
        <ele>218</ele>
        <time>2017-01-16T07:48:44Z</time>
      </trkpt>
      <trkpt lat="48.34507" lon="-3.976">
        <ele>218</ele>
        <time>2017-01-16T07:50:44Z</time>
      </trkpt>
      <trkpt lat="48.34508" lon="-3.97616">
        <ele>218</ele>
        <time>2017-01-16T07:52:44Z</time>
      </trkpt>
      <trkpt lat="48.34507" lon="-3.97658">
        <ele>218</ele>
        <time>2017-01-16T07:54:44Z</time>
      </trkpt>
      <trkpt lat="48.34504" lon="-3.97686">
        <ele>219</ele>
        <time>2017-01-16T07:56:44Z</time>
      </trkpt>
      <trkpt lat="48.34501" lon="-3.97714">
        <ele>219</ele>
        <time>2017-01-16T07:58:44Z</time>
      </trkpt>
      <trkpt lat="48.34499" lon="-3.97755">
        <ele>220</ele>
        <time>2017-01-16T08:00:44Z</time>
      </trkpt>
      <trkpt lat="48.345" lon="-3.97795">
        <ele>222</ele>
        <time>2017-01-16T08:02:44Z</time>
      </trkpt>
      <trkpt lat="48.34504" lon="-3.97838">
        <ele>224</ele>
        <time>2017-01-16T08:04:44Z</time>
      </trkpt>
      <trkpt lat="48.34507" lon="-3.9787">
        <ele>225</ele>
        <time>2017-01-16T08:06:44Z</time>
      </trkpt>
      <trkpt lat="48.34509" lon="-3.97909">
        <ele>227</ele>
        <time>2017-01-16T08:08:44Z</time>
      </trkpt>
      <trkpt lat="48.34513" lon="-3.97949">
        <ele>227</ele>
        <time>2017-01-16T08:10:44Z</time>
      </trkpt>
      <trkpt lat="48.34517" lon="-3.97984">
        <ele>228</ele>
        <time>2017-01-16T08:12:44Z</time>
      </trkpt>
      <trkpt lat="48.34519" lon="-3.98007">
        <ele>228</ele>
        <time>2017-01-16T08:14:44Z</time>
      </trkpt>
      <trkpt lat="48.34521" lon="-3.9802">
        <ele>229</ele>
        <time>2017-01-16T08:16:44Z</time>
      </trkpt>
      <trkpt lat="48.34527" lon="-3.98037">
        <ele>229</ele>
        <time>2017-01-16T08:18:44Z</time>
      </trkpt>
      <trkpt lat="48.34534" lon="-3.98054">
        <ele>230</ele>
        <time>2017-01-16T08:20:44Z</time>
      </trkpt>
      <trkpt lat="48.34544" lon="-3.98084">
        <ele>231</ele>
        <time>2017-01-16T08:22:44Z</time>
      </trkpt>
      <trkpt lat="48.34564" lon="-3.98134">
        <ele>230</ele>
        <time>2017-01-16T08:24:44Z</time>
      </trkpt>
      <trkpt lat="48.34571" lon="-3.98148">
        <ele>230</ele>
        <time>2017-01-16T08:26:44Z</time>
      </trkpt>
      <trkpt lat="48.34584" lon="-3.98179">
        <ele>228</ele>
        <time>2017-01-16T08:28:44Z</time>
      </trkpt>
      <trkpt lat="48.34589" lon="-3.98187">
        <ele>228</ele>
        <time>2017-01-16T08:30:44Z</time>
      </trkpt>
      <trkpt lat="48.34606" lon="-3.98215">
        <ele>227</ele>
        <time>2017-01-16T08:32:44Z</time>
      </trkpt>
      <trkpt lat="48.34617" lon="-3.98247">
        <ele>225</ele>
        <time>2017-01-16T08:34:44Z</time>
      </trkpt>
      <trkpt lat="48.34632" lon="-3.9828">
        <ele>224</ele>
        <time>2017-01-16T08:36:44Z</time>
      </trkpt>
      <trkpt lat="48.34646" lon="-3.98305">
        <ele>223</ele>
        <time>2017-01-16T08:38:44Z</time>
      </trkpt>
      <trkpt lat="48.34658" lon="-3.98329">
        <ele>223</ele>
        <time>2017-01-16T08:40:44Z</time>
      </trkpt>
      <trkpt lat="48.34674" lon="-3.98352">
        <ele>222</ele>
        <time>2017-01-16T08:42:44Z</time>
      </trkpt>
      <trkpt lat="48.34701" lon="-3.98393">
        <ele>220</ele>
        <time>2017-01-16T08:44:44Z</time>
      </trkpt>
      <trkpt lat="48.34702" lon="-3.98396">
        <ele>220</ele>
        <time>2017-01-16T08:46:44Z</time>
      </trkpt>
      <trkpt lat="48.34712" lon="-3.98412">
        <ele>219</ele>
        <time>2017-01-16T08:48:44Z</time>
      </trkpt>
      <trkpt lat="48.34722" lon="-3.98439">
        <ele>217</ele>
        <time>2017-01-16T08:50:44Z</time>
      </trkpt>
      <trkpt lat="48.34737" lon="-3.98466">
        <ele>216</ele>
        <time>2017-01-16T08:52:44Z</time>
      </trkpt>
      <trkpt lat="48.34754" lon="-3.98488">
        <ele>216</ele>
        <time>2017-01-16T08:54:44Z</time>
      </trkpt>
      <trkpt lat="48.34778" lon="-3.98521">
        <ele>215</ele>
        <time>2017-01-16T08:56:44Z</time>
      </trkpt>
      <trkpt lat="48.34789" lon="-3.98543">
        <ele>214</ele>
        <time>2017-01-16T08:58:44Z</time>
      </trkpt>
      <trkpt lat="48.34796" lon="-3.98554">
        <ele>214</ele>
        <time>2017-01-16T09:00:44Z</time>
      </trkpt>
      <trkpt lat="48.34817" lon="-3.98584">
        <ele>214</ele>
        <time>2017-01-16T09:02:44Z</time>
      </trkpt>
      <trkpt lat="48.34827" lon="-3.98593">
        <ele>215</ele>
        <time>2017-01-16T09:04:44Z</time>
      </trkpt>
      <trkpt lat="48.34844" lon="-3.98615">
        <ele>216</ele>
        <time>2017-01-16T09:06:44Z</time>
      </trkpt>
      <trkpt lat="48.34849" lon="-3.98629">
        <ele>217</ele>
        <time>2017-01-16T09:08:44Z</time>
      </trkpt>
      <trkpt lat="48.34845" lon="-3.98635">
        <ele>216</ele>
        <time>2017-01-16T09:10:44Z</time>
      </trkpt>
      <trkpt lat="48.34835" lon="-3.98644">
        <ele>214</ele>
        <time>2017-01-16T09:12:44Z</time>
      </trkpt>
      <trkpt lat="48.34804" lon="-3.98658">
        <ele>210</ele>
        <time>2017-01-16T09:14:44Z</time>
      </trkpt>
      <trkpt lat="48.34787" lon="-3.98662">
        <ele>207</ele>
        <time>2017-01-16T09:16:44Z</time>
      </trkpt>
      <trkpt lat="48.34768" lon="-3.9867">
        <ele>204</ele>
        <time>2017-01-16T09:18:44Z</time>
      </trkpt>
      <trkpt lat="48.34762" lon="-3.98674">
        <ele>203</ele>
        <time>2017-01-16T09:20:44Z</time>
      </trkpt>
      <trkpt lat="48.34738" lon="-3.98681">
        <ele>201</ele>
        <time>2017-01-16T09:22:44Z</time>
      </trkpt>
      <trkpt lat="48.34707" lon="-3.98693">
        <ele>199</ele>
        <time>2017-01-16T09:24:44Z</time>
      </trkpt>
      <trkpt lat="48.34705" lon="-3.98696">
        <ele>198</ele>
        <time>2017-01-16T09:26:44Z</time>
      </trkpt>
      <trkpt lat="48.34703" lon="-3.98703">
        <ele>198</ele>
        <time>2017-01-16T09:28:44Z</time>
      </trkpt>
      <trkpt lat="48.34705" lon="-3.98711">
        <ele>197</ele>
        <time>2017-01-16T09:30:44Z</time>
      </trkpt>
      <trkpt lat="48.34706" lon="-3.98721">
        <ele>197</ele>
        <time>2017-01-16T09:32:44Z</time>
      </trkpt>
      <trkpt lat="48.34706" lon="-3.98762">
        <ele>195</ele>
        <time>2017-01-16T09:34:44Z</time>
      </trkpt>
      <trkpt lat="48.34711" lon="-3.98795">
        <ele>194</ele>
        <time>2017-01-16T09:36:44Z</time>
      </trkpt>
      <trkpt lat="48.34714" lon="-3.9884">
        <ele>194</ele>
        <time>2017-01-16T09:38:44Z</time>
      </trkpt>
      <trkpt lat="48.34715" lon="-3.98847">
        <ele>194</ele>
        <time>2017-01-16T09:40:44Z</time>
      </trkpt>
      <trkpt lat="48.34723" lon="-3.9888">
        <ele>195</ele>
        <time>2017-01-16T09:42:44Z</time>
      </trkpt>
      <trkpt lat="48.34726" lon="-3.98906">
        <ele>196</ele>
        <time>2017-01-16T09:44:44Z</time>
      </trkpt>
      <trkpt lat="48.34727" lon="-3.98921">
        <ele>196</ele>
        <time>2017-01-16T09:46:44Z</time>
      </trkpt>
      <trkpt lat="48.34731" lon="-3.98951">
        <ele>195</ele>
        <time>2017-01-16T09:48:44Z</time>
      </trkpt>
      <trkpt lat="48.34732" lon="-3.98983">
        <ele>193</ele>
        <time>2017-01-16T09:50:44Z</time>
      </trkpt>
      <trkpt lat="48.34731" lon="-3.99004">
        <ele>192</ele>
        <time>2017-01-16T09:52:44Z</time>
      </trkpt>
      <trkpt lat="48.34741" lon="-3.99038">
        <ele>192</ele>
        <time>2017-01-16T09:54:44Z</time>
      </trkpt>
      <trkpt lat="48.34754" lon="-3.99104">
        <ele>191</ele>
        <time>2017-01-16T09:56:44Z</time>
      </trkpt>
      <trkpt lat="48.34754" lon="-3.99134">
        <ele>190</ele>
        <time>2017-01-16T09:58:44Z</time>
      </trkpt>
      <trkpt lat="48.34755" lon="-3.99154">
        <ele>190</ele>
        <time>2017-01-16T10:00:44Z</time>
      </trkpt>
      <trkpt lat="48.34757" lon="-3.99166">
        <ele>189</ele>
        <time>2017-01-16T10:02:44Z</time>
      </trkpt>
      <trkpt lat="48.34737" lon="-3.99189">
        <ele>186</ele>
        <time>2017-01-16T10:04:44Z</time>
      </trkpt>
      <trkpt lat="48.34727" lon="-3.99209">
        <ele>183</ele>
        <time>2017-01-16T10:06:44Z</time>
      </trkpt>
      <trkpt lat="48.34722" lon="-3.99232">
        <ele>181</ele>
        <time>2017-01-16T10:08:44Z</time>
      </trkpt>
      <trkpt lat="48.3472" lon="-3.99236">
        <ele>180</ele>
        <time>2017-01-16T10:10:44Z</time>
      </trkpt>
      <trkpt lat="48.34716" lon="-3.99248">
        <ele>179</ele>
        <time>2017-01-16T10:12:44Z</time>
      </trkpt>
      <trkpt lat="48.34707" lon="-3.9927">
        <ele>176</ele>
        <time>2017-01-16T10:14:44Z</time>
      </trkpt>
      <trkpt lat="48.34707" lon="-3.99277">
        <ele>175</ele>
        <time>2017-01-16T10:16:44Z</time>
      </trkpt>
      <trkpt lat="48.34709" lon="-3.99289">
        <ele>174</ele>
        <time>2017-01-16T10:18:44Z</time>
      </trkpt>
      <trkpt lat="48.34712" lon="-3.99295">
        <ele>174</ele>
        <time>2017-01-16T10:20:44Z</time>
      </trkpt>
      <trkpt lat="48.34714" lon="-3.99306">
        <ele>173</ele>
        <time>2017-01-16T10:22:44Z</time>
      </trkpt>
      <trkpt lat="48.34714" lon="-3.99311">
        <ele>172</ele>
        <time>2017-01-16T10:24:44Z</time>
      </trkpt>
      <trkpt lat="48.34717" lon="-3.99325">
        <ele>171</ele>
        <time>2017-01-16T10:26:44Z</time>
      </trkpt>
      <trkpt lat="48.34719" lon="-3.99349">
        <ele>170</ele>
        <time>2017-01-16T10:28:44Z</time>
      </trkpt>
      <trkpt lat="48.3472" lon="-3.99353">
        <ele>169</ele>
        <time>2017-01-16T10:30:44Z</time>
      </trkpt>
      <trkpt lat="48.34729" lon="-3.99366">
        <ele>169</ele>
        <time>2017-01-16T10:32:44Z</time>
      </trkpt>
      <trkpt lat="48.34731" lon="-3.99376">
        <ele>169</ele>
        <time>2017-01-16T10:34:44Z</time>
      </trkpt>
      <trkpt lat="48.34736" lon="-3.99388">
        <ele>169</ele>
        <time>2017-01-16T10:36:44Z</time>
      </trkpt>
      <trkpt lat="48.34753" lon="-3.99416">
        <ele>168</ele>
        <time>2017-01-16T10:38:44Z</time>
      </trkpt>
      <trkpt lat="48.34769" lon="-3.99447">
        <ele>169</ele>
        <time>2017-01-16T10:40:44Z</time>
      </trkpt>
      <trkpt lat="48.34779" lon="-3.99472">
        <ele>168</ele>
        <time>2017-01-16T10:42:44Z</time>
      </trkpt>
      <trkpt lat="48.3479" lon="-3.99493">
        <ele>169</ele>
        <time>2017-01-16T10:44:44Z</time>
      </trkpt>
      <trkpt lat="48.34808" lon="-3.99519">
        <ele>169</ele>
        <time>2017-01-16T10:46:44Z</time>
      </trkpt>
      <trkpt lat="48.34821" lon="-3.99549">
        <ele>169</ele>
        <time>2017-01-16T10:48:44Z</time>
      </trkpt>
      <trkpt lat="48.34838" lon="-3.99572">
        <ele>169</ele>
        <time>2017-01-16T10:50:44Z</time>
      </trkpt>
      <trkpt lat="48.34856" lon="-3.99591">
        <ele>170</ele>
        <time>2017-01-16T10:52:44Z</time>
      </trkpt>
      <trkpt lat="48.34863" lon="-3.99596">
        <ele>171</ele>
        <time>2017-01-16T10:54:44Z</time>
      </trkpt>
      <trkpt lat="48.34888" lon="-3.99611">
        <ele>173</ele>
        <time>2017-01-16T10:56:44Z</time>
      </trkpt>
      <trkpt lat="48.3491" lon="-3.99617">
        <ele>175</ele>
        <time>2017-01-16T10:58:44Z</time>
      </trkpt>
      <trkpt lat="48.34936" lon="-3.99616">
        <ele>177</ele>
        <time>2017-01-16T11:00:44Z</time>
      </trkpt>
      <trkpt lat="48.34939" lon="-3.99614">
        <ele>177</ele>
        <time>2017-01-16T11:02:44Z</time>
      </trkpt>
      <trkpt lat="48.34941" lon="-3.99611">
        <ele>178</ele>
        <time>2017-01-16T11:04:44Z</time>
      </trkpt>
      <trkpt lat="48.34945" lon="-3.99608">
        <ele>178</ele>
        <time>2017-01-16T11:06:44Z</time>
      </trkpt>
      <trkpt lat="48.3495" lon="-3.99602">
        <ele>179</ele>
        <time>2017-01-16T11:08:44Z</time>
      </trkpt>
      <trkpt lat="48.34951" lon="-3.99601">
        <ele>179</ele>
        <time>2017-01-16T11:10:44Z</time>
      </trkpt>
      <trkpt lat="48.34952" lon="-3.996">
        <ele>179</ele>
        <time>2017-01-16T11:12:44Z</time>
      </trkpt>
      <trkpt lat="48.34953" lon="-3.996">
        <ele>179</ele>
        <time>2017-01-16T11:14:44Z</time>
      </trkpt>
      <trkpt lat="48.34952" lon="-3.99604">
        <ele>179</ele>
        <time>2017-01-16T11:16:44Z</time>
      </trkpt>
      <trkpt lat="48.34949" lon="-3.99613">
        <ele>178</ele>
        <time>2017-01-16T11:18:44Z</time>
      </trkpt>
      <trkpt lat="48.34945" lon="-3.99618">
        <ele>178</ele>
        <time>2017-01-16T11:20:44Z</time>
      </trkpt>
      <trkpt lat="48.34928" lon="-3.9962">
        <ele>176</ele>
        <time>2017-01-16T11:22:44Z</time>
      </trkpt>
      <trkpt lat="48.34909" lon="-3.99616">
        <ele>175</ele>
        <time>2017-01-16T11:24:44Z</time>
      </trkpt>
      <trkpt lat="48.34892" lon="-3.99624">
        <ele>173</ele>
        <time>2017-01-16T11:26:44Z</time>
      </trkpt>
      <trkpt lat="48.34889" lon="-3.99636">
        <ele>172</ele>
        <time>2017-01-16T11:28:44Z</time>
      </trkpt>
      <trkpt lat="48.34893" lon="-3.99662">
        <ele>172</ele>
        <time>2017-01-16T11:30:44Z</time>
      </trkpt>
      <trkpt lat="48.34895" lon="-3.99667">
        <ele>172</ele>
        <time>2017-01-16T11:32:44Z</time>
      </trkpt>
      <trkpt lat="48.34898" lon="-3.99679">
        <ele>172</ele>
        <time>2017-01-16T11:34:44Z</time>
      </trkpt>
      <trkpt lat="48.34906" lon="-3.99731">
        <ele>171</ele>
        <time>2017-01-16T11:36:44Z</time>
      </trkpt>
      <trkpt lat="48.34907" lon="-3.9974">
        <ele>171</ele>
        <time>2017-01-16T11:38:44Z</time>
      </trkpt>
      <trkpt lat="48.34909" lon="-3.99748">
        <ele>171</ele>
        <time>2017-01-16T11:40:44Z</time>
      </trkpt>
      <trkpt lat="48.34933" lon="-3.99788">
        <ele>169</ele>
        <time>2017-01-16T11:42:44Z</time>
      </trkpt>
      <trkpt lat="48.34953" lon="-3.99829">
        <ele>168</ele>
        <time>2017-01-16T11:44:44Z</time>
      </trkpt>
      <trkpt lat="48.34961" lon="-3.99848">
        <ele>167</ele>
        <time>2017-01-16T11:46:44Z</time>
      </trkpt>
      <trkpt lat="48.34965" lon="-3.99855">
        <ele>166</ele>
        <time>2017-01-16T11:48:44Z</time>
      </trkpt>
      <trkpt lat="48.34967" lon="-3.99869">
        <ele>166</ele>
        <time>2017-01-16T11:50:44Z</time>
      </trkpt>
      <trkpt lat="48.3496" lon="-3.99885">
        <ele>165</ele>
        <time>2017-01-16T11:52:44Z</time>
      </trkpt>
      <trkpt lat="48.34958" lon="-3.99916">
        <ele>163</ele>
        <time>2017-01-16T11:54:44Z</time>
      </trkpt>
      <trkpt lat="48.34959" lon="-3.99926">
        <ele>163</ele>
        <time>2017-01-16T11:56:44Z</time>
      </trkpt>
      <trkpt lat="48.3496" lon="-3.99927">
        <ele>163</ele>
        <time>2017-01-16T11:58:44Z</time>
      </trkpt>
      <trkpt lat="48.3496" lon="-3.99926">
        <ele>163</ele>
        <time>2017-01-16T12:00:44Z</time>
      </trkpt>
      <trkpt lat="48.34959" lon="-3.99926">
        <ele>163</ele>
        <time>2017-01-16T12:02:44Z</time>
      </trkpt>
      <trkpt lat="48.3496" lon="-3.99927">
        <ele>163</ele>
        <time>2017-01-16T12:04:44Z</time>
      </trkpt>
      <trkpt lat="48.34957" lon="-3.99932">
        <ele>162</ele>
        <time>2017-01-16T12:06:44Z</time>
      </trkpt>
      <trkpt lat="48.34958" lon="-3.99932">
        <ele>162</ele>
        <time>2017-01-16T12:08:44Z</time>
      </trkpt>
      <trkpt lat="48.34961" lon="-3.9993">
        <ele>162</ele>
        <time>2017-01-16T12:10:44Z</time>
      </trkpt>
    </trkseg>
  </trk>
</gpx>